<?xml version="1.0" encoding="UTF-8" standalone="no" ?>
<gpx xmlns="http://www.topografix.com/GPX/1/1" xmlns:xsi="http://www.w3.org/2001/XMLSchema-instance" xsi:schemaLocation="http://www.topografix.com/GPX/1/1 http://www.topografix.com/GPX/1/1/gpx.xsd" version="1.1" creator="VisuGPX - https://www.visugpx.com">
  <metadata>
    <name>150930ROBBenjamins</name>
    <desc><![CDATA[Belle sortie ]]></desc>
  </metadata>
  <trk>
    <name><![CDATA[150930ROBBenjamins]]></name>
    <trkseg>
      <trkpt lat="43.41579" lon="6.07044">
        <ele>199.39999389648</ele>
        <time>2015-09-30T12:08:43Z</time>
      </trkpt>
      <trkpt lat="43.41579" lon="6.07044">
        <ele>199.39999389648</ele>
        <time>2015-09-30T12:08:44Z</time>
      </trkpt>
      <trkpt lat="43.41579" lon="6.07045">
        <ele>199.39999389648</ele>
        <time>2015-09-30T12:08:45Z</time>
      </trkpt>
      <trkpt lat="43.4158" lon="6.07053">
        <ele>199.60000610352</ele>
        <time>2015-09-30T12:08:48Z</time>
      </trkpt>
      <trkpt lat="43.41582" lon="6.07079">
        <ele>200</ele>
        <time>2015-09-30T12:08:55Z</time>
      </trkpt>
      <trkpt lat="43.41582" lon="6.07096">
        <ele>199.19999694824</ele>
        <time>2015-09-30T12:09:01Z</time>
      </trkpt>
      <trkpt lat="43.41581" lon="6.07104">
        <ele>199.60000610352</ele>
        <time>2015-09-30T12:09:06Z</time>
      </trkpt>
      <trkpt lat="43.41577" lon="6.07105">
        <ele>199.60000610352</ele>
        <time>2015-09-30T12:09:08Z</time>
      </trkpt>
      <trkpt lat="43.41573" lon="6.07109">
        <ele>199.60000610352</ele>
        <time>2015-09-30T12:09:12Z</time>
      </trkpt>
      <trkpt lat="43.41571" lon="6.07109">
        <ele>199.60000610352</ele>
        <time>2015-09-30T12:09:13Z</time>
      </trkpt>
      <trkpt lat="43.41568" lon="6.07111">
        <ele>199.19999694824</ele>
        <time>2015-09-30T12:09:16Z</time>
      </trkpt>
      <trkpt lat="43.41566" lon="6.07112">
        <ele>199.19999694824</ele>
        <time>2015-09-30T12:09:17Z</time>
      </trkpt>
      <trkpt lat="43.41563" lon="6.07113">
        <ele>199.19999694824</ele>
        <time>2015-09-30T12:09:19Z</time>
      </trkpt>
      <trkpt lat="43.4156" lon="6.07115">
        <ele>199.60000610352</ele>
        <time>2015-09-30T12:09:21Z</time>
      </trkpt>
      <trkpt lat="43.41554" lon="6.07116">
        <ele>199</ele>
        <time>2015-09-30T12:09:24Z</time>
      </trkpt>
      <trkpt lat="43.41547" lon="6.07111">
        <ele>199</ele>
        <time>2015-09-30T12:09:27Z</time>
      </trkpt>
      <trkpt lat="43.41547" lon="6.07107">
        <ele>199.19999694824</ele>
        <time>2015-09-30T12:09:28Z</time>
      </trkpt>
      <trkpt lat="43.41542" lon="6.07081">
        <ele>199</ele>
        <time>2015-09-30T12:09:34Z</time>
      </trkpt>
      <trkpt lat="43.41539" lon="6.07078">
        <ele>198.80000305176</ele>
        <time>2015-09-30T12:09:35Z</time>
      </trkpt>
      <trkpt lat="43.41534" lon="6.07077">
        <ele>198.60000610352</ele>
        <time>2015-09-30T12:09:36Z</time>
      </trkpt>
      <trkpt lat="43.41529" lon="6.07078">
        <ele>198.39999389648</ele>
        <time>2015-09-30T12:09:37Z</time>
      </trkpt>
      <trkpt lat="43.41519" lon="6.0708">
        <ele>198.19999694824</ele>
        <time>2015-09-30T12:09:39Z</time>
      </trkpt>
      <trkpt lat="43.41498" lon="6.07083">
        <ele>198.19999694824</ele>
        <time>2015-09-30T12:09:43Z</time>
      </trkpt>
      <trkpt lat="43.4148" lon="6.07077">
        <ele>197.39999389648</ele>
        <time>2015-09-30T12:09:47Z</time>
      </trkpt>
      <trkpt lat="43.41471" lon="6.07077">
        <ele>197.19999694824</ele>
        <time>2015-09-30T12:09:50Z</time>
      </trkpt>
      <trkpt lat="43.41464" lon="6.07073">
        <ele>196.60000610352</ele>
        <time>2015-09-30T12:09:54Z</time>
      </trkpt>
      <trkpt lat="43.41463" lon="6.07073">
        <ele>196.60000610352</ele>
        <time>2015-09-30T12:09:55Z</time>
      </trkpt>
      <trkpt lat="43.41463" lon="6.07072">
        <ele>196.19999694824</ele>
        <time>2015-09-30T12:10:02Z</time>
      </trkpt>
      <trkpt lat="43.41467" lon="6.07065">
        <ele>196.19999694824</ele>
        <time>2015-09-30T12:10:09Z</time>
      </trkpt>
      <trkpt lat="43.41476" lon="6.07048">
        <ele>196.39999389648</ele>
        <time>2015-09-30T12:10:16Z</time>
      </trkpt>
      <trkpt lat="43.4148" lon="6.07039">
        <ele>196.60000610352</ele>
        <time>2015-09-30T12:10:19Z</time>
      </trkpt>
      <trkpt lat="43.41484" lon="6.0703">
        <ele>196.60000610352</ele>
        <time>2015-09-30T12:10:22Z</time>
      </trkpt>
      <trkpt lat="43.41492" lon="6.07011">
        <ele>196.60000610352</ele>
        <time>2015-09-30T12:10:26Z</time>
      </trkpt>
      <trkpt lat="43.41495" lon="6.07001">
        <ele>197.19999694824</ele>
        <time>2015-09-30T12:10:28Z</time>
      </trkpt>
      <trkpt lat="43.41494" lon="6.06979">
        <ele>197.19999694824</ele>
        <time>2015-09-30T12:10:32Z</time>
      </trkpt>
      <trkpt lat="43.41492" lon="6.06974">
        <ele>197.39999389648</ele>
        <time>2015-09-30T12:10:33Z</time>
      </trkpt>
      <trkpt lat="43.41484" lon="6.06959">
        <ele>197.39999389648</ele>
        <time>2015-09-30T12:10:36Z</time>
      </trkpt>
      <trkpt lat="43.41476" lon="6.06946">
        <ele>197.60000610352</ele>
        <time>2015-09-30T12:10:39Z</time>
      </trkpt>
      <trkpt lat="43.41473" lon="6.06938">
        <ele>197.80000305176</ele>
        <time>2015-09-30T12:10:41Z</time>
      </trkpt>
      <trkpt lat="43.41469" lon="6.06926">
        <ele>198.39999389648</ele>
        <time>2015-09-30T12:10:44Z</time>
      </trkpt>
      <trkpt lat="43.41469" lon="6.06923">
        <ele>198.60000610352</ele>
        <time>2015-09-30T12:10:45Z</time>
      </trkpt>
      <trkpt lat="43.41471" lon="6.06918">
        <ele>198.80000305176</ele>
        <time>2015-09-30T12:10:47Z</time>
      </trkpt>
      <trkpt lat="43.41474" lon="6.06916">
        <ele>198.80000305176</ele>
        <time>2015-09-30T12:10:50Z</time>
      </trkpt>
      <trkpt lat="43.41473" lon="6.06915">
        <ele>199</ele>
        <time>2015-09-30T12:10:57Z</time>
      </trkpt>
      <trkpt lat="43.41476" lon="6.06907">
        <ele>199</ele>
        <time>2015-09-30T12:11:03Z</time>
      </trkpt>
      <trkpt lat="43.41477" lon="6.06897">
        <ele>199.19999694824</ele>
        <time>2015-09-30T12:11:08Z</time>
      </trkpt>
      <trkpt lat="43.41475" lon="6.0689">
        <ele>199</ele>
        <time>2015-09-30T12:11:13Z</time>
      </trkpt>
      <trkpt lat="43.41476" lon="6.06873">
        <ele>198.80000305176</ele>
        <time>2015-09-30T12:11:17Z</time>
      </trkpt>
      <trkpt lat="43.41475" lon="6.06867">
        <ele>199</ele>
        <time>2015-09-30T12:11:18Z</time>
      </trkpt>
      <trkpt lat="43.41476" lon="6.06848">
        <ele>199</ele>
        <time>2015-09-30T12:11:21Z</time>
      </trkpt>
      <trkpt lat="43.41476" lon="6.06841">
        <ele>199</ele>
        <time>2015-09-30T12:11:22Z</time>
      </trkpt>
      <trkpt lat="43.41478" lon="6.06834">
        <ele>198.80000305176</ele>
        <time>2015-09-30T12:11:23Z</time>
      </trkpt>
      <trkpt lat="43.41484" lon="6.06816">
        <ele>198.39999389648</ele>
        <time>2015-09-30T12:11:26Z</time>
      </trkpt>
      <trkpt lat="43.41487" lon="6.0681">
        <ele>198.39999389648</ele>
        <time>2015-09-30T12:11:27Z</time>
      </trkpt>
      <trkpt lat="43.41495" lon="6.06769">
        <ele>199.19999694824</ele>
        <time>2015-09-30T12:11:33Z</time>
      </trkpt>
      <trkpt lat="43.41498" lon="6.06735">
        <ele>200</ele>
        <time>2015-09-30T12:11:38Z</time>
      </trkpt>
      <trkpt lat="43.415" lon="6.06715">
        <ele>200.60000610352</ele>
        <time>2015-09-30T12:11:41Z</time>
      </trkpt>
      <trkpt lat="43.41501" lon="6.06682">
        <ele>201</ele>
        <time>2015-09-30T12:11:46Z</time>
      </trkpt>
      <trkpt lat="43.41504" lon="6.06665">
        <ele>201.39999389648</ele>
        <time>2015-09-30T12:11:49Z</time>
      </trkpt>
      <trkpt lat="43.41511" lon="6.06619">
        <ele>201.60000610352</ele>
        <time>2015-09-30T12:11:57Z</time>
      </trkpt>
      <trkpt lat="43.4152" lon="6.06572">
        <ele>201.80000305176</ele>
        <time>2015-09-30T12:12:05Z</time>
      </trkpt>
      <trkpt lat="43.41526" lon="6.06536">
        <ele>201.80000305176</ele>
        <time>2015-09-30T12:12:12Z</time>
      </trkpt>
      <trkpt lat="43.41529" lon="6.0652">
        <ele>201.80000305176</ele>
        <time>2015-09-30T12:12:16Z</time>
      </trkpt>
      <trkpt lat="43.4153" lon="6.06515">
        <ele>201.80000305176</ele>
        <time>2015-09-30T12:12:17Z</time>
      </trkpt>
      <trkpt lat="43.41541" lon="6.06496">
        <ele>202.60000610352</ele>
        <time>2015-09-30T12:12:22Z</time>
      </trkpt>
      <trkpt lat="43.41544" lon="6.06492">
        <ele>202.80000305176</ele>
        <time>2015-09-30T12:12:23Z</time>
      </trkpt>
      <trkpt lat="43.41549" lon="6.06472">
        <ele>203</ele>
        <time>2015-09-30T12:12:27Z</time>
      </trkpt>
      <trkpt lat="43.41549" lon="6.06436">
        <ele>203.60000610352</ele>
        <time>2015-09-30T12:12:33Z</time>
      </trkpt>
      <trkpt lat="43.41553" lon="6.06416">
        <ele>204.60000610352</ele>
        <time>2015-09-30T12:12:37Z</time>
      </trkpt>
      <trkpt lat="43.41556" lon="6.06402">
        <ele>205.19999694824</ele>
        <time>2015-09-30T12:12:40Z</time>
      </trkpt>
      <trkpt lat="43.41558" lon="6.06394">
        <ele>205.80000305176</ele>
        <time>2015-09-30T12:12:42Z</time>
      </trkpt>
      <trkpt lat="43.4156" lon="6.06384">
        <ele>206.19999694824</ele>
        <time>2015-09-30T12:12:45Z</time>
      </trkpt>
      <trkpt lat="43.41562" lon="6.06371">
        <ele>207</ele>
        <time>2015-09-30T12:12:48Z</time>
      </trkpt>
      <trkpt lat="43.41566" lon="6.06358">
        <ele>208.19999694824</ele>
        <time>2015-09-30T12:12:51Z</time>
      </trkpt>
      <trkpt lat="43.41567" lon="6.06355">
        <ele>208.39999389648</ele>
        <time>2015-09-30T12:12:52Z</time>
      </trkpt>
      <trkpt lat="43.41574" lon="6.06342">
        <ele>209</ele>
        <time>2015-09-30T12:12:56Z</time>
      </trkpt>
      <trkpt lat="43.41582" lon="6.0633">
        <ele>209.80000305176</ele>
        <time>2015-09-30T12:13:00Z</time>
      </trkpt>
      <trkpt lat="43.41588" lon="6.06317">
        <ele>210.39999389648</ele>
        <time>2015-09-30T12:13:04Z</time>
      </trkpt>
      <trkpt lat="43.4159" lon="6.06305">
        <ele>210.39999389648</ele>
        <time>2015-09-30T12:13:07Z</time>
      </trkpt>
      <trkpt lat="43.41588" lon="6.0628">
        <ele>211.19999694824</ele>
        <time>2015-09-30T12:13:13Z</time>
      </trkpt>
      <trkpt lat="43.41587" lon="6.06276">
        <ele>211.60000610352</ele>
        <time>2015-09-30T12:13:15Z</time>
      </trkpt>
      <trkpt lat="43.41587" lon="6.06274">
        <ele>211.60000610352</ele>
        <time>2015-09-30T12:13:16Z</time>
      </trkpt>
      <trkpt lat="43.41588" lon="6.06272">
        <ele>211.60000610352</ele>
        <time>2015-09-30T12:13:17Z</time>
      </trkpt>
      <trkpt lat="43.41593" lon="6.06267">
        <ele>211.80000305176</ele>
        <time>2015-09-30T12:13:20Z</time>
      </trkpt>
      <trkpt lat="43.41594" lon="6.06264">
        <ele>211.80000305176</ele>
        <time>2015-09-30T12:13:21Z</time>
      </trkpt>
      <trkpt lat="43.41599" lon="6.06257">
        <ele>212.39999389648</ele>
        <time>2015-09-30T12:13:27Z</time>
      </trkpt>
      <trkpt lat="43.41603" lon="6.06254">
        <ele>212.39999389648</ele>
        <time>2015-09-30T12:13:37Z</time>
      </trkpt>
      <trkpt lat="43.41603" lon="6.06252">
        <ele>212.39999389648</ele>
        <time>2015-09-30T12:13:38Z</time>
      </trkpt>
      <trkpt lat="43.41606" lon="6.06245">
        <ele>212.80000305176</ele>
        <time>2015-09-30T12:13:40Z</time>
      </trkpt>
      <trkpt lat="43.41607" lon="6.06241">
        <ele>212.80000305176</ele>
        <time>2015-09-30T12:13:41Z</time>
      </trkpt>
      <trkpt lat="43.4161" lon="6.06229">
        <ele>212.80000305176</ele>
        <time>2015-09-30T12:13:44Z</time>
      </trkpt>
      <trkpt lat="43.4161" lon="6.06223">
        <ele>212.80000305176</ele>
        <time>2015-09-30T12:13:46Z</time>
      </trkpt>
      <trkpt lat="43.4161" lon="6.06211">
        <ele>212.80000305176</ele>
        <time>2015-09-30T12:13:50Z</time>
      </trkpt>
      <trkpt lat="43.41608" lon="6.06205">
        <ele>212.60000610352</ele>
        <time>2015-09-30T12:13:52Z</time>
      </trkpt>
      <trkpt lat="43.41603" lon="6.06188">
        <ele>212</ele>
        <time>2015-09-30T12:13:56Z</time>
      </trkpt>
      <trkpt lat="43.41604" lon="6.06182">
        <ele>211.80000305176</ele>
        <time>2015-09-30T12:13:57Z</time>
      </trkpt>
      <trkpt lat="43.41605" lon="6.06177">
        <ele>211.80000305176</ele>
        <time>2015-09-30T12:13:58Z</time>
      </trkpt>
      <trkpt lat="43.41607" lon="6.06171">
        <ele>211.60000610352</ele>
        <time>2015-09-30T12:13:59Z</time>
      </trkpt>
      <trkpt lat="43.41613" lon="6.06161">
        <ele>211.39999389648</ele>
        <time>2015-09-30T12:14:01Z</time>
      </trkpt>
      <trkpt lat="43.41616" lon="6.06156">
        <ele>211.39999389648</ele>
        <time>2015-09-30T12:14:02Z</time>
      </trkpt>
      <trkpt lat="43.41624" lon="6.06145">
        <ele>211.19999694824</ele>
        <time>2015-09-30T12:14:05Z</time>
      </trkpt>
      <trkpt lat="43.41628" lon="6.0614">
        <ele>211.39999389648</ele>
        <time>2015-09-30T12:14:07Z</time>
      </trkpt>
      <trkpt lat="43.41631" lon="6.06129">
        <ele>211.39999389648</ele>
        <time>2015-09-30T12:14:10Z</time>
      </trkpt>
      <trkpt lat="43.41629" lon="6.06123">
        <ele>211.39999389648</ele>
        <time>2015-09-30T12:14:11Z</time>
      </trkpt>
      <trkpt lat="43.41623" lon="6.06104">
        <ele>211.19999694824</ele>
        <time>2015-09-30T12:14:14Z</time>
      </trkpt>
      <trkpt lat="43.4162" lon="6.0609">
        <ele>211</ele>
        <time>2015-09-30T12:14:16Z</time>
      </trkpt>
      <trkpt lat="43.41619" lon="6.06082">
        <ele>211</ele>
        <time>2015-09-30T12:14:17Z</time>
      </trkpt>
      <trkpt lat="43.4162" lon="6.06059">
        <ele>211.80000305176</ele>
        <time>2015-09-30T12:14:20Z</time>
      </trkpt>
      <trkpt lat="43.41622" lon="6.06037">
        <ele>212.39999389648</ele>
        <time>2015-09-30T12:14:23Z</time>
      </trkpt>
      <trkpt lat="43.41623" lon="6.06024">
        <ele>212.80000305176</ele>
        <time>2015-09-30T12:14:25Z</time>
      </trkpt>
      <trkpt lat="43.41624" lon="6.06017">
        <ele>212.80000305176</ele>
        <time>2015-09-30T12:14:26Z</time>
      </trkpt>
      <trkpt lat="43.41629" lon="6.05992">
        <ele>214</ele>
        <time>2015-09-30T12:14:30Z</time>
      </trkpt>
      <trkpt lat="43.41635" lon="6.05955">
        <ele>214.80000305176</ele>
        <time>2015-09-30T12:14:36Z</time>
      </trkpt>
      <trkpt lat="43.41638" lon="6.05931">
        <ele>215</ele>
        <time>2015-09-30T12:14:40Z</time>
      </trkpt>
      <trkpt lat="43.41643" lon="6.05888">
        <ele>216</ele>
        <time>2015-09-30T12:14:47Z</time>
      </trkpt>
      <trkpt lat="43.41645" lon="6.0586">
        <ele>216</ele>
        <time>2015-09-30T12:14:52Z</time>
      </trkpt>
      <trkpt lat="43.41648" lon="6.05826">
        <ele>216.80000305176</ele>
        <time>2015-09-30T12:14:58Z</time>
      </trkpt>
      <trkpt lat="43.4165" lon="6.05778">
        <ele>217</ele>
        <time>2015-09-30T12:15:06Z</time>
      </trkpt>
      <trkpt lat="43.4165" lon="6.05765">
        <ele>217.19999694824</ele>
        <time>2015-09-30T12:15:08Z</time>
      </trkpt>
      <trkpt lat="43.41648" lon="6.0572">
        <ele>217</ele>
        <time>2015-09-30T12:15:15Z</time>
      </trkpt>
      <trkpt lat="43.41647" lon="6.05694">
        <ele>216.80000305176</ele>
        <time>2015-09-30T12:15:19Z</time>
      </trkpt>
      <trkpt lat="43.41642" lon="6.05649">
        <ele>216.39999389648</ele>
        <time>2015-09-30T12:15:26Z</time>
      </trkpt>
      <trkpt lat="43.41637" lon="6.0561">
        <ele>215.80000305176</ele>
        <time>2015-09-30T12:15:32Z</time>
      </trkpt>
      <trkpt lat="43.41634" lon="6.05592">
        <ele>216</ele>
        <time>2015-09-30T12:15:35Z</time>
      </trkpt>
      <trkpt lat="43.41633" lon="6.05585">
        <ele>215.80000305176</ele>
        <time>2015-09-30T12:15:36Z</time>
      </trkpt>
      <trkpt lat="43.41631" lon="6.05572">
        <ele>215.80000305176</ele>
        <time>2015-09-30T12:15:38Z</time>
      </trkpt>
      <trkpt lat="43.41623" lon="6.05539">
        <ele>215.19999694824</ele>
        <time>2015-09-30T12:15:43Z</time>
      </trkpt>
      <trkpt lat="43.41608" lon="6.05485">
        <ele>215.39999389648</ele>
        <time>2015-09-30T12:15:51Z</time>
      </trkpt>
      <trkpt lat="43.41604" lon="6.05471">
        <ele>214.80000305176</ele>
        <time>2015-09-30T12:15:53Z</time>
      </trkpt>
      <trkpt lat="43.41591" lon="6.05426">
        <ele>215</ele>
        <time>2015-09-30T12:15:59Z</time>
      </trkpt>
      <trkpt lat="43.41567" lon="6.05359">
        <ele>215.39999389648</ele>
        <time>2015-09-30T12:16:08Z</time>
      </trkpt>
      <trkpt lat="43.41564" lon="6.05352">
        <ele>215.19999694824</ele>
        <time>2015-09-30T12:16:09Z</time>
      </trkpt>
      <trkpt lat="43.41553" lon="6.05323">
        <ele>214.39999389648</ele>
        <time>2015-09-30T12:16:13Z</time>
      </trkpt>
      <trkpt lat="43.41545" lon="6.05293">
        <ele>213.60000610352</ele>
        <time>2015-09-30T12:16:17Z</time>
      </trkpt>
      <trkpt lat="43.41536" lon="6.05264">
        <ele>213.19999694824</ele>
        <time>2015-09-30T12:16:21Z</time>
      </trkpt>
      <trkpt lat="43.41523" lon="6.05234">
        <ele>212.39999389648</ele>
        <time>2015-09-30T12:16:25Z</time>
      </trkpt>
      <trkpt lat="43.41505" lon="6.05196">
        <ele>211</ele>
        <time>2015-09-30T12:16:30Z</time>
      </trkpt>
      <trkpt lat="43.41497" lon="6.05177">
        <ele>210.80000305176</ele>
        <time>2015-09-30T12:16:33Z</time>
      </trkpt>
      <trkpt lat="43.41499" lon="6.05164">
        <ele>211</ele>
        <time>2015-09-30T12:16:36Z</time>
      </trkpt>
      <trkpt lat="43.41507" lon="6.05158">
        <ele>211.39999389648</ele>
        <time>2015-09-30T12:16:39Z</time>
      </trkpt>
      <trkpt lat="43.41514" lon="6.05156">
        <ele>211.39999389648</ele>
        <time>2015-09-30T12:16:41Z</time>
      </trkpt>
      <trkpt lat="43.41526" lon="6.05154">
        <ele>211.60000610352</ele>
        <time>2015-09-30T12:16:44Z</time>
      </trkpt>
      <trkpt lat="43.41537" lon="6.05153">
        <ele>211.60000610352</ele>
        <time>2015-09-30T12:16:47Z</time>
      </trkpt>
      <trkpt lat="43.41544" lon="6.05152">
        <ele>212.19999694824</ele>
        <time>2015-09-30T12:16:49Z</time>
      </trkpt>
      <trkpt lat="43.41557" lon="6.05154">
        <ele>213.19999694824</ele>
        <time>2015-09-30T12:16:53Z</time>
      </trkpt>
      <trkpt lat="43.41568" lon="6.05156">
        <ele>214.19999694824</ele>
        <time>2015-09-30T12:16:57Z</time>
      </trkpt>
      <trkpt lat="43.4157" lon="6.05157">
        <ele>214.60000610352</ele>
        <time>2015-09-30T12:16:58Z</time>
      </trkpt>
      <trkpt lat="43.41575" lon="6.05158">
        <ele>215.39999389648</ele>
        <time>2015-09-30T12:17:00Z</time>
      </trkpt>
      <trkpt lat="43.41584" lon="6.0516">
        <ele>215.60000610352</ele>
        <time>2015-09-30T12:17:03Z</time>
      </trkpt>
      <trkpt lat="43.41601" lon="6.05163">
        <ele>216.80000305176</ele>
        <time>2015-09-30T12:17:09Z</time>
      </trkpt>
      <trkpt lat="43.4161" lon="6.05163">
        <ele>217.80000305176</ele>
        <time>2015-09-30T12:17:12Z</time>
      </trkpt>
      <trkpt lat="43.41625" lon="6.05165">
        <ele>218.80000305176</ele>
        <time>2015-09-30T12:17:17Z</time>
      </trkpt>
      <trkpt lat="43.41631" lon="6.05165">
        <ele>219.39999389648</ele>
        <time>2015-09-30T12:17:19Z</time>
      </trkpt>
      <trkpt lat="43.41645" lon="6.05167">
        <ele>220</ele>
        <time>2015-09-30T12:17:24Z</time>
      </trkpt>
      <trkpt lat="43.41655" lon="6.05167">
        <ele>221.19999694824</ele>
        <time>2015-09-30T12:17:28Z</time>
      </trkpt>
      <trkpt lat="43.41658" lon="6.05167">
        <ele>221.39999389648</ele>
        <time>2015-09-30T12:17:29Z</time>
      </trkpt>
      <trkpt lat="43.41674" lon="6.05158">
        <ele>222.39999389648</ele>
        <time>2015-09-30T12:17:36Z</time>
      </trkpt>
      <trkpt lat="43.4169" lon="6.05137">
        <ele>223.80000305176</ele>
        <time>2015-09-30T12:17:45Z</time>
      </trkpt>
      <trkpt lat="43.41704" lon="6.05125">
        <ele>224.60000610352</ele>
        <time>2015-09-30T12:17:52Z</time>
      </trkpt>
      <trkpt lat="43.41706" lon="6.05123">
        <ele>224.80000305176</ele>
        <time>2015-09-30T12:17:53Z</time>
      </trkpt>
      <trkpt lat="43.41728" lon="6.0511">
        <ele>225.60000610352</ele>
        <time>2015-09-30T12:18:03Z</time>
      </trkpt>
      <trkpt lat="43.41734" lon="6.0511">
        <ele>226.80000305176</ele>
        <time>2015-09-30T12:18:06Z</time>
      </trkpt>
      <trkpt lat="43.41735" lon="6.05111">
        <ele>226.80000305176</ele>
        <time>2015-09-30T12:18:07Z</time>
      </trkpt>
      <trkpt lat="43.41737" lon="6.05114">
        <ele>227</ele>
        <time>2015-09-30T12:18:08Z</time>
      </trkpt>
      <trkpt lat="43.41738" lon="6.05122">
        <ele>227.39999389648</ele>
        <time>2015-09-30T12:18:11Z</time>
      </trkpt>
      <trkpt lat="43.41738" lon="6.05129">
        <ele>227.80000305176</ele>
        <time>2015-09-30T12:18:13Z</time>
      </trkpt>
      <trkpt lat="43.41738" lon="6.05162">
        <ele>228.19999694824</ele>
        <time>2015-09-30T12:18:22Z</time>
      </trkpt>
      <trkpt lat="43.41744" lon="6.05176">
        <ele>228</ele>
        <time>2015-09-30T12:18:27Z</time>
      </trkpt>
      <trkpt lat="43.41759" lon="6.0518">
        <ele>228.39999389648</ele>
        <time>2015-09-30T12:18:33Z</time>
      </trkpt>
      <trkpt lat="43.41766" lon="6.05181">
        <ele>229</ele>
        <time>2015-09-30T12:18:36Z</time>
      </trkpt>
      <trkpt lat="43.41778" lon="6.05182">
        <ele>229.60000610352</ele>
        <time>2015-09-30T12:18:41Z</time>
      </trkpt>
      <trkpt lat="43.41788" lon="6.05182">
        <ele>230.19999694824</ele>
        <time>2015-09-30T12:18:45Z</time>
      </trkpt>
      <trkpt lat="43.41798" lon="6.05182">
        <ele>230</ele>
        <time>2015-09-30T12:18:49Z</time>
      </trkpt>
      <trkpt lat="43.41818" lon="6.05184">
        <ele>231.19999694824</ele>
        <time>2015-09-30T12:18:57Z</time>
      </trkpt>
      <trkpt lat="43.4182" lon="6.05185">
        <ele>231.60000610352</ele>
        <time>2015-09-30T12:18:58Z</time>
      </trkpt>
      <trkpt lat="43.41835" lon="6.05185">
        <ele>232.39999389648</ele>
        <time>2015-09-30T12:19:04Z</time>
      </trkpt>
      <trkpt lat="43.41842" lon="6.05185">
        <ele>232</ele>
        <time>2015-09-30T12:19:07Z</time>
      </trkpt>
      <trkpt lat="43.41855" lon="6.05184">
        <ele>233.39999389648</ele>
        <time>2015-09-30T12:19:13Z</time>
      </trkpt>
      <trkpt lat="43.41861" lon="6.05182">
        <ele>233.60000610352</ele>
        <time>2015-09-30T12:19:16Z</time>
      </trkpt>
      <trkpt lat="43.41877" lon="6.05177">
        <ele>234.39999389648</ele>
        <time>2015-09-30T12:19:23Z</time>
      </trkpt>
      <trkpt lat="43.41881" lon="6.05176">
        <ele>235.19999694824</ele>
        <time>2015-09-30T12:19:26Z</time>
      </trkpt>
      <trkpt lat="43.41882" lon="6.05176">
        <ele>235.39999389648</ele>
        <time>2015-09-30T12:19:27Z</time>
      </trkpt>
      <trkpt lat="43.41882" lon="6.05177">
        <ele>235.60000610352</ele>
        <time>2015-09-30T12:19:28Z</time>
      </trkpt>
      <trkpt lat="43.41892" lon="6.05175">
        <ele>237.19999694824</ele>
        <time>2015-09-30T12:19:36Z</time>
      </trkpt>
      <trkpt lat="43.4189" lon="6.05179">
        <ele>237.39999389648</ele>
        <time>2015-09-30T12:19:38Z</time>
      </trkpt>
      <trkpt lat="43.41895" lon="6.05178">
        <ele>237.80000305176</ele>
        <time>2015-09-30T12:19:42Z</time>
      </trkpt>
      <trkpt lat="43.41903" lon="6.05169">
        <ele>237.80000305176</ele>
        <time>2015-09-30T12:19:45Z</time>
      </trkpt>
      <trkpt lat="43.41913" lon="6.05161">
        <ele>238.19999694824</ele>
        <time>2015-09-30T12:19:47Z</time>
      </trkpt>
      <trkpt lat="43.41934" lon="6.0515">
        <ele>239</ele>
        <time>2015-09-30T12:19:52Z</time>
      </trkpt>
      <trkpt lat="43.41952" lon="6.0514">
        <ele>240</ele>
        <time>2015-09-30T12:19:58Z</time>
      </trkpt>
      <trkpt lat="43.41961" lon="6.05137">
        <ele>240.60000610352</ele>
        <time>2015-09-30T12:20:01Z</time>
      </trkpt>
      <trkpt lat="43.41968" lon="6.05133">
        <ele>241.39999389648</ele>
        <time>2015-09-30T12:20:04Z</time>
      </trkpt>
      <trkpt lat="43.41978" lon="6.05131">
        <ele>242.19999694824</ele>
        <time>2015-09-30T12:20:08Z</time>
      </trkpt>
      <trkpt lat="43.4199" lon="6.05131">
        <ele>242.39999389648</ele>
        <time>2015-09-30T12:20:12Z</time>
      </trkpt>
      <trkpt lat="43.42001" lon="6.05128">
        <ele>242.80000305176</ele>
        <time>2015-09-30T12:20:16Z</time>
      </trkpt>
      <trkpt lat="43.42025" lon="6.05121">
        <ele>243</ele>
        <time>2015-09-30T12:20:24Z</time>
      </trkpt>
      <trkpt lat="43.42035" lon="6.05119">
        <ele>243.39999389648</ele>
        <time>2015-09-30T12:20:27Z</time>
      </trkpt>
      <trkpt lat="43.42048" lon="6.05116">
        <ele>243.80000305176</ele>
        <time>2015-09-30T12:20:32Z</time>
      </trkpt>
      <trkpt lat="43.42085" lon="6.05114">
        <ele>244.80000305176</ele>
        <time>2015-09-30T12:20:45Z</time>
      </trkpt>
      <trkpt lat="43.42091" lon="6.05115">
        <ele>245.19999694824</ele>
        <time>2015-09-30T12:20:47Z</time>
      </trkpt>
      <trkpt lat="43.42112" lon="6.05115">
        <ele>246</ele>
        <time>2015-09-30T12:20:54Z</time>
      </trkpt>
      <trkpt lat="43.42115" lon="6.05116">
        <ele>246.19999694824</ele>
        <time>2015-09-30T12:20:55Z</time>
      </trkpt>
      <trkpt lat="43.42123" lon="6.05119">
        <ele>247</ele>
        <time>2015-09-30T12:20:59Z</time>
      </trkpt>
      <trkpt lat="43.42125" lon="6.0512">
        <ele>247.19999694824</ele>
        <time>2015-09-30T12:21:00Z</time>
      </trkpt>
      <trkpt lat="43.42128" lon="6.05122">
        <ele>247.39999389648</ele>
        <time>2015-09-30T12:21:06Z</time>
      </trkpt>
      <trkpt lat="43.42128" lon="6.05122">
        <ele>247.60000610352</ele>
        <time>2015-09-30T12:21:10Z</time>
      </trkpt>
      <trkpt lat="43.42128" lon="6.05124">
        <ele>247.60000610352</ele>
        <time>2015-09-30T12:21:11Z</time>
      </trkpt>
      <trkpt lat="43.42128" lon="6.05126">
        <ele>247.60000610352</ele>
        <time>2015-09-30T12:21:13Z</time>
      </trkpt>
      <trkpt lat="43.42129" lon="6.05126">
        <ele>247.80000305176</ele>
        <time>2015-09-30T12:21:19Z</time>
      </trkpt>
      <trkpt lat="43.42129" lon="6.05126">
        <ele>248</ele>
        <time>2015-09-30T12:21:21Z</time>
      </trkpt>
      <trkpt lat="43.42129" lon="6.05127">
        <ele>248</ele>
        <time>2015-09-30T12:21:27Z</time>
      </trkpt>
      <trkpt lat="43.42129" lon="6.05127">
        <ele>248</ele>
        <time>2015-09-30T12:21:35Z</time>
      </trkpt>
      <trkpt lat="43.42129" lon="6.05127">
        <ele>247.80000305176</ele>
        <time>2015-09-30T12:21:51Z</time>
      </trkpt>
      <trkpt lat="43.42129" lon="6.05127">
        <ele>247.60000610352</ele>
        <time>2015-09-30T12:22:27Z</time>
      </trkpt>
      <trkpt lat="43.42129" lon="6.05127">
        <ele>248.39999389648</ele>
        <time>2015-09-30T12:22:39Z</time>
      </trkpt>
      <trkpt lat="43.42129" lon="6.05128">
        <ele>248.19999694824</ele>
        <time>2015-09-30T12:22:44Z</time>
      </trkpt>
      <trkpt lat="43.42129" lon="6.05128">
        <ele>248</ele>
        <time>2015-09-30T12:22:48Z</time>
      </trkpt>
      <trkpt lat="43.4213" lon="6.05129">
        <ele>248.60000610352</ele>
        <time>2015-09-30T12:22:59Z</time>
      </trkpt>
      <trkpt lat="43.42131" lon="6.05129">
        <ele>248</ele>
        <time>2015-09-30T12:23:10Z</time>
      </trkpt>
      <trkpt lat="43.42131" lon="6.05128">
        <ele>247.80000305176</ele>
        <time>2015-09-30T12:23:14Z</time>
      </trkpt>
      <trkpt lat="43.42133" lon="6.05128">
        <ele>248.39999389648</ele>
        <time>2015-09-30T12:23:16Z</time>
      </trkpt>
      <trkpt lat="43.42133" lon="6.05128">
        <ele>248.60000610352</ele>
        <time>2015-09-30T12:23:20Z</time>
      </trkpt>
      <trkpt lat="43.42133" lon="6.05129">
        <ele>248.80000305176</ele>
        <time>2015-09-30T12:23:24Z</time>
      </trkpt>
      <trkpt lat="43.42133" lon="6.05129">
        <ele>248.19999694824</ele>
        <time>2015-09-30T12:24:08Z</time>
      </trkpt>
      <trkpt lat="43.42133" lon="6.05129">
        <ele>248</ele>
        <time>2015-09-30T12:25:51Z</time>
      </trkpt>
      <trkpt lat="43.42133" lon="6.0513">
        <ele>248.60000610352</ele>
        <time>2015-09-30T12:26:19Z</time>
      </trkpt>
      <trkpt lat="43.42133" lon="6.05131">
        <ele>248.39999389648</ele>
        <time>2015-09-30T12:26:43Z</time>
      </trkpt>
      <trkpt lat="43.42133" lon="6.05131">
        <ele>248.19999694824</ele>
        <time>2015-09-30T12:26:49Z</time>
      </trkpt>
      <trkpt lat="43.42133" lon="6.05131">
        <ele>248.60000610352</ele>
        <time>2015-09-30T12:26:56Z</time>
      </trkpt>
      <trkpt lat="43.42133" lon="6.05131">
        <ele>248.60000610352</ele>
        <time>2015-09-30T12:27:23Z</time>
      </trkpt>
      <trkpt lat="43.42134" lon="6.05133">
        <ele>249.19999694824</ele>
        <time>2015-09-30T12:27:54Z</time>
      </trkpt>
      <trkpt lat="43.42134" lon="6.05133">
        <ele>249</ele>
        <time>2015-09-30T12:28:05Z</time>
      </trkpt>
      <trkpt lat="43.42134" lon="6.05133">
        <ele>249.19999694824</ele>
        <time>2015-09-30T12:28:11Z</time>
      </trkpt>
      <trkpt lat="43.42134" lon="6.05133">
        <ele>248.39999389648</ele>
        <time>2015-09-30T12:29:17Z</time>
      </trkpt>
      <trkpt lat="43.42134" lon="6.05133">
        <ele>248</ele>
        <time>2015-09-30T12:29:21Z</time>
      </trkpt>
      <trkpt lat="43.42136" lon="6.05136">
        <ele>248.80000305176</ele>
        <time>2015-09-30T12:29:32Z</time>
      </trkpt>
      <trkpt lat="43.42141" lon="6.05143">
        <ele>249.19999694824</ele>
        <time>2015-09-30T12:29:36Z</time>
      </trkpt>
      <trkpt lat="43.42142" lon="6.05145">
        <ele>249.39999389648</ele>
        <time>2015-09-30T12:29:37Z</time>
      </trkpt>
      <trkpt lat="43.42152" lon="6.0516">
        <ele>249.80000305176</ele>
        <time>2015-09-30T12:29:44Z</time>
      </trkpt>
      <trkpt lat="43.4216" lon="6.05164">
        <ele>249.80000305176</ele>
        <time>2015-09-30T12:29:47Z</time>
      </trkpt>
      <trkpt lat="43.42169" lon="6.05171">
        <ele>250</ele>
        <time>2015-09-30T12:29:51Z</time>
      </trkpt>
      <trkpt lat="43.42175" lon="6.05174">
        <ele>250.39999389648</ele>
        <time>2015-09-30T12:29:53Z</time>
      </trkpt>
      <trkpt lat="43.42182" lon="6.0518">
        <ele>251</ele>
        <time>2015-09-30T12:29:56Z</time>
      </trkpt>
      <trkpt lat="43.42186" lon="6.05184">
        <ele>251.19999694824</ele>
        <time>2015-09-30T12:29:58Z</time>
      </trkpt>
      <trkpt lat="43.42195" lon="6.05189">
        <ele>251.19999694824</ele>
        <time>2015-09-30T12:30:01Z</time>
      </trkpt>
      <trkpt lat="43.42199" lon="6.05192">
        <ele>251.39999389648</ele>
        <time>2015-09-30T12:30:03Z</time>
      </trkpt>
      <trkpt lat="43.42201" lon="6.05193">
        <ele>251.60000610352</ele>
        <time>2015-09-30T12:30:04Z</time>
      </trkpt>
      <trkpt lat="43.42215" lon="6.05202">
        <ele>252.80000305176</ele>
        <time>2015-09-30T12:30:10Z</time>
      </trkpt>
      <trkpt lat="43.42226" lon="6.05218">
        <ele>253.80000305176</ele>
        <time>2015-09-30T12:30:15Z</time>
      </trkpt>
      <trkpt lat="43.42241" lon="6.0522">
        <ele>254.19999694824</ele>
        <time>2015-09-30T12:30:19Z</time>
      </trkpt>
      <trkpt lat="43.42247" lon="6.05219">
        <ele>255.39999389648</ele>
        <time>2015-09-30T12:30:21Z</time>
      </trkpt>
      <trkpt lat="43.42256" lon="6.05218">
        <ele>255.60000610352</ele>
        <time>2015-09-30T12:30:24Z</time>
      </trkpt>
      <trkpt lat="43.42268" lon="6.05219">
        <ele>255.39999389648</ele>
        <time>2015-09-30T12:30:28Z</time>
      </trkpt>
      <trkpt lat="43.42289" lon="6.05223">
        <ele>256.20001220703</ele>
        <time>2015-09-30T12:30:35Z</time>
      </trkpt>
      <trkpt lat="43.42306" lon="6.05228">
        <ele>256.39999389648</ele>
        <time>2015-09-30T12:30:42Z</time>
      </trkpt>
      <trkpt lat="43.42313" lon="6.05229">
        <ele>256.79998779297</ele>
        <time>2015-09-30T12:30:45Z</time>
      </trkpt>
      <trkpt lat="43.42324" lon="6.05231">
        <ele>257.79998779297</ele>
        <time>2015-09-30T12:30:50Z</time>
      </trkpt>
      <trkpt lat="43.42332" lon="6.05233">
        <ele>259</ele>
        <time>2015-09-30T12:30:54Z</time>
      </trkpt>
      <trkpt lat="43.42336" lon="6.05234">
        <ele>259.60000610352</ele>
        <time>2015-09-30T12:30:56Z</time>
      </trkpt>
      <trkpt lat="43.42339" lon="6.05234">
        <ele>260.20001220703</ele>
        <time>2015-09-30T12:30:58Z</time>
      </trkpt>
      <trkpt lat="43.42348" lon="6.05235">
        <ele>261.20001220703</ele>
        <time>2015-09-30T12:31:03Z</time>
      </trkpt>
      <trkpt lat="43.4235" lon="6.05235">
        <ele>261.39999389648</ele>
        <time>2015-09-30T12:31:04Z</time>
      </trkpt>
      <trkpt lat="43.42361" lon="6.05233">
        <ele>261.79998779297</ele>
        <time>2015-09-30T12:31:09Z</time>
      </trkpt>
      <trkpt lat="43.42374" lon="6.0523">
        <ele>262.39999389648</ele>
        <time>2015-09-30T12:31:15Z</time>
      </trkpt>
      <trkpt lat="43.42376" lon="6.0523">
        <ele>262.79998779297</ele>
        <time>2015-09-30T12:31:16Z</time>
      </trkpt>
      <trkpt lat="43.42383" lon="6.05231">
        <ele>263.60000610352</ele>
        <time>2015-09-30T12:31:20Z</time>
      </trkpt>
      <trkpt lat="43.42389" lon="6.0523">
        <ele>263.60000610352</ele>
        <time>2015-09-30T12:31:23Z</time>
      </trkpt>
      <trkpt lat="43.42402" lon="6.05227">
        <ele>263.60000610352</ele>
        <time>2015-09-30T12:31:29Z</time>
      </trkpt>
      <trkpt lat="43.42404" lon="6.05226">
        <ele>263.60000610352</ele>
        <time>2015-09-30T12:31:30Z</time>
      </trkpt>
      <trkpt lat="43.42416" lon="6.05226">
        <ele>264.20001220703</ele>
        <time>2015-09-30T12:31:36Z</time>
      </trkpt>
      <trkpt lat="43.42421" lon="6.05226">
        <ele>264.60000610352</ele>
        <time>2015-09-30T12:31:38Z</time>
      </trkpt>
      <trkpt lat="43.42429" lon="6.05226">
        <ele>265</ele>
        <time>2015-09-30T12:31:42Z</time>
      </trkpt>
      <trkpt lat="43.4244" lon="6.05225">
        <ele>265.20001220703</ele>
        <time>2015-09-30T12:31:47Z</time>
      </trkpt>
      <trkpt lat="43.42447" lon="6.05222">
        <ele>265.60000610352</ele>
        <time>2015-09-30T12:31:51Z</time>
      </trkpt>
      <trkpt lat="43.42455" lon="6.05219">
        <ele>267</ele>
        <time>2015-09-30T12:31:56Z</time>
      </trkpt>
      <trkpt lat="43.42463" lon="6.05216">
        <ele>269.20001220703</ele>
        <time>2015-09-30T12:32:03Z</time>
      </trkpt>
      <trkpt lat="43.42466" lon="6.05216">
        <ele>269.39999389648</ele>
        <time>2015-09-30T12:32:08Z</time>
      </trkpt>
      <trkpt lat="43.42466" lon="6.05216">
        <ele>269.20001220703</ele>
        <time>2015-09-30T12:32:25Z</time>
      </trkpt>
      <trkpt lat="43.42466" lon="6.05216">
        <ele>269</ele>
        <time>2015-09-30T12:32:50Z</time>
      </trkpt>
      <trkpt lat="43.42466" lon="6.05216">
        <ele>268.60000610352</ele>
        <time>2015-09-30T12:32:58Z</time>
      </trkpt>
      <trkpt lat="43.42466" lon="6.05216">
        <ele>269</ele>
        <time>2015-09-30T12:33:01Z</time>
      </trkpt>
      <trkpt lat="43.42467" lon="6.05217">
        <ele>269</ele>
        <time>2015-09-30T12:33:04Z</time>
      </trkpt>
      <trkpt lat="43.42471" lon="6.05218">
        <ele>269</ele>
        <time>2015-09-30T12:33:06Z</time>
      </trkpt>
      <trkpt lat="43.42484" lon="6.0522">
        <ele>269.39999389648</ele>
        <time>2015-09-30T12:33:11Z</time>
      </trkpt>
      <trkpt lat="43.42491" lon="6.05224">
        <ele>268.79998779297</ele>
        <time>2015-09-30T12:33:14Z</time>
      </trkpt>
      <trkpt lat="43.425" lon="6.05226">
        <ele>268.39999389648</ele>
        <time>2015-09-30T12:33:17Z</time>
      </trkpt>
      <trkpt lat="43.42516" lon="6.05228">
        <ele>268.60000610352</ele>
        <time>2015-09-30T12:33:24Z</time>
      </trkpt>
      <trkpt lat="43.42527" lon="6.05227">
        <ele>269</ele>
        <time>2015-09-30T12:33:30Z</time>
      </trkpt>
      <trkpt lat="43.4253" lon="6.05227">
        <ele>269.39999389648</ele>
        <time>2015-09-30T12:33:36Z</time>
      </trkpt>
      <trkpt lat="43.4253" lon="6.05227">
        <ele>269.60000610352</ele>
        <time>2015-09-30T12:33:46Z</time>
      </trkpt>
      <trkpt lat="43.4253" lon="6.05227">
        <ele>269.60000610352</ele>
        <time>2015-09-30T12:33:48Z</time>
      </trkpt>
      <trkpt lat="43.42532" lon="6.05227">
        <ele>269.60000610352</ele>
        <time>2015-09-30T12:33:50Z</time>
      </trkpt>
      <trkpt lat="43.4254" lon="6.05227">
        <ele>269.60000610352</ele>
        <time>2015-09-30T12:33:55Z</time>
      </trkpt>
      <trkpt lat="43.42545" lon="6.05225">
        <ele>270</ele>
        <time>2015-09-30T12:33:57Z</time>
      </trkpt>
      <trkpt lat="43.42546" lon="6.05224">
        <ele>270.39999389648</ele>
        <time>2015-09-30T12:33:58Z</time>
      </trkpt>
      <trkpt lat="43.42546" lon="6.05223">
        <ele>270.79998779297</ele>
        <time>2015-09-30T12:33:59Z</time>
      </trkpt>
      <trkpt lat="43.42547" lon="6.05223">
        <ele>271</ele>
        <time>2015-09-30T12:34:02Z</time>
      </trkpt>
      <trkpt lat="43.42547" lon="6.05223">
        <ele>271.20001220703</ele>
        <time>2015-09-30T12:34:05Z</time>
      </trkpt>
      <trkpt lat="43.42548" lon="6.05222">
        <ele>271.20001220703</ele>
        <time>2015-09-30T12:34:07Z</time>
      </trkpt>
      <trkpt lat="43.42553" lon="6.05221">
        <ele>271.60000610352</ele>
        <time>2015-09-30T12:34:10Z</time>
      </trkpt>
      <trkpt lat="43.42564" lon="6.05223">
        <ele>271.79998779297</ele>
        <time>2015-09-30T12:34:16Z</time>
      </trkpt>
      <trkpt lat="43.42575" lon="6.05227">
        <ele>272</ele>
        <time>2015-09-30T12:34:22Z</time>
      </trkpt>
      <trkpt lat="43.42588" lon="6.05238">
        <ele>271.20001220703</ele>
        <time>2015-09-30T12:34:29Z</time>
      </trkpt>
      <trkpt lat="43.42599" lon="6.05248">
        <ele>271.60000610352</ele>
        <time>2015-09-30T12:34:35Z</time>
      </trkpt>
      <trkpt lat="43.42611" lon="6.0526">
        <ele>271.79998779297</ele>
        <time>2015-09-30T12:34:40Z</time>
      </trkpt>
      <trkpt lat="43.42614" lon="6.05262">
        <ele>272.79998779297</ele>
        <time>2015-09-30T12:34:42Z</time>
      </trkpt>
      <trkpt lat="43.42619" lon="6.05265">
        <ele>272.79998779297</ele>
        <time>2015-09-30T12:34:44Z</time>
      </trkpt>
      <trkpt lat="43.42628" lon="6.0527">
        <ele>273.39999389648</ele>
        <time>2015-09-30T12:34:49Z</time>
      </trkpt>
      <trkpt lat="43.42628" lon="6.0527">
        <ele>273.60000610352</ele>
        <time>2015-09-30T12:34:50Z</time>
      </trkpt>
      <trkpt lat="43.42628" lon="6.0527">
        <ele>274</ele>
        <time>2015-09-30T12:34:53Z</time>
      </trkpt>
      <trkpt lat="43.42629" lon="6.05271">
        <ele>274.20001220703</ele>
        <time>2015-09-30T12:34:57Z</time>
      </trkpt>
      <trkpt lat="43.42629" lon="6.05271">
        <ele>274</ele>
        <time>2015-09-30T12:35:14Z</time>
      </trkpt>
      <trkpt lat="43.42629" lon="6.05271">
        <ele>274.20001220703</ele>
        <time>2015-09-30T12:35:21Z</time>
      </trkpt>
      <trkpt lat="43.42629" lon="6.05271">
        <ele>274</ele>
        <time>2015-09-30T12:35:26Z</time>
      </trkpt>
      <trkpt lat="43.42629" lon="6.05271">
        <ele>273.79998779297</ele>
        <time>2015-09-30T12:35:44Z</time>
      </trkpt>
      <trkpt lat="43.42628" lon="6.05271">
        <ele>273.79998779297</ele>
        <time>2015-09-30T12:35:45Z</time>
      </trkpt>
      <trkpt lat="43.42629" lon="6.05271">
        <ele>274</ele>
        <time>2015-09-30T12:35:51Z</time>
      </trkpt>
      <trkpt lat="43.42629" lon="6.05271">
        <ele>274</ele>
        <time>2015-09-30T12:35:58Z</time>
      </trkpt>
      <trkpt lat="43.42629" lon="6.05271">
        <ele>274.20001220703</ele>
        <time>2015-09-30T12:36:10Z</time>
      </trkpt>
      <trkpt lat="43.42628" lon="6.05272">
        <ele>274.20001220703</ele>
        <time>2015-09-30T12:36:11Z</time>
      </trkpt>
      <trkpt lat="43.42628" lon="6.05272">
        <ele>274.39999389648</ele>
        <time>2015-09-30T12:36:23Z</time>
      </trkpt>
      <trkpt lat="43.42628" lon="6.05272">
        <ele>274.20001220703</ele>
        <time>2015-09-30T12:36:27Z</time>
      </trkpt>
      <trkpt lat="43.42629" lon="6.05271">
        <ele>273.20001220703</ele>
        <time>2015-09-30T12:36:34Z</time>
      </trkpt>
      <trkpt lat="43.42629" lon="6.05271">
        <ele>273.60000610352</ele>
        <time>2015-09-30T12:36:42Z</time>
      </trkpt>
      <trkpt lat="43.42629" lon="6.05271">
        <ele>273.79998779297</ele>
        <time>2015-09-30T12:37:08Z</time>
      </trkpt>
      <trkpt lat="43.4263" lon="6.05272">
        <ele>273.39999389648</ele>
        <time>2015-09-30T12:37:35Z</time>
      </trkpt>
      <trkpt lat="43.4263" lon="6.05272">
        <ele>274.60000610352</ele>
        <time>2015-09-30T12:37:40Z</time>
      </trkpt>
      <trkpt lat="43.4263" lon="6.05272">
        <ele>275</ele>
        <time>2015-09-30T12:37:44Z</time>
      </trkpt>
      <trkpt lat="43.42633" lon="6.05279">
        <ele>275</ele>
        <time>2015-09-30T12:37:51Z</time>
      </trkpt>
      <trkpt lat="43.42643" lon="6.05288">
        <ele>275.20001220703</ele>
        <time>2015-09-30T12:37:57Z</time>
      </trkpt>
      <trkpt lat="43.42654" lon="6.05304">
        <ele>275.39999389648</ele>
        <time>2015-09-30T12:38:03Z</time>
      </trkpt>
      <trkpt lat="43.42659" lon="6.05312">
        <ele>275.60000610352</ele>
        <time>2015-09-30T12:38:06Z</time>
      </trkpt>
      <trkpt lat="43.42664" lon="6.05319">
        <ele>276.20001220703</ele>
        <time>2015-09-30T12:38:10Z</time>
      </trkpt>
      <trkpt lat="43.42668" lon="6.05326">
        <ele>276.20001220703</ele>
        <time>2015-09-30T12:38:14Z</time>
      </trkpt>
      <trkpt lat="43.42669" lon="6.05328">
        <ele>276.60000610352</ele>
        <time>2015-09-30T12:38:15Z</time>
      </trkpt>
      <trkpt lat="43.4267" lon="6.0533">
        <ele>277.20001220703</ele>
        <time>2015-09-30T12:38:17Z</time>
      </trkpt>
      <trkpt lat="43.42671" lon="6.0533">
        <ele>278.20001220703</ele>
        <time>2015-09-30T12:38:20Z</time>
      </trkpt>
      <trkpt lat="43.42671" lon="6.05331">
        <ele>278.39999389648</ele>
        <time>2015-09-30T12:38:24Z</time>
      </trkpt>
      <trkpt lat="43.42673" lon="6.05332">
        <ele>278.39999389648</ele>
        <time>2015-09-30T12:38:28Z</time>
      </trkpt>
      <trkpt lat="43.42674" lon="6.05333">
        <ele>278.60000610352</ele>
        <time>2015-09-30T12:38:30Z</time>
      </trkpt>
      <trkpt lat="43.42676" lon="6.05337">
        <ele>278.39999389648</ele>
        <time>2015-09-30T12:38:36Z</time>
      </trkpt>
      <trkpt lat="43.42677" lon="6.05338">
        <ele>278.20001220703</ele>
        <time>2015-09-30T12:38:48Z</time>
      </trkpt>
      <trkpt lat="43.42678" lon="6.05341">
        <ele>279</ele>
        <time>2015-09-30T12:38:52Z</time>
      </trkpt>
      <trkpt lat="43.42686" lon="6.05344">
        <ele>279.79998779297</ele>
        <time>2015-09-30T12:38:57Z</time>
      </trkpt>
      <trkpt lat="43.42688" lon="6.05345">
        <ele>280</ele>
        <time>2015-09-30T12:38:58Z</time>
      </trkpt>
      <trkpt lat="43.42701" lon="6.05344">
        <ele>280.60000610352</ele>
        <time>2015-09-30T12:39:04Z</time>
      </trkpt>
      <trkpt lat="43.42713" lon="6.05344">
        <ele>280.79998779297</ele>
        <time>2015-09-30T12:39:09Z</time>
      </trkpt>
      <trkpt lat="43.42714" lon="6.05346">
        <ele>281</ele>
        <time>2015-09-30T12:39:10Z</time>
      </trkpt>
      <trkpt lat="43.42719" lon="6.05356">
        <ele>281.39999389648</ele>
        <time>2015-09-30T12:39:16Z</time>
      </trkpt>
      <trkpt lat="43.42719" lon="6.05367">
        <ele>282</ele>
        <time>2015-09-30T12:39:21Z</time>
      </trkpt>
      <trkpt lat="43.42717" lon="6.05376">
        <ele>282.39999389648</ele>
        <time>2015-09-30T12:39:25Z</time>
      </trkpt>
      <trkpt lat="43.42717" lon="6.05381">
        <ele>283.20001220703</ele>
        <time>2015-09-30T12:39:27Z</time>
      </trkpt>
      <trkpt lat="43.4272" lon="6.05392">
        <ele>283.60000610352</ele>
        <time>2015-09-30T12:39:32Z</time>
      </trkpt>
      <trkpt lat="43.42721" lon="6.05394">
        <ele>283.79998779297</ele>
        <time>2015-09-30T12:39:33Z</time>
      </trkpt>
      <trkpt lat="43.42722" lon="6.05405">
        <ele>284.39999389648</ele>
        <time>2015-09-30T12:39:38Z</time>
      </trkpt>
      <trkpt lat="43.42723" lon="6.05408">
        <ele>284.79998779297</ele>
        <time>2015-09-30T12:39:40Z</time>
      </trkpt>
      <trkpt lat="43.42725" lon="6.05413">
        <ele>285</ele>
        <time>2015-09-30T12:39:43Z</time>
      </trkpt>
      <trkpt lat="43.42728" lon="6.05424">
        <ele>285.79998779297</ele>
        <time>2015-09-30T12:39:48Z</time>
      </trkpt>
      <trkpt lat="43.42729" lon="6.05428">
        <ele>285.79998779297</ele>
        <time>2015-09-30T12:39:50Z</time>
      </trkpt>
      <trkpt lat="43.42731" lon="6.05446">
        <ele>286.20001220703</ele>
        <time>2015-09-30T12:39:58Z</time>
      </trkpt>
      <trkpt lat="43.42729" lon="6.05457">
        <ele>286.60000610352</ele>
        <time>2015-09-30T12:40:03Z</time>
      </trkpt>
      <trkpt lat="43.42724" lon="6.05475">
        <ele>287.60000610352</ele>
        <time>2015-09-30T12:40:11Z</time>
      </trkpt>
      <trkpt lat="43.42727" lon="6.05497">
        <ele>289.39999389648</ele>
        <time>2015-09-30T12:40:20Z</time>
      </trkpt>
      <trkpt lat="43.42728" lon="6.05511">
        <ele>290.20001220703</ele>
        <time>2015-09-30T12:40:26Z</time>
      </trkpt>
      <trkpt lat="43.42729" lon="6.05525">
        <ele>290.39999389648</ele>
        <time>2015-09-30T12:40:31Z</time>
      </trkpt>
      <trkpt lat="43.42729" lon="6.05529">
        <ele>290.60000610352</ele>
        <time>2015-09-30T12:40:33Z</time>
      </trkpt>
      <trkpt lat="43.42733" lon="6.05547">
        <ele>291.60000610352</ele>
        <time>2015-09-30T12:40:40Z</time>
      </trkpt>
      <trkpt lat="43.42737" lon="6.0556">
        <ele>292.79998779297</ele>
        <time>2015-09-30T12:40:46Z</time>
      </trkpt>
      <trkpt lat="43.42737" lon="6.05563">
        <ele>293</ele>
        <time>2015-09-30T12:40:47Z</time>
      </trkpt>
      <trkpt lat="43.4274" lon="6.05573">
        <ele>293.79998779297</ele>
        <time>2015-09-30T12:40:52Z</time>
      </trkpt>
      <trkpt lat="43.42742" lon="6.05574">
        <ele>293.79998779297</ele>
        <time>2015-09-30T12:40:53Z</time>
      </trkpt>
      <trkpt lat="43.42752" lon="6.05585">
        <ele>294.79998779297</ele>
        <time>2015-09-30T12:41:00Z</time>
      </trkpt>
      <trkpt lat="43.42752" lon="6.05588">
        <ele>295</ele>
        <time>2015-09-30T12:41:01Z</time>
      </trkpt>
      <trkpt lat="43.42754" lon="6.05594">
        <ele>296.39999389648</ele>
        <time>2015-09-30T12:41:05Z</time>
      </trkpt>
      <trkpt lat="43.42752" lon="6.05613">
        <ele>298.39999389648</ele>
        <time>2015-09-30T12:41:15Z</time>
      </trkpt>
      <trkpt lat="43.4275" lon="6.05617">
        <ele>298.79998779297</ele>
        <time>2015-09-30T12:41:18Z</time>
      </trkpt>
      <trkpt lat="43.42749" lon="6.05623">
        <ele>298.39999389648</ele>
        <time>2015-09-30T12:41:22Z</time>
      </trkpt>
      <trkpt lat="43.42746" lon="6.0563">
        <ele>299.20001220703</ele>
        <time>2015-09-30T12:41:26Z</time>
      </trkpt>
      <trkpt lat="43.42744" lon="6.05634">
        <ele>299.60000610352</ele>
        <time>2015-09-30T12:41:28Z</time>
      </trkpt>
      <trkpt lat="43.42739" lon="6.05638">
        <ele>300.20001220703</ele>
        <time>2015-09-30T12:41:32Z</time>
      </trkpt>
      <trkpt lat="43.42731" lon="6.05649">
        <ele>300.60000610352</ele>
        <time>2015-09-30T12:41:38Z</time>
      </trkpt>
      <trkpt lat="43.4273" lon="6.05652">
        <ele>300.79998779297</ele>
        <time>2015-09-30T12:41:40Z</time>
      </trkpt>
      <trkpt lat="43.42725" lon="6.05664">
        <ele>301.39999389648</ele>
        <time>2015-09-30T12:41:47Z</time>
      </trkpt>
      <trkpt lat="43.42721" lon="6.05672">
        <ele>301.60000610352</ele>
        <time>2015-09-30T12:41:52Z</time>
      </trkpt>
      <trkpt lat="43.4272" lon="6.05674">
        <ele>301.60000610352</ele>
        <time>2015-09-30T12:41:53Z</time>
      </trkpt>
      <trkpt lat="43.42719" lon="6.05675">
        <ele>301.79998779297</ele>
        <time>2015-09-30T12:41:54Z</time>
      </trkpt>
      <trkpt lat="43.42714" lon="6.05678">
        <ele>302.60000610352</ele>
        <time>2015-09-30T12:41:58Z</time>
      </trkpt>
      <trkpt lat="43.42709" lon="6.05687">
        <ele>303.79998779297</ele>
        <time>2015-09-30T12:42:05Z</time>
      </trkpt>
      <trkpt lat="43.42707" lon="6.05697">
        <ele>304.79998779297</ele>
        <time>2015-09-30T12:42:12Z</time>
      </trkpt>
      <trkpt lat="43.42706" lon="6.05698">
        <ele>305.20001220703</ele>
        <time>2015-09-30T12:42:13Z</time>
      </trkpt>
      <trkpt lat="43.42706" lon="6.057">
        <ele>305.79998779297</ele>
        <time>2015-09-30T12:42:17Z</time>
      </trkpt>
      <trkpt lat="43.42706" lon="6.05703">
        <ele>306.20001220703</ele>
        <time>2015-09-30T12:42:24Z</time>
      </trkpt>
      <trkpt lat="43.42706" lon="6.05703">
        <ele>306.39999389648</ele>
        <time>2015-09-30T12:42:25Z</time>
      </trkpt>
      <trkpt lat="43.42706" lon="6.05704">
        <ele>306.39999389648</ele>
        <time>2015-09-30T12:42:31Z</time>
      </trkpt>
      <trkpt lat="43.42706" lon="6.05704">
        <ele>306</ele>
        <time>2015-09-30T12:42:36Z</time>
      </trkpt>
      <trkpt lat="43.42704" lon="6.05707">
        <ele>306.20001220703</ele>
        <time>2015-09-30T12:42:44Z</time>
      </trkpt>
      <trkpt lat="43.42703" lon="6.05718">
        <ele>307</ele>
        <time>2015-09-30T12:42:49Z</time>
      </trkpt>
      <trkpt lat="43.42702" lon="6.0572">
        <ele>307.20001220703</ele>
        <time>2015-09-30T12:42:50Z</time>
      </trkpt>
      <trkpt lat="43.42701" lon="6.05722">
        <ele>307.39999389648</ele>
        <time>2015-09-30T12:42:51Z</time>
      </trkpt>
      <trkpt lat="43.427" lon="6.05735">
        <ele>308.60000610352</ele>
        <time>2015-09-30T12:42:56Z</time>
      </trkpt>
      <trkpt lat="43.42702" lon="6.05738">
        <ele>309.60000610352</ele>
        <time>2015-09-30T12:42:59Z</time>
      </trkpt>
      <trkpt lat="43.42704" lon="6.05738">
        <ele>309.60000610352</ele>
        <time>2015-09-30T12:43:01Z</time>
      </trkpt>
      <trkpt lat="43.42707" lon="6.05739">
        <ele>309.60000610352</ele>
        <time>2015-09-30T12:43:04Z</time>
      </trkpt>
      <trkpt lat="43.42712" lon="6.05739">
        <ele>309.60000610352</ele>
        <time>2015-09-30T12:43:07Z</time>
      </trkpt>
      <trkpt lat="43.42727" lon="6.0574">
        <ele>309.79998779297</ele>
        <time>2015-09-30T12:43:15Z</time>
      </trkpt>
      <trkpt lat="43.42739" lon="6.05742">
        <ele>310.39999389648</ele>
        <time>2015-09-30T12:43:22Z</time>
      </trkpt>
      <trkpt lat="43.42747" lon="6.05742">
        <ele>310.20001220703</ele>
        <time>2015-09-30T12:43:28Z</time>
      </trkpt>
      <trkpt lat="43.42755" lon="6.05741">
        <ele>310.20001220703</ele>
        <time>2015-09-30T12:43:33Z</time>
      </trkpt>
      <trkpt lat="43.42764" lon="6.05732">
        <ele>310.60000610352</ele>
        <time>2015-09-30T12:43:39Z</time>
      </trkpt>
      <trkpt lat="43.42765" lon="6.05731">
        <ele>310.60000610352</ele>
        <time>2015-09-30T12:43:40Z</time>
      </trkpt>
      <trkpt lat="43.42776" lon="6.05731">
        <ele>310.20001220703</ele>
        <time>2015-09-30T12:43:46Z</time>
      </trkpt>
      <trkpt lat="43.42783" lon="6.05736">
        <ele>310.60000610352</ele>
        <time>2015-09-30T12:43:51Z</time>
      </trkpt>
      <trkpt lat="43.42785" lon="6.05737">
        <ele>310.79998779297</ele>
        <time>2015-09-30T12:43:52Z</time>
      </trkpt>
      <trkpt lat="43.42789" lon="6.05738">
        <ele>311.39999389648</ele>
        <time>2015-09-30T12:43:55Z</time>
      </trkpt>
      <trkpt lat="43.42791" lon="6.05739">
        <ele>311.79998779297</ele>
        <time>2015-09-30T12:43:56Z</time>
      </trkpt>
      <trkpt lat="43.42794" lon="6.05744">
        <ele>312</ele>
        <time>2015-09-30T12:43:59Z</time>
      </trkpt>
      <trkpt lat="43.42795" lon="6.05745">
        <ele>312.20001220703</ele>
        <time>2015-09-30T12:44:00Z</time>
      </trkpt>
      <trkpt lat="43.42802" lon="6.05745">
        <ele>312</ele>
        <time>2015-09-30T12:44:04Z</time>
      </trkpt>
      <trkpt lat="43.4281" lon="6.0574">
        <ele>311.60000610352</ele>
        <time>2015-09-30T12:44:09Z</time>
      </trkpt>
      <trkpt lat="43.4282" lon="6.05738">
        <ele>311.60000610352</ele>
        <time>2015-09-30T12:44:14Z</time>
      </trkpt>
      <trkpt lat="43.42825" lon="6.05736">
        <ele>311.39999389648</ele>
        <time>2015-09-30T12:44:17Z</time>
      </trkpt>
      <trkpt lat="43.42829" lon="6.05734">
        <ele>311.20001220703</ele>
        <time>2015-09-30T12:44:20Z</time>
      </trkpt>
      <trkpt lat="43.4283" lon="6.05734">
        <ele>311</ele>
        <time>2015-09-30T12:44:25Z</time>
      </trkpt>
      <trkpt lat="43.4283" lon="6.05734">
        <ele>311.20001220703</ele>
        <time>2015-09-30T12:44:37Z</time>
      </trkpt>
      <trkpt lat="43.4283" lon="6.05733">
        <ele>311.20001220703</ele>
        <time>2015-09-30T12:45:06Z</time>
      </trkpt>
      <trkpt lat="43.4283" lon="6.05733">
        <ele>311.79998779297</ele>
        <time>2015-09-30T12:45:32Z</time>
      </trkpt>
      <trkpt lat="43.42831" lon="6.05733">
        <ele>311.79998779297</ele>
        <time>2015-09-30T12:45:39Z</time>
      </trkpt>
      <trkpt lat="43.42831" lon="6.05734">
        <ele>311.39999389648</ele>
        <time>2015-09-30T12:46:01Z</time>
      </trkpt>
      <trkpt lat="43.42832" lon="6.05733">
        <ele>311.79998779297</ele>
        <time>2015-09-30T12:46:17Z</time>
      </trkpt>
      <trkpt lat="43.42832" lon="6.05733">
        <ele>311.39999389648</ele>
        <time>2015-09-30T12:46:39Z</time>
      </trkpt>
      <trkpt lat="43.42832" lon="6.05733">
        <ele>311.20001220703</ele>
        <time>2015-09-30T12:47:06Z</time>
      </trkpt>
      <trkpt lat="43.42832" lon="6.05733">
        <ele>311</ele>
        <time>2015-09-30T12:47:16Z</time>
      </trkpt>
      <trkpt lat="43.42832" lon="6.05733">
        <ele>310.60000610352</ele>
        <time>2015-09-30T12:47:23Z</time>
      </trkpt>
      <trkpt lat="43.42832" lon="6.05733">
        <ele>311.60000610352</ele>
        <time>2015-09-30T12:47:41Z</time>
      </trkpt>
      <trkpt lat="43.42832" lon="6.05733">
        <ele>311.20001220703</ele>
        <time>2015-09-30T12:47:58Z</time>
      </trkpt>
      <trkpt lat="43.42833" lon="6.05733">
        <ele>311.39999389648</ele>
        <time>2015-09-30T12:48:31Z</time>
      </trkpt>
      <trkpt lat="43.42833" lon="6.05734">
        <ele>312.20001220703</ele>
        <time>2015-09-30T12:48:41Z</time>
      </trkpt>
      <trkpt lat="43.42835" lon="6.05734">
        <ele>312</ele>
        <time>2015-09-30T12:48:43Z</time>
      </trkpt>
      <trkpt lat="43.42839" lon="6.05729">
        <ele>312</ele>
        <time>2015-09-30T12:48:47Z</time>
      </trkpt>
      <trkpt lat="43.42841" lon="6.05727">
        <ele>311.79998779297</ele>
        <time>2015-09-30T12:48:48Z</time>
      </trkpt>
      <trkpt lat="43.42844" lon="6.05708">
        <ele>311.60000610352</ele>
        <time>2015-09-30T12:48:54Z</time>
      </trkpt>
      <trkpt lat="43.42846" lon="6.05685">
        <ele>312.39999389648</ele>
        <time>2015-09-30T12:49:01Z</time>
      </trkpt>
      <trkpt lat="43.42849" lon="6.05665">
        <ele>312.20001220703</ele>
        <time>2015-09-30T12:49:05Z</time>
      </trkpt>
      <trkpt lat="43.42849" lon="6.05659">
        <ele>312</ele>
        <time>2015-09-30T12:49:06Z</time>
      </trkpt>
      <trkpt lat="43.42854" lon="6.0562">
        <ele>311.60000610352</ele>
        <time>2015-09-30T12:49:12Z</time>
      </trkpt>
      <trkpt lat="43.42855" lon="6.05606">
        <ele>311.39999389648</ele>
        <time>2015-09-30T12:49:14Z</time>
      </trkpt>
      <trkpt lat="43.4286" lon="6.05557">
        <ele>311.20001220703</ele>
        <time>2015-09-30T12:49:21Z</time>
      </trkpt>
      <trkpt lat="43.42861" lon="6.05551">
        <ele>310.79998779297</ele>
        <time>2015-09-30T12:49:22Z</time>
      </trkpt>
      <trkpt lat="43.42863" lon="6.05546">
        <ele>310.60000610352</ele>
        <time>2015-09-30T12:49:23Z</time>
      </trkpt>
      <trkpt lat="43.42867" lon="6.05544">
        <ele>310.79998779297</ele>
        <time>2015-09-30T12:49:25Z</time>
      </trkpt>
      <trkpt lat="43.42878" lon="6.05547">
        <ele>310.39999389648</ele>
        <time>2015-09-30T12:49:30Z</time>
      </trkpt>
      <trkpt lat="43.42881" lon="6.05549">
        <ele>310.20001220703</ele>
        <time>2015-09-30T12:49:31Z</time>
      </trkpt>
      <trkpt lat="43.42892" lon="6.05556">
        <ele>309.79998779297</ele>
        <time>2015-09-30T12:49:35Z</time>
      </trkpt>
      <trkpt lat="43.4291" lon="6.05555">
        <ele>309</ele>
        <time>2015-09-30T12:49:40Z</time>
      </trkpt>
      <trkpt lat="43.42921" lon="6.05547">
        <ele>307.60000610352</ele>
        <time>2015-09-30T12:49:43Z</time>
      </trkpt>
      <trkpt lat="43.42928" lon="6.05542">
        <ele>307.60000610352</ele>
        <time>2015-09-30T12:49:45Z</time>
      </trkpt>
      <trkpt lat="43.42936" lon="6.05534">
        <ele>308.20001220703</ele>
        <time>2015-09-30T12:49:48Z</time>
      </trkpt>
      <trkpt lat="43.42939" lon="6.05532">
        <ele>308.20001220703</ele>
        <time>2015-09-30T12:49:49Z</time>
      </trkpt>
      <trkpt lat="43.42947" lon="6.05528">
        <ele>307.60000610352</ele>
        <time>2015-09-30T12:49:52Z</time>
      </trkpt>
      <trkpt lat="43.42959" lon="6.05522">
        <ele>308.60000610352</ele>
        <time>2015-09-30T12:49:56Z</time>
      </trkpt>
      <trkpt lat="43.42966" lon="6.05519">
        <ele>309.79998779297</ele>
        <time>2015-09-30T12:49:59Z</time>
      </trkpt>
      <trkpt lat="43.42971" lon="6.05517">
        <ele>311</ele>
        <time>2015-09-30T12:50:01Z</time>
      </trkpt>
      <trkpt lat="43.4298" lon="6.05511">
        <ele>313.20001220703</ele>
        <time>2015-09-30T12:50:05Z</time>
      </trkpt>
      <trkpt lat="43.42984" lon="6.05508">
        <ele>313.79998779297</ele>
        <time>2015-09-30T12:50:07Z</time>
      </trkpt>
      <trkpt lat="43.4299" lon="6.05504">
        <ele>314.60000610352</ele>
        <time>2015-09-30T12:50:10Z</time>
      </trkpt>
      <trkpt lat="43.42994" lon="6.05504">
        <ele>315</ele>
        <time>2015-09-30T12:50:12Z</time>
      </trkpt>
      <trkpt lat="43.42996" lon="6.05504">
        <ele>315.20001220703</ele>
        <time>2015-09-30T12:50:14Z</time>
      </trkpt>
      <trkpt lat="43.42999" lon="6.05505">
        <ele>315.60000610352</ele>
        <time>2015-09-30T12:50:16Z</time>
      </trkpt>
      <trkpt lat="43.43005" lon="6.05506">
        <ele>316.60000610352</ele>
        <time>2015-09-30T12:50:22Z</time>
      </trkpt>
      <trkpt lat="43.43007" lon="6.05506">
        <ele>315.60000610352</ele>
        <time>2015-09-30T12:50:26Z</time>
      </trkpt>
      <trkpt lat="43.43007" lon="6.05505">
        <ele>316.39999389648</ele>
        <time>2015-09-30T12:50:29Z</time>
      </trkpt>
      <trkpt lat="43.43007" lon="6.05505">
        <ele>316.79998779297</ele>
        <time>2015-09-30T12:50:31Z</time>
      </trkpt>
      <trkpt lat="43.43007" lon="6.05506">
        <ele>315.79998779297</ele>
        <time>2015-09-30T12:50:35Z</time>
      </trkpt>
      <trkpt lat="43.43008" lon="6.05507">
        <ele>316.79998779297</ele>
        <time>2015-09-30T12:50:44Z</time>
      </trkpt>
      <trkpt lat="43.4301" lon="6.05508">
        <ele>316.39999389648</ele>
        <time>2015-09-30T12:50:59Z</time>
      </trkpt>
      <trkpt lat="43.4301" lon="6.05508">
        <ele>315.60000610352</ele>
        <time>2015-09-30T12:51:03Z</time>
      </trkpt>
      <trkpt lat="43.4301" lon="6.05508">
        <ele>315.79998779297</ele>
        <time>2015-09-30T12:51:07Z</time>
      </trkpt>
      <trkpt lat="43.4301" lon="6.05508">
        <ele>316.20001220703</ele>
        <time>2015-09-30T12:51:12Z</time>
      </trkpt>
      <trkpt lat="43.4301" lon="6.05508">
        <ele>316.39999389648</ele>
        <time>2015-09-30T12:51:17Z</time>
      </trkpt>
      <trkpt lat="43.43011" lon="6.05508">
        <ele>316.20001220703</ele>
        <time>2015-09-30T12:51:59Z</time>
      </trkpt>
      <trkpt lat="43.43011" lon="6.05509">
        <ele>316.60000610352</ele>
        <time>2015-09-30T12:52:06Z</time>
      </trkpt>
      <trkpt lat="43.4301" lon="6.0551">
        <ele>316.39999389648</ele>
        <time>2015-09-30T12:52:20Z</time>
      </trkpt>
      <trkpt lat="43.43014" lon="6.05517">
        <ele>316</ele>
        <time>2015-09-30T12:52:24Z</time>
      </trkpt>
      <trkpt lat="43.43016" lon="6.05536">
        <ele>314.60000610352</ele>
        <time>2015-09-30T12:52:29Z</time>
      </trkpt>
      <trkpt lat="43.43023" lon="6.05559">
        <ele>314.20001220703</ele>
        <time>2015-09-30T12:52:34Z</time>
      </trkpt>
      <trkpt lat="43.43025" lon="6.05576">
        <ele>313.60000610352</ele>
        <time>2015-09-30T12:52:38Z</time>
      </trkpt>
      <trkpt lat="43.43027" lon="6.05579">
        <ele>313.79998779297</ele>
        <time>2015-09-30T12:52:39Z</time>
      </trkpt>
      <trkpt lat="43.4303" lon="6.05593">
        <ele>313.79998779297</ele>
        <time>2015-09-30T12:52:43Z</time>
      </trkpt>
      <trkpt lat="43.43031" lon="6.05605">
        <ele>312.39999389648</ele>
        <time>2015-09-30T12:52:46Z</time>
      </trkpt>
      <trkpt lat="43.43031" lon="6.05609">
        <ele>312.60000610352</ele>
        <time>2015-09-30T12:52:47Z</time>
      </trkpt>
      <trkpt lat="43.43028" lon="6.05622">
        <ele>312</ele>
        <time>2015-09-30T12:52:50Z</time>
      </trkpt>
      <trkpt lat="43.43027" lon="6.05629">
        <ele>311.60000610352</ele>
        <time>2015-09-30T12:52:52Z</time>
      </trkpt>
      <trkpt lat="43.43026" lon="6.05634">
        <ele>311.39999389648</ele>
        <time>2015-09-30T12:52:53Z</time>
      </trkpt>
      <trkpt lat="43.43024" lon="6.05654">
        <ele>310</ele>
        <time>2015-09-30T12:52:57Z</time>
      </trkpt>
      <trkpt lat="43.43025" lon="6.05676">
        <ele>309.39999389648</ele>
        <time>2015-09-30T12:53:03Z</time>
      </trkpt>
      <trkpt lat="43.43026" lon="6.05684">
        <ele>308.60000610352</ele>
        <time>2015-09-30T12:53:05Z</time>
      </trkpt>
      <trkpt lat="43.43025" lon="6.05692">
        <ele>307.60000610352</ele>
        <time>2015-09-30T12:53:07Z</time>
      </trkpt>
      <trkpt lat="43.43024" lon="6.05696">
        <ele>307.39999389648</ele>
        <time>2015-09-30T12:53:08Z</time>
      </trkpt>
      <trkpt lat="43.43019" lon="6.0572">
        <ele>306.60000610352</ele>
        <time>2015-09-30T12:53:14Z</time>
      </trkpt>
      <trkpt lat="43.43014" lon="6.05735">
        <ele>305.60000610352</ele>
        <time>2015-09-30T12:53:18Z</time>
      </trkpt>
      <trkpt lat="43.43003" lon="6.05755">
        <ele>305.20001220703</ele>
        <time>2015-09-30T12:53:24Z</time>
      </trkpt>
      <trkpt lat="43.43003" lon="6.05764">
        <ele>304.79998779297</ele>
        <time>2015-09-30T12:53:26Z</time>
      </trkpt>
      <trkpt lat="43.43002" lon="6.05772">
        <ele>304.39999389648</ele>
        <time>2015-09-30T12:53:28Z</time>
      </trkpt>
      <trkpt lat="43.43001" lon="6.05775">
        <ele>304.20001220703</ele>
        <time>2015-09-30T12:53:29Z</time>
      </trkpt>
      <trkpt lat="43.42999" lon="6.05786">
        <ele>303.60000610352</ele>
        <time>2015-09-30T12:53:33Z</time>
      </trkpt>
      <trkpt lat="43.43" lon="6.05794">
        <ele>303.20001220703</ele>
        <time>2015-09-30T12:53:35Z</time>
      </trkpt>
      <trkpt lat="43.43003" lon="6.05801">
        <ele>301.79998779297</ele>
        <time>2015-09-30T12:53:37Z</time>
      </trkpt>
      <trkpt lat="43.43003" lon="6.05806">
        <ele>300.79998779297</ele>
        <time>2015-09-30T12:53:39Z</time>
      </trkpt>
      <trkpt lat="43.43003" lon="6.05809">
        <ele>300.60000610352</ele>
        <time>2015-09-30T12:53:40Z</time>
      </trkpt>
      <trkpt lat="43.43003" lon="6.05817">
        <ele>299.60000610352</ele>
        <time>2015-09-30T12:53:42Z</time>
      </trkpt>
      <trkpt lat="43.43003" lon="6.05825">
        <ele>298.39999389648</ele>
        <time>2015-09-30T12:53:44Z</time>
      </trkpt>
      <trkpt lat="43.43003" lon="6.05833">
        <ele>297.60000610352</ele>
        <time>2015-09-30T12:53:46Z</time>
      </trkpt>
      <trkpt lat="43.43004" lon="6.05841">
        <ele>296.60000610352</ele>
        <time>2015-09-30T12:53:48Z</time>
      </trkpt>
      <trkpt lat="43.43004" lon="6.05848">
        <ele>295.39999389648</ele>
        <time>2015-09-30T12:53:50Z</time>
      </trkpt>
      <trkpt lat="43.43006" lon="6.0585">
        <ele>294.79998779297</ele>
        <time>2015-09-30T12:53:51Z</time>
      </trkpt>
      <trkpt lat="43.43007" lon="6.05852">
        <ele>294.20001220703</ele>
        <time>2015-09-30T12:53:52Z</time>
      </trkpt>
      <trkpt lat="43.43011" lon="6.05856">
        <ele>292.79998779297</ele>
        <time>2015-09-30T12:53:54Z</time>
      </trkpt>
      <trkpt lat="43.43014" lon="6.05858">
        <ele>291.79998779297</ele>
        <time>2015-09-30T12:53:56Z</time>
      </trkpt>
      <trkpt lat="43.43016" lon="6.05859">
        <ele>291.20001220703</ele>
        <time>2015-09-30T12:53:57Z</time>
      </trkpt>
      <trkpt lat="43.43019" lon="6.0586">
        <ele>290.79998779297</ele>
        <time>2015-09-30T12:53:58Z</time>
      </trkpt>
      <trkpt lat="43.43022" lon="6.05861">
        <ele>290.39999389648</ele>
        <time>2015-09-30T12:53:59Z</time>
      </trkpt>
      <trkpt lat="43.43026" lon="6.05863">
        <ele>289.20001220703</ele>
        <time>2015-09-30T12:54:01Z</time>
      </trkpt>
      <trkpt lat="43.43035" lon="6.05862">
        <ele>288</ele>
        <time>2015-09-30T12:54:04Z</time>
      </trkpt>
      <trkpt lat="43.43041" lon="6.05858">
        <ele>287</ele>
        <time>2015-09-30T12:54:09Z</time>
      </trkpt>
      <trkpt lat="43.43042" lon="6.05858">
        <ele>286.79998779297</ele>
        <time>2015-09-30T12:54:16Z</time>
      </trkpt>
      <trkpt lat="43.43042" lon="6.05858">
        <ele>286.20001220703</ele>
        <time>2015-09-30T12:54:18Z</time>
      </trkpt>
      <trkpt lat="43.43044" lon="6.05859">
        <ele>287.20001220703</ele>
        <time>2015-09-30T12:54:27Z</time>
      </trkpt>
      <trkpt lat="43.43044" lon="6.05859">
        <ele>286.39999389648</ele>
        <time>2015-09-30T12:54:45Z</time>
      </trkpt>
      <trkpt lat="43.43045" lon="6.05859">
        <ele>286</ele>
        <time>2015-09-30T12:54:51Z</time>
      </trkpt>
      <trkpt lat="43.43045" lon="6.05859">
        <ele>286.79998779297</ele>
        <time>2015-09-30T12:55:01Z</time>
      </trkpt>
      <trkpt lat="43.43045" lon="6.05858">
        <ele>286.79998779297</ele>
        <time>2015-09-30T12:55:07Z</time>
      </trkpt>
      <trkpt lat="43.43045" lon="6.05858">
        <ele>286.60000610352</ele>
        <time>2015-09-30T12:55:41Z</time>
      </trkpt>
      <trkpt lat="43.43045" lon="6.05858">
        <ele>286.60000610352</ele>
        <time>2015-09-30T12:55:44Z</time>
      </trkpt>
      <trkpt lat="43.43045" lon="6.05858">
        <ele>286.79998779297</ele>
        <time>2015-09-30T12:55:57Z</time>
      </trkpt>
      <trkpt lat="43.43046" lon="6.05858">
        <ele>286.79998779297</ele>
        <time>2015-09-30T12:56:08Z</time>
      </trkpt>
      <trkpt lat="43.43047" lon="6.05858">
        <ele>286.20001220703</ele>
        <time>2015-09-30T12:56:12Z</time>
      </trkpt>
      <trkpt lat="43.4305" lon="6.05856">
        <ele>285.79998779297</ele>
        <time>2015-09-30T12:56:18Z</time>
      </trkpt>
      <trkpt lat="43.43056" lon="6.05854">
        <ele>284.60000610352</ele>
        <time>2015-09-30T12:56:20Z</time>
      </trkpt>
      <trkpt lat="43.43063" lon="6.05852">
        <ele>283.60000610352</ele>
        <time>2015-09-30T12:56:22Z</time>
      </trkpt>
      <trkpt lat="43.4307" lon="6.05851">
        <ele>282</ele>
        <time>2015-09-30T12:56:24Z</time>
      </trkpt>
      <trkpt lat="43.43073" lon="6.05851">
        <ele>281</ele>
        <time>2015-09-30T12:56:25Z</time>
      </trkpt>
      <trkpt lat="43.43077" lon="6.0585">
        <ele>279.39999389648</ele>
        <time>2015-09-30T12:56:27Z</time>
      </trkpt>
      <trkpt lat="43.43081" lon="6.0585">
        <ele>279.20001220703</ele>
        <time>2015-09-30T12:56:29Z</time>
      </trkpt>
      <trkpt lat="43.43085" lon="6.05848">
        <ele>278.39999389648</ele>
        <time>2015-09-30T12:56:32Z</time>
      </trkpt>
      <trkpt lat="43.43087" lon="6.05848">
        <ele>277.60000610352</ele>
        <time>2015-09-30T12:56:35Z</time>
      </trkpt>
      <trkpt lat="43.43088" lon="6.05848">
        <ele>277.39999389648</ele>
        <time>2015-09-30T12:56:36Z</time>
      </trkpt>
      <trkpt lat="43.43092" lon="6.05846">
        <ele>276.20001220703</ele>
        <time>2015-09-30T12:56:39Z</time>
      </trkpt>
      <trkpt lat="43.43093" lon="6.05846">
        <ele>276.20001220703</ele>
        <time>2015-09-30T12:56:40Z</time>
      </trkpt>
      <trkpt lat="43.43095" lon="6.05845">
        <ele>276.20001220703</ele>
        <time>2015-09-30T12:56:47Z</time>
      </trkpt>
      <trkpt lat="43.431" lon="6.05845">
        <ele>275.79998779297</ele>
        <time>2015-09-30T12:56:50Z</time>
      </trkpt>
      <trkpt lat="43.431" lon="6.05845">
        <ele>275.39999389648</ele>
        <time>2015-09-30T12:56:51Z</time>
      </trkpt>
      <trkpt lat="43.43102" lon="6.05845">
        <ele>275.20001220703</ele>
        <time>2015-09-30T12:56:52Z</time>
      </trkpt>
      <trkpt lat="43.43102" lon="6.05845">
        <ele>274.39999389648</ele>
        <time>2015-09-30T12:56:56Z</time>
      </trkpt>
      <trkpt lat="43.43103" lon="6.05844">
        <ele>274</ele>
        <time>2015-09-30T12:56:58Z</time>
      </trkpt>
      <trkpt lat="43.43108" lon="6.05843">
        <ele>273.20001220703</ele>
        <time>2015-09-30T12:57:01Z</time>
      </trkpt>
      <trkpt lat="43.4311" lon="6.05843">
        <ele>273</ele>
        <time>2015-09-30T12:57:02Z</time>
      </trkpt>
      <trkpt lat="43.43114" lon="6.05845">
        <ele>271.79998779297</ele>
        <time>2015-09-30T12:57:05Z</time>
      </trkpt>
      <trkpt lat="43.43115" lon="6.05845">
        <ele>271.60000610352</ele>
        <time>2015-09-30T12:57:06Z</time>
      </trkpt>
      <trkpt lat="43.43119" lon="6.05845">
        <ele>271</ele>
        <time>2015-09-30T12:57:11Z</time>
      </trkpt>
      <trkpt lat="43.43119" lon="6.05845">
        <ele>270.79998779297</ele>
        <time>2015-09-30T12:57:14Z</time>
      </trkpt>
      <trkpt lat="43.43119" lon="6.05845">
        <ele>271</ele>
        <time>2015-09-30T12:57:18Z</time>
      </trkpt>
      <trkpt lat="43.43126" lon="6.05844">
        <ele>270.20001220703</ele>
        <time>2015-09-30T12:57:22Z</time>
      </trkpt>
      <trkpt lat="43.43129" lon="6.05844">
        <ele>269.39999389648</ele>
        <time>2015-09-30T12:57:24Z</time>
      </trkpt>
      <trkpt lat="43.43133" lon="6.05844">
        <ele>268.60000610352</ele>
        <time>2015-09-30T12:57:28Z</time>
      </trkpt>
      <trkpt lat="43.43134" lon="6.05844">
        <ele>268.60000610352</ele>
        <time>2015-09-30T12:57:36Z</time>
      </trkpt>
      <trkpt lat="43.43134" lon="6.05844">
        <ele>268.60000610352</ele>
        <time>2015-09-30T12:57:37Z</time>
      </trkpt>
      <trkpt lat="43.43134" lon="6.05844">
        <ele>268.20001220703</ele>
        <time>2015-09-30T12:57:43Z</time>
      </trkpt>
      <trkpt lat="43.43134" lon="6.05844">
        <ele>267.79998779297</ele>
        <time>2015-09-30T12:57:48Z</time>
      </trkpt>
      <trkpt lat="43.43135" lon="6.05844">
        <ele>268.20001220703</ele>
        <time>2015-09-30T12:57:55Z</time>
      </trkpt>
      <trkpt lat="43.43135" lon="6.05844">
        <ele>268.60000610352</ele>
        <time>2015-09-30T12:57:59Z</time>
      </trkpt>
      <trkpt lat="43.43135" lon="6.05843">
        <ele>268.60000610352</ele>
        <time>2015-09-30T12:58:34Z</time>
      </trkpt>
      <trkpt lat="43.43134" lon="6.05843">
        <ele>267.79998779297</ele>
        <time>2015-09-30T12:58:54Z</time>
      </trkpt>
      <trkpt lat="43.43134" lon="6.05842">
        <ele>267.79998779297</ele>
        <time>2015-09-30T12:59:24Z</time>
      </trkpt>
      <trkpt lat="43.43135" lon="6.05843">
        <ele>268.39999389648</ele>
        <time>2015-09-30T12:59:45Z</time>
      </trkpt>
      <trkpt lat="43.43142" lon="6.05842">
        <ele>267.60000610352</ele>
        <time>2015-09-30T12:59:50Z</time>
      </trkpt>
      <trkpt lat="43.43143" lon="6.05841">
        <ele>267.60000610352</ele>
        <time>2015-09-30T12:59:51Z</time>
      </trkpt>
      <trkpt lat="43.43148" lon="6.0584">
        <ele>267.39999389648</ele>
        <time>2015-09-30T12:59:55Z</time>
      </trkpt>
      <trkpt lat="43.4315" lon="6.0584">
        <ele>267</ele>
        <time>2015-09-30T12:59:56Z</time>
      </trkpt>
      <trkpt lat="43.43156" lon="6.05837">
        <ele>266</ele>
        <time>2015-09-30T13:00:00Z</time>
      </trkpt>
      <trkpt lat="43.43158" lon="6.05836">
        <ele>266</ele>
        <time>2015-09-30T13:00:01Z</time>
      </trkpt>
      <trkpt lat="43.43165" lon="6.05835">
        <ele>264.60000610352</ele>
        <time>2015-09-30T13:00:05Z</time>
      </trkpt>
      <trkpt lat="43.43167" lon="6.05834">
        <ele>263.39999389648</ele>
        <time>2015-09-30T13:00:06Z</time>
      </trkpt>
      <trkpt lat="43.4317" lon="6.05833">
        <ele>263</ele>
        <time>2015-09-30T13:00:07Z</time>
      </trkpt>
      <trkpt lat="43.43178" lon="6.05831">
        <ele>262.39999389648</ele>
        <time>2015-09-30T13:00:10Z</time>
      </trkpt>
      <trkpt lat="43.43182" lon="6.05826">
        <ele>261.60000610352</ele>
        <time>2015-09-30T13:00:12Z</time>
      </trkpt>
      <trkpt lat="43.43183" lon="6.05822">
        <ele>261</ele>
        <time>2015-09-30T13:00:13Z</time>
      </trkpt>
      <trkpt lat="43.43184" lon="6.05814">
        <ele>260.79998779297</ele>
        <time>2015-09-30T13:00:16Z</time>
      </trkpt>
      <trkpt lat="43.43184" lon="6.05814">
        <ele>261</ele>
        <time>2015-09-30T13:00:20Z</time>
      </trkpt>
      <trkpt lat="43.43184" lon="6.05815">
        <ele>260.79998779297</ele>
        <time>2015-09-30T13:00:27Z</time>
      </trkpt>
      <trkpt lat="43.43184" lon="6.05814">
        <ele>260.79998779297</ele>
        <time>2015-09-30T13:00:36Z</time>
      </trkpt>
      <trkpt lat="43.43184" lon="6.05813">
        <ele>260.39999389648</ele>
        <time>2015-09-30T13:00:51Z</time>
      </trkpt>
      <trkpt lat="43.43184" lon="6.05813">
        <ele>260.79998779297</ele>
        <time>2015-09-30T13:01:16Z</time>
      </trkpt>
      <trkpt lat="43.43184" lon="6.05812">
        <ele>260.60000610352</ele>
        <time>2015-09-30T13:01:25Z</time>
      </trkpt>
      <trkpt lat="43.43184" lon="6.05812">
        <ele>260.79998779297</ele>
        <time>2015-09-30T13:01:29Z</time>
      </trkpt>
      <trkpt lat="43.43183" lon="6.05813">
        <ele>261.20001220703</ele>
        <time>2015-09-30T13:01:52Z</time>
      </trkpt>
      <trkpt lat="43.43183" lon="6.05813">
        <ele>260.79998779297</ele>
        <time>2015-09-30T13:01:55Z</time>
      </trkpt>
      <trkpt lat="43.43183" lon="6.05814">
        <ele>261.39999389648</ele>
        <time>2015-09-30T13:02:08Z</time>
      </trkpt>
      <trkpt lat="43.43183" lon="6.05814">
        <ele>261.60000610352</ele>
        <time>2015-09-30T13:02:22Z</time>
      </trkpt>
      <trkpt lat="43.43182" lon="6.05814">
        <ele>260.79998779297</ele>
        <time>2015-09-30T13:02:42Z</time>
      </trkpt>
      <trkpt lat="43.43181" lon="6.05814">
        <ele>262</ele>
        <time>2015-09-30T13:03:07Z</time>
      </trkpt>
      <trkpt lat="43.43182" lon="6.05814">
        <ele>261</ele>
        <time>2015-09-30T13:03:21Z</time>
      </trkpt>
      <trkpt lat="43.43182" lon="6.05814">
        <ele>261.60000610352</ele>
        <time>2015-09-30T13:03:41Z</time>
      </trkpt>
      <trkpt lat="43.43182" lon="6.05813">
        <ele>261</ele>
        <time>2015-09-30T13:03:53Z</time>
      </trkpt>
      <trkpt lat="43.43182" lon="6.05813">
        <ele>261</ele>
        <time>2015-09-30T13:03:56Z</time>
      </trkpt>
      <trkpt lat="43.43182" lon="6.05813">
        <ele>261</ele>
        <time>2015-09-30T13:04:11Z</time>
      </trkpt>
      <trkpt lat="43.43182" lon="6.05813">
        <ele>261.39999389648</ele>
        <time>2015-09-30T13:04:30Z</time>
      </trkpt>
      <trkpt lat="43.43181" lon="6.05813">
        <ele>261.20001220703</ele>
        <time>2015-09-30T13:04:43Z</time>
      </trkpt>
      <trkpt lat="43.43181" lon="6.05813">
        <ele>260.39999389648</ele>
        <time>2015-09-30T13:04:48Z</time>
      </trkpt>
      <trkpt lat="43.43183" lon="6.0581">
        <ele>261.20001220703</ele>
        <time>2015-09-30T13:05:12Z</time>
      </trkpt>
      <trkpt lat="43.4319" lon="6.05799">
        <ele>261</ele>
        <time>2015-09-30T13:05:18Z</time>
      </trkpt>
      <trkpt lat="43.43192" lon="6.05796">
        <ele>260.79998779297</ele>
        <time>2015-09-30T13:05:19Z</time>
      </trkpt>
      <trkpt lat="43.43208" lon="6.05774">
        <ele>259.60000610352</ele>
        <time>2015-09-30T13:05:26Z</time>
      </trkpt>
      <trkpt lat="43.43213" lon="6.0576">
        <ele>259</ele>
        <time>2015-09-30T13:05:29Z</time>
      </trkpt>
      <trkpt lat="43.43214" lon="6.05754">
        <ele>259</ele>
        <time>2015-09-30T13:05:30Z</time>
      </trkpt>
      <trkpt lat="43.43216" lon="6.05719">
        <ele>259.60000610352</ele>
        <time>2015-09-30T13:05:37Z</time>
      </trkpt>
      <trkpt lat="43.4322" lon="6.05697">
        <ele>259.79998779297</ele>
        <time>2015-09-30T13:05:43Z</time>
      </trkpt>
      <trkpt lat="43.4322" lon="6.05695">
        <ele>259.79998779297</ele>
        <time>2015-09-30T13:05:48Z</time>
      </trkpt>
      <trkpt lat="43.43221" lon="6.05694">
        <ele>260.20001220703</ele>
        <time>2015-09-30T13:05:55Z</time>
      </trkpt>
      <trkpt lat="43.43221" lon="6.05694">
        <ele>260</ele>
        <time>2015-09-30T13:05:57Z</time>
      </trkpt>
      <trkpt lat="43.43221" lon="6.05692">
        <ele>259.39999389648</ele>
        <time>2015-09-30T13:06:05Z</time>
      </trkpt>
      <trkpt lat="43.43221" lon="6.05692">
        <ele>259.20001220703</ele>
        <time>2015-09-30T13:06:09Z</time>
      </trkpt>
      <trkpt lat="43.43221" lon="6.05692">
        <ele>259.60000610352</ele>
        <time>2015-09-30T13:06:18Z</time>
      </trkpt>
      <trkpt lat="43.43221" lon="6.05692">
        <ele>259.60000610352</ele>
        <time>2015-09-30T13:06:58Z</time>
      </trkpt>
      <trkpt lat="43.43221" lon="6.05693">
        <ele>259.20001220703</ele>
        <time>2015-09-30T13:07:34Z</time>
      </trkpt>
      <trkpt lat="43.43222" lon="6.05693">
        <ele>259.60000610352</ele>
        <time>2015-09-30T13:09:00Z</time>
      </trkpt>
      <trkpt lat="43.43222" lon="6.05693">
        <ele>260</ele>
        <time>2015-09-30T13:09:23Z</time>
      </trkpt>
      <trkpt lat="43.43222" lon="6.05693">
        <ele>260.20001220703</ele>
        <time>2015-09-30T13:09:33Z</time>
      </trkpt>
      <trkpt lat="43.43222" lon="6.05693">
        <ele>259.79998779297</ele>
        <time>2015-09-30T13:09:58Z</time>
      </trkpt>
      <trkpt lat="43.43222" lon="6.05693">
        <ele>260.20001220703</ele>
        <time>2015-09-30T13:10:19Z</time>
      </trkpt>
      <trkpt lat="43.43222" lon="6.05692">
        <ele>260</ele>
        <time>2015-09-30T13:11:09Z</time>
      </trkpt>
      <trkpt lat="43.43221" lon="6.05692">
        <ele>261</ele>
        <time>2015-09-30T13:11:17Z</time>
      </trkpt>
      <trkpt lat="43.43221" lon="6.05686">
        <ele>261</ele>
        <time>2015-09-30T13:11:24Z</time>
      </trkpt>
      <trkpt lat="43.43223" lon="6.05666">
        <ele>260.79998779297</ele>
        <time>2015-09-30T13:11:29Z</time>
      </trkpt>
      <trkpt lat="43.43225" lon="6.05635">
        <ele>260.39999389648</ele>
        <time>2015-09-30T13:11:35Z</time>
      </trkpt>
      <trkpt lat="43.43232" lon="6.05583">
        <ele>259.79998779297</ele>
        <time>2015-09-30T13:11:44Z</time>
      </trkpt>
      <trkpt lat="43.43231" lon="6.05569">
        <ele>259.20001220703</ele>
        <time>2015-09-30T13:11:47Z</time>
      </trkpt>
      <trkpt lat="43.43233" lon="6.0556">
        <ele>259</ele>
        <time>2015-09-30T13:11:49Z</time>
      </trkpt>
      <trkpt lat="43.43243" lon="6.05525">
        <ele>258.60000610352</ele>
        <time>2015-09-30T13:11:56Z</time>
      </trkpt>
      <trkpt lat="43.43246" lon="6.05513">
        <ele>258.20001220703</ele>
        <time>2015-09-30T13:11:58Z</time>
      </trkpt>
      <trkpt lat="43.43254" lon="6.05492">
        <ele>258.60000610352</ele>
        <time>2015-09-30T13:12:01Z</time>
      </trkpt>
      <trkpt lat="43.43256" lon="6.05484">
        <ele>258</ele>
        <time>2015-09-30T13:12:02Z</time>
      </trkpt>
      <trkpt lat="43.43262" lon="6.05468">
        <ele>256</ele>
        <time>2015-09-30T13:12:04Z</time>
      </trkpt>
      <trkpt lat="43.43267" lon="6.05455">
        <ele>254.60000610352</ele>
        <time>2015-09-30T13:12:06Z</time>
      </trkpt>
      <trkpt lat="43.4328" lon="6.05422">
        <ele>253.60000610352</ele>
        <time>2015-09-30T13:12:11Z</time>
      </trkpt>
      <trkpt lat="43.43282" lon="6.05416">
        <ele>253.39999389648</ele>
        <time>2015-09-30T13:12:12Z</time>
      </trkpt>
      <trkpt lat="43.43283" lon="6.05411">
        <ele>253.39999389648</ele>
        <time>2015-09-30T13:12:13Z</time>
      </trkpt>
      <trkpt lat="43.43288" lon="6.05407">
        <ele>253</ele>
        <time>2015-09-30T13:12:15Z</time>
      </trkpt>
      <trkpt lat="43.43294" lon="6.05395">
        <ele>253</ele>
        <time>2015-09-30T13:12:19Z</time>
      </trkpt>
      <trkpt lat="43.43298" lon="6.0538">
        <ele>253.19999694824</ele>
        <time>2015-09-30T13:12:24Z</time>
      </trkpt>
      <trkpt lat="43.43301" lon="6.05372">
        <ele>253.39999389648</ele>
        <time>2015-09-30T13:12:28Z</time>
      </trkpt>
      <trkpt lat="43.43306" lon="6.05358">
        <ele>253.60000610352</ele>
        <time>2015-09-30T13:12:32Z</time>
      </trkpt>
      <trkpt lat="43.43311" lon="6.0535">
        <ele>254.19999694824</ele>
        <time>2015-09-30T13:12:34Z</time>
      </trkpt>
      <trkpt lat="43.43316" lon="6.05338">
        <ele>254.60000610352</ele>
        <time>2015-09-30T13:12:37Z</time>
      </trkpt>
      <trkpt lat="43.43319" lon="6.05332">
        <ele>254.39999389648</ele>
        <time>2015-09-30T13:12:39Z</time>
      </trkpt>
      <trkpt lat="43.43328" lon="6.05307">
        <ele>253.80000305176</ele>
        <time>2015-09-30T13:12:45Z</time>
      </trkpt>
      <trkpt lat="43.43333" lon="6.05294">
        <ele>253.60000610352</ele>
        <time>2015-09-30T13:12:48Z</time>
      </trkpt>
      <trkpt lat="43.43341" lon="6.05274">
        <ele>253.19999694824</ele>
        <time>2015-09-30T13:12:52Z</time>
      </trkpt>
      <trkpt lat="43.4335" lon="6.05252">
        <ele>253</ele>
        <time>2015-09-30T13:12:57Z</time>
      </trkpt>
      <trkpt lat="43.43359" lon="6.05226">
        <ele>252.80000305176</ele>
        <time>2015-09-30T13:13:03Z</time>
      </trkpt>
      <trkpt lat="43.43372" lon="6.05192">
        <ele>253.19999694824</ele>
        <time>2015-09-30T13:13:11Z</time>
      </trkpt>
      <trkpt lat="43.43382" lon="6.05163">
        <ele>254.19999694824</ele>
        <time>2015-09-30T13:13:18Z</time>
      </trkpt>
      <trkpt lat="43.43385" lon="6.05154">
        <ele>254.80000305176</ele>
        <time>2015-09-30T13:13:20Z</time>
      </trkpt>
      <trkpt lat="43.43389" lon="6.05139">
        <ele>255.60000610352</ele>
        <time>2015-09-30T13:13:24Z</time>
      </trkpt>
      <trkpt lat="43.43392" lon="6.05132">
        <ele>255.60000610352</ele>
        <time>2015-09-30T13:13:26Z</time>
      </trkpt>
      <trkpt lat="43.43394" lon="6.05123">
        <ele>255.60000610352</ele>
        <time>2015-09-30T13:13:31Z</time>
      </trkpt>
      <trkpt lat="43.43395" lon="6.0512">
        <ele>255.19999694824</ele>
        <time>2015-09-30T13:13:36Z</time>
      </trkpt>
      <trkpt lat="43.43399" lon="6.0511">
        <ele>255.39999389648</ele>
        <time>2015-09-30T13:13:40Z</time>
      </trkpt>
      <trkpt lat="43.43401" lon="6.05103">
        <ele>255.80000305176</ele>
        <time>2015-09-30T13:13:42Z</time>
      </trkpt>
      <trkpt lat="43.43409" lon="6.05074">
        <ele>254.80000305176</ele>
        <time>2015-09-30T13:13:49Z</time>
      </trkpt>
      <trkpt lat="43.43416" lon="6.05043">
        <ele>254.19999694824</ele>
        <time>2015-09-30T13:13:54Z</time>
      </trkpt>
      <trkpt lat="43.4342" lon="6.05019">
        <ele>253.80000305176</ele>
        <time>2015-09-30T13:13:57Z</time>
      </trkpt>
      <trkpt lat="43.43424" lon="6.04997">
        <ele>253.19999694824</ele>
        <time>2015-09-30T13:14:00Z</time>
      </trkpt>
      <trkpt lat="43.43427" lon="6.04981">
        <ele>252.80000305176</ele>
        <time>2015-09-30T13:14:02Z</time>
      </trkpt>
      <trkpt lat="43.4343" lon="6.04952">
        <ele>251.60000610352</ele>
        <time>2015-09-30T13:14:06Z</time>
      </trkpt>
      <trkpt lat="43.4343" lon="6.04945">
        <ele>251.19999694824</ele>
        <time>2015-09-30T13:14:07Z</time>
      </trkpt>
      <trkpt lat="43.43431" lon="6.04933">
        <ele>251.19999694824</ele>
        <time>2015-09-30T13:14:09Z</time>
      </trkpt>
      <trkpt lat="43.43433" lon="6.04915">
        <ele>251.39999389648</ele>
        <time>2015-09-30T13:14:12Z</time>
      </trkpt>
      <trkpt lat="43.43433" lon="6.04908">
        <ele>251.39999389648</ele>
        <time>2015-09-30T13:14:13Z</time>
      </trkpt>
      <trkpt lat="43.43435" lon="6.04871">
        <ele>252.39999389648</ele>
        <time>2015-09-30T13:14:19Z</time>
      </trkpt>
      <trkpt lat="43.43435" lon="6.04865">
        <ele>252.60000610352</ele>
        <time>2015-09-30T13:14:20Z</time>
      </trkpt>
      <trkpt lat="43.43436" lon="6.04842">
        <ele>252.80000305176</ele>
        <time>2015-09-30T13:14:24Z</time>
      </trkpt>
      <trkpt lat="43.43437" lon="6.04835">
        <ele>252.39999389648</ele>
        <time>2015-09-30T13:14:25Z</time>
      </trkpt>
      <trkpt lat="43.43439" lon="6.04794">
        <ele>253.60000610352</ele>
        <time>2015-09-30T13:14:32Z</time>
      </trkpt>
      <trkpt lat="43.43441" lon="6.04783">
        <ele>253.80000305176</ele>
        <time>2015-09-30T13:14:34Z</time>
      </trkpt>
      <trkpt lat="43.43442" lon="6.04771">
        <ele>254</ele>
        <time>2015-09-30T13:14:36Z</time>
      </trkpt>
      <trkpt lat="43.43444" lon="6.04757">
        <ele>254.19999694824</ele>
        <time>2015-09-30T13:14:38Z</time>
      </trkpt>
      <trkpt lat="43.43446" lon="6.04743">
        <ele>254</ele>
        <time>2015-09-30T13:14:40Z</time>
      </trkpt>
      <trkpt lat="43.43447" lon="6.04734">
        <ele>254.19999694824</ele>
        <time>2015-09-30T13:14:41Z</time>
      </trkpt>
      <trkpt lat="43.43449" lon="6.04719">
        <ele>254.60000610352</ele>
        <time>2015-09-30T13:14:43Z</time>
      </trkpt>
      <trkpt lat="43.43454" lon="6.04686">
        <ele>255.19999694824</ele>
        <time>2015-09-30T13:14:48Z</time>
      </trkpt>
      <trkpt lat="43.43455" lon="6.04678">
        <ele>255.19999694824</ele>
        <time>2015-09-30T13:14:50Z</time>
      </trkpt>
      <trkpt lat="43.43454" lon="6.04674">
        <ele>255</ele>
        <time>2015-09-30T13:14:51Z</time>
      </trkpt>
      <trkpt lat="43.43457" lon="6.04655">
        <ele>255</ele>
        <time>2015-09-30T13:14:56Z</time>
      </trkpt>
      <trkpt lat="43.43458" lon="6.04652">
        <ele>255.60000610352</ele>
        <time>2015-09-30T13:14:57Z</time>
      </trkpt>
      <trkpt lat="43.4346" lon="6.0463">
        <ele>255.60000610352</ele>
        <time>2015-09-30T13:15:03Z</time>
      </trkpt>
      <trkpt lat="43.4346" lon="6.04626">
        <ele>256.20001220703</ele>
        <time>2015-09-30T13:15:04Z</time>
      </trkpt>
      <trkpt lat="43.43464" lon="6.04596">
        <ele>256.60000610352</ele>
        <time>2015-09-30T13:15:11Z</time>
      </trkpt>
      <trkpt lat="43.43469" lon="6.04561">
        <ele>256.79998779297</ele>
        <time>2015-09-30T13:15:19Z</time>
      </trkpt>
      <trkpt lat="43.43473" lon="6.04549">
        <ele>257</ele>
        <time>2015-09-30T13:15:22Z</time>
      </trkpt>
      <trkpt lat="43.43479" lon="6.04538">
        <ele>256.79998779297</ele>
        <time>2015-09-30T13:15:25Z</time>
      </trkpt>
      <trkpt lat="43.43484" lon="6.04521">
        <ele>257</ele>
        <time>2015-09-30T13:15:30Z</time>
      </trkpt>
      <trkpt lat="43.43486" lon="6.04518">
        <ele>256.79998779297</ele>
        <time>2015-09-30T13:15:31Z</time>
      </trkpt>
      <trkpt lat="43.4349" lon="6.04495">
        <ele>256.60000610352</ele>
        <time>2015-09-30T13:15:38Z</time>
      </trkpt>
      <trkpt lat="43.43491" lon="6.04468">
        <ele>256.60000610352</ele>
        <time>2015-09-30T13:15:44Z</time>
      </trkpt>
      <trkpt lat="43.4349" lon="6.04459">
        <ele>256.20001220703</ele>
        <time>2015-09-30T13:15:46Z</time>
      </trkpt>
      <trkpt lat="43.43492" lon="6.04437">
        <ele>256.79998779297</ele>
        <time>2015-09-30T13:15:51Z</time>
      </trkpt>
      <trkpt lat="43.43491" lon="6.04422">
        <ele>257</ele>
        <time>2015-09-30T13:15:55Z</time>
      </trkpt>
      <trkpt lat="43.43489" lon="6.04414">
        <ele>256.79998779297</ele>
        <time>2015-09-30T13:15:57Z</time>
      </trkpt>
      <trkpt lat="43.43489" lon="6.04394">
        <ele>257.20001220703</ele>
        <time>2015-09-30T13:16:02Z</time>
      </trkpt>
      <trkpt lat="43.43489" lon="6.04385">
        <ele>257.39999389648</ele>
        <time>2015-09-30T13:16:04Z</time>
      </trkpt>
      <trkpt lat="43.43492" lon="6.04354">
        <ele>257.79998779297</ele>
        <time>2015-09-30T13:16:11Z</time>
      </trkpt>
      <trkpt lat="43.43494" lon="6.04315">
        <ele>257.60000610352</ele>
        <time>2015-09-30T13:16:19Z</time>
      </trkpt>
      <trkpt lat="43.435" lon="6.04277">
        <ele>256.60000610352</ele>
        <time>2015-09-30T13:16:26Z</time>
      </trkpt>
      <trkpt lat="43.43509" lon="6.04255">
        <ele>256.20001220703</ele>
        <time>2015-09-30T13:16:31Z</time>
      </trkpt>
      <trkpt lat="43.43514" lon="6.04247">
        <ele>256.20001220703</ele>
        <time>2015-09-30T13:16:33Z</time>
      </trkpt>
      <trkpt lat="43.43517" lon="6.04244">
        <ele>256</ele>
        <time>2015-09-30T13:16:34Z</time>
      </trkpt>
      <trkpt lat="43.43525" lon="6.04239">
        <ele>256</ele>
        <time>2015-09-30T13:16:36Z</time>
      </trkpt>
      <trkpt lat="43.4353" lon="6.04236">
        <ele>255.60000610352</ele>
        <time>2015-09-30T13:16:37Z</time>
      </trkpt>
      <trkpt lat="43.43532" lon="6.04232">
        <ele>255.19999694824</ele>
        <time>2015-09-30T13:16:38Z</time>
      </trkpt>
      <trkpt lat="43.43537" lon="6.04224">
        <ele>255.39999389648</ele>
        <time>2015-09-30T13:16:40Z</time>
      </trkpt>
      <trkpt lat="43.43539" lon="6.04219">
        <ele>255.60000610352</ele>
        <time>2015-09-30T13:16:41Z</time>
      </trkpt>
      <trkpt lat="43.43543" lon="6.04199">
        <ele>255.80000305176</ele>
        <time>2015-09-30T13:16:45Z</time>
      </trkpt>
      <trkpt lat="43.43541" lon="6.04188">
        <ele>255.39999389648</ele>
        <time>2015-09-30T13:16:47Z</time>
      </trkpt>
      <trkpt lat="43.4354" lon="6.04183">
        <ele>256.60000610352</ele>
        <time>2015-09-30T13:16:48Z</time>
      </trkpt>
      <trkpt lat="43.43538" lon="6.04167">
        <ele>257</ele>
        <time>2015-09-30T13:16:51Z</time>
      </trkpt>
      <trkpt lat="43.4354" lon="6.04156">
        <ele>257.20001220703</ele>
        <time>2015-09-30T13:16:53Z</time>
      </trkpt>
      <trkpt lat="43.43541" lon="6.0415">
        <ele>257.20001220703</ele>
        <time>2015-09-30T13:16:54Z</time>
      </trkpt>
      <trkpt lat="43.43546" lon="6.04139">
        <ele>257.60000610352</ele>
        <time>2015-09-30T13:16:56Z</time>
      </trkpt>
      <trkpt lat="43.43549" lon="6.04134">
        <ele>257.79998779297</ele>
        <time>2015-09-30T13:16:57Z</time>
      </trkpt>
      <trkpt lat="43.43552" lon="6.04129">
        <ele>257.79998779297</ele>
        <time>2015-09-30T13:16:58Z</time>
      </trkpt>
      <trkpt lat="43.43554" lon="6.04123">
        <ele>257.79998779297</ele>
        <time>2015-09-30T13:16:59Z</time>
      </trkpt>
      <trkpt lat="43.43562" lon="6.04097">
        <ele>257.60000610352</ele>
        <time>2015-09-30T13:17:03Z</time>
      </trkpt>
      <trkpt lat="43.43573" lon="6.04065">
        <ele>258.60000610352</ele>
        <time>2015-09-30T13:17:09Z</time>
      </trkpt>
      <trkpt lat="43.4358" lon="6.04054">
        <ele>258.79998779297</ele>
        <time>2015-09-30T13:17:12Z</time>
      </trkpt>
      <trkpt lat="43.43582" lon="6.0405">
        <ele>259.20001220703</ele>
        <time>2015-09-30T13:17:13Z</time>
      </trkpt>
      <trkpt lat="43.43589" lon="6.04039">
        <ele>260.39999389648</ele>
        <time>2015-09-30T13:17:16Z</time>
      </trkpt>
      <trkpt lat="43.43596" lon="6.04028">
        <ele>260.79998779297</ele>
        <time>2015-09-30T13:17:19Z</time>
      </trkpt>
      <trkpt lat="43.43601" lon="6.04016">
        <ele>261.60000610352</ele>
        <time>2015-09-30T13:17:22Z</time>
      </trkpt>
      <trkpt lat="43.43604" lon="6.04009">
        <ele>262</ele>
        <time>2015-09-30T13:17:24Z</time>
      </trkpt>
      <trkpt lat="43.43608" lon="6.03991">
        <ele>262.39999389648</ele>
        <time>2015-09-30T13:17:29Z</time>
      </trkpt>
      <trkpt lat="43.4361" lon="6.03969">
        <ele>260.79998779297</ele>
        <time>2015-09-30T13:17:33Z</time>
      </trkpt>
      <trkpt lat="43.4361" lon="6.03963">
        <ele>260.20001220703</ele>
        <time>2015-09-30T13:17:34Z</time>
      </trkpt>
      <trkpt lat="43.43609" lon="6.03955">
        <ele>259.79998779297</ele>
        <time>2015-09-30T13:17:35Z</time>
      </trkpt>
      <trkpt lat="43.43605" lon="6.03941">
        <ele>259</ele>
        <time>2015-09-30T13:17:37Z</time>
      </trkpt>
      <trkpt lat="43.43603" lon="6.03935">
        <ele>258.79998779297</ele>
        <time>2015-09-30T13:17:38Z</time>
      </trkpt>
      <trkpt lat="43.43598" lon="6.03914">
        <ele>259.60000610352</ele>
        <time>2015-09-30T13:17:42Z</time>
      </trkpt>
      <trkpt lat="43.43596" lon="6.03909">
        <ele>259.79998779297</ele>
        <time>2015-09-30T13:17:43Z</time>
      </trkpt>
      <trkpt lat="43.43596" lon="6.03892">
        <ele>260.20001220703</ele>
        <time>2015-09-30T13:17:47Z</time>
      </trkpt>
      <trkpt lat="43.43597" lon="6.03887">
        <ele>260.39999389648</ele>
        <time>2015-09-30T13:17:48Z</time>
      </trkpt>
      <trkpt lat="43.43595" lon="6.03865">
        <ele>261.20001220703</ele>
        <time>2015-09-30T13:17:53Z</time>
      </trkpt>
      <trkpt lat="43.43594" lon="6.03846">
        <ele>262</ele>
        <time>2015-09-30T13:17:59Z</time>
      </trkpt>
      <trkpt lat="43.43591" lon="6.03832">
        <ele>262.39999389648</ele>
        <time>2015-09-30T13:18:03Z</time>
      </trkpt>
      <trkpt lat="43.43589" lon="6.03823">
        <ele>262.79998779297</ele>
        <time>2015-09-30T13:18:05Z</time>
      </trkpt>
      <trkpt lat="43.43582" lon="6.0381">
        <ele>263.20001220703</ele>
        <time>2015-09-30T13:18:10Z</time>
      </trkpt>
      <trkpt lat="43.43581" lon="6.03808">
        <ele>263.39999389648</ele>
        <time>2015-09-30T13:18:11Z</time>
      </trkpt>
      <trkpt lat="43.43578" lon="6.038">
        <ele>263.79998779297</ele>
        <time>2015-09-30T13:18:15Z</time>
      </trkpt>
      <trkpt lat="43.43577" lon="6.03798">
        <ele>264</ele>
        <time>2015-09-30T13:18:16Z</time>
      </trkpt>
      <trkpt lat="43.43575" lon="6.03793">
        <ele>264</ele>
        <time>2015-09-30T13:18:21Z</time>
      </trkpt>
      <trkpt lat="43.43575" lon="6.03793">
        <ele>264.39999389648</ele>
        <time>2015-09-30T13:18:24Z</time>
      </trkpt>
      <trkpt lat="43.43575" lon="6.03793">
        <ele>264.39999389648</ele>
        <time>2015-09-30T13:18:27Z</time>
      </trkpt>
      <trkpt lat="43.43575" lon="6.03793">
        <ele>264</ele>
        <time>2015-09-30T13:18:30Z</time>
      </trkpt>
      <trkpt lat="43.43575" lon="6.03793">
        <ele>264</ele>
        <time>2015-09-30T13:18:33Z</time>
      </trkpt>
      <trkpt lat="43.43575" lon="6.03793">
        <ele>264.39999389648</ele>
        <time>2015-09-30T13:18:47Z</time>
      </trkpt>
      <trkpt lat="43.43575" lon="6.03793">
        <ele>264.39999389648</ele>
        <time>2015-09-30T13:19:20Z</time>
      </trkpt>
      <trkpt lat="43.43575" lon="6.03791">
        <ele>264.20001220703</ele>
        <time>2015-09-30T13:19:26Z</time>
      </trkpt>
      <trkpt lat="43.43575" lon="6.0379">
        <ele>264.20001220703</ele>
        <time>2015-09-30T13:19:27Z</time>
      </trkpt>
      <trkpt lat="43.43574" lon="6.03779">
        <ele>264.60000610352</ele>
        <time>2015-09-30T13:19:30Z</time>
      </trkpt>
      <trkpt lat="43.43575" lon="6.03772">
        <ele>264.20001220703</ele>
        <time>2015-09-30T13:19:32Z</time>
      </trkpt>
      <trkpt lat="43.43576" lon="6.0376">
        <ele>264.20001220703</ele>
        <time>2015-09-30T13:19:35Z</time>
      </trkpt>
      <trkpt lat="43.43577" lon="6.03752">
        <ele>264.20001220703</ele>
        <time>2015-09-30T13:19:37Z</time>
      </trkpt>
      <trkpt lat="43.43578" lon="6.03738">
        <ele>263.20001220703</ele>
        <time>2015-09-30T13:19:40Z</time>
      </trkpt>
      <trkpt lat="43.43577" lon="6.03727">
        <ele>263.39999389648</ele>
        <time>2015-09-30T13:19:42Z</time>
      </trkpt>
      <trkpt lat="43.43577" lon="6.0372">
        <ele>263.39999389648</ele>
        <time>2015-09-30T13:19:43Z</time>
      </trkpt>
      <trkpt lat="43.43582" lon="6.03692">
        <ele>262</ele>
        <time>2015-09-30T13:19:48Z</time>
      </trkpt>
      <trkpt lat="43.43583" lon="6.03687">
        <ele>261.79998779297</ele>
        <time>2015-09-30T13:19:49Z</time>
      </trkpt>
      <trkpt lat="43.43582" lon="6.03684">
        <ele>261.79998779297</ele>
        <time>2015-09-30T13:19:50Z</time>
      </trkpt>
      <trkpt lat="43.43581" lon="6.03682">
        <ele>261.79998779297</ele>
        <time>2015-09-30T13:19:51Z</time>
      </trkpt>
      <trkpt lat="43.43578" lon="6.03674">
        <ele>262.39999389648</ele>
        <time>2015-09-30T13:19:54Z</time>
      </trkpt>
      <trkpt lat="43.43578" lon="6.03671">
        <ele>262.60000610352</ele>
        <time>2015-09-30T13:19:55Z</time>
      </trkpt>
      <trkpt lat="43.4358" lon="6.03666">
        <ele>263</ele>
        <time>2015-09-30T13:19:57Z</time>
      </trkpt>
      <trkpt lat="43.43582" lon="6.03663">
        <ele>262.79998779297</ele>
        <time>2015-09-30T13:19:58Z</time>
      </trkpt>
      <trkpt lat="43.43583" lon="6.03659">
        <ele>262.60000610352</ele>
        <time>2015-09-30T13:19:59Z</time>
      </trkpt>
      <trkpt lat="43.43584" lon="6.03654">
        <ele>261.79998779297</ele>
        <time>2015-09-30T13:20:02Z</time>
      </trkpt>
      <trkpt lat="43.43584" lon="6.03654">
        <ele>261.60000610352</ele>
        <time>2015-09-30T13:20:03Z</time>
      </trkpt>
      <trkpt lat="43.43584" lon="6.03653">
        <ele>261.60000610352</ele>
        <time>2015-09-30T13:20:16Z</time>
      </trkpt>
      <trkpt lat="43.43584" lon="6.03652">
        <ele>261.39999389648</ele>
        <time>2015-09-30T13:20:26Z</time>
      </trkpt>
      <trkpt lat="43.43584" lon="6.03652">
        <ele>261.39999389648</ele>
        <time>2015-09-30T13:20:29Z</time>
      </trkpt>
      <trkpt lat="43.43584" lon="6.0365">
        <ele>261.60000610352</ele>
        <time>2015-09-30T13:20:31Z</time>
      </trkpt>
      <trkpt lat="43.43585" lon="6.03649">
        <ele>261.60000610352</ele>
        <time>2015-09-30T13:20:32Z</time>
      </trkpt>
      <trkpt lat="43.43586" lon="6.03643">
        <ele>261.79998779297</ele>
        <time>2015-09-30T13:20:36Z</time>
      </trkpt>
      <trkpt lat="43.43586" lon="6.0363">
        <ele>261.79998779297</ele>
        <time>2015-09-30T13:20:43Z</time>
      </trkpt>
      <trkpt lat="43.43586" lon="6.03622">
        <ele>262</ele>
        <time>2015-09-30T13:20:46Z</time>
      </trkpt>
      <trkpt lat="43.43586" lon="6.03619">
        <ele>261.79998779297</ele>
        <time>2015-09-30T13:20:48Z</time>
      </trkpt>
      <trkpt lat="43.43586" lon="6.03618">
        <ele>261.79998779297</ele>
        <time>2015-09-30T13:20:49Z</time>
      </trkpt>
      <trkpt lat="43.43586" lon="6.03615">
        <ele>261.79998779297</ele>
        <time>2015-09-30T13:20:54Z</time>
      </trkpt>
      <trkpt lat="43.43585" lon="6.03615">
        <ele>261.60000610352</ele>
        <time>2015-09-30T13:21:00Z</time>
      </trkpt>
      <trkpt lat="43.43585" lon="6.03612">
        <ele>262</ele>
        <time>2015-09-30T13:21:11Z</time>
      </trkpt>
      <trkpt lat="43.43586" lon="6.03609">
        <ele>262</ele>
        <time>2015-09-30T13:21:17Z</time>
      </trkpt>
      <trkpt lat="43.43586" lon="6.03609">
        <ele>262</ele>
        <time>2015-09-30T13:21:21Z</time>
      </trkpt>
      <trkpt lat="43.43586" lon="6.03609">
        <ele>261.60000610352</ele>
        <time>2015-09-30T13:22:00Z</time>
      </trkpt>
      <trkpt lat="43.43586" lon="6.03609">
        <ele>261.60000610352</ele>
        <time>2015-09-30T13:22:18Z</time>
      </trkpt>
      <trkpt lat="43.43586" lon="6.03609">
        <ele>261.60000610352</ele>
        <time>2015-09-30T13:22:28Z</time>
      </trkpt>
      <trkpt lat="43.43584" lon="6.03609">
        <ele>261.79998779297</ele>
        <time>2015-09-30T13:22:32Z</time>
      </trkpt>
      <trkpt lat="43.43584" lon="6.03604">
        <ele>261.39999389648</ele>
        <time>2015-09-30T13:22:36Z</time>
      </trkpt>
      <trkpt lat="43.43584" lon="6.03603">
        <ele>261.39999389648</ele>
        <time>2015-09-30T13:22:37Z</time>
      </trkpt>
      <trkpt lat="43.43586" lon="6.03583">
        <ele>261.60000610352</ele>
        <time>2015-09-30T13:22:43Z</time>
      </trkpt>
      <trkpt lat="43.43594" lon="6.03562">
        <ele>262.39999389648</ele>
        <time>2015-09-30T13:22:49Z</time>
      </trkpt>
      <trkpt lat="43.43602" lon="6.03549">
        <ele>262.79998779297</ele>
        <time>2015-09-30T13:22:53Z</time>
      </trkpt>
      <trkpt lat="43.43606" lon="6.0354">
        <ele>262.20001220703</ele>
        <time>2015-09-30T13:22:55Z</time>
      </trkpt>
      <trkpt lat="43.43613" lon="6.03517">
        <ele>262</ele>
        <time>2015-09-30T13:23:01Z</time>
      </trkpt>
      <trkpt lat="43.43613" lon="6.03514">
        <ele>262.20001220703</ele>
        <time>2015-09-30T13:23:02Z</time>
      </trkpt>
      <trkpt lat="43.43616" lon="6.03502">
        <ele>262.20001220703</ele>
        <time>2015-09-30T13:23:06Z</time>
      </trkpt>
      <trkpt lat="43.43616" lon="6.03498">
        <ele>262.20001220703</ele>
        <time>2015-09-30T13:23:07Z</time>
      </trkpt>
      <trkpt lat="43.43622" lon="6.03478">
        <ele>263</ele>
        <time>2015-09-30T13:23:13Z</time>
      </trkpt>
      <trkpt lat="43.43628" lon="6.03459">
        <ele>263.20001220703</ele>
        <time>2015-09-30T13:23:18Z</time>
      </trkpt>
      <trkpt lat="43.43629" lon="6.03449">
        <ele>263.60000610352</ele>
        <time>2015-09-30T13:23:20Z</time>
      </trkpt>
      <trkpt lat="43.43631" lon="6.03432">
        <ele>264</ele>
        <time>2015-09-30T13:23:24Z</time>
      </trkpt>
      <trkpt lat="43.43631" lon="6.03423">
        <ele>264.39999389648</ele>
        <time>2015-09-30T13:23:26Z</time>
      </trkpt>
      <trkpt lat="43.43631" lon="6.03399">
        <ele>264.20001220703</ele>
        <time>2015-09-30T13:23:31Z</time>
      </trkpt>
      <trkpt lat="43.43634" lon="6.03389">
        <ele>263.79998779297</ele>
        <time>2015-09-30T13:23:33Z</time>
      </trkpt>
      <trkpt lat="43.43639" lon="6.03383">
        <ele>263.79998779297</ele>
        <time>2015-09-30T13:23:35Z</time>
      </trkpt>
      <trkpt lat="43.43646" lon="6.03369">
        <ele>264.20001220703</ele>
        <time>2015-09-30T13:23:40Z</time>
      </trkpt>
      <trkpt lat="43.43647" lon="6.03366">
        <ele>264</ele>
        <time>2015-09-30T13:23:41Z</time>
      </trkpt>
      <trkpt lat="43.43655" lon="6.0335">
        <ele>264</ele>
        <time>2015-09-30T13:23:46Z</time>
      </trkpt>
      <trkpt lat="43.43663" lon="6.03335">
        <ele>263.20001220703</ele>
        <time>2015-09-30T13:23:51Z</time>
      </trkpt>
      <trkpt lat="43.43668" lon="6.03327">
        <ele>263</ele>
        <time>2015-09-30T13:23:53Z</time>
      </trkpt>
      <trkpt lat="43.43668" lon="6.03322">
        <ele>262.79998779297</ele>
        <time>2015-09-30T13:23:54Z</time>
      </trkpt>
      <trkpt lat="43.43668" lon="6.03318">
        <ele>262.79998779297</ele>
        <time>2015-09-30T13:23:55Z</time>
      </trkpt>
      <trkpt lat="43.43673" lon="6.03307">
        <ele>263.20001220703</ele>
        <time>2015-09-30T13:23:59Z</time>
      </trkpt>
      <trkpt lat="43.43678" lon="6.03302">
        <ele>263.20001220703</ele>
        <time>2015-09-30T13:24:01Z</time>
      </trkpt>
      <trkpt lat="43.43683" lon="6.03291">
        <ele>263.60000610352</ele>
        <time>2015-09-30T13:24:05Z</time>
      </trkpt>
      <trkpt lat="43.43686" lon="6.03285">
        <ele>264.39999389648</ele>
        <time>2015-09-30T13:24:07Z</time>
      </trkpt>
      <trkpt lat="43.43691" lon="6.03271">
        <ele>264.20001220703</ele>
        <time>2015-09-30T13:24:11Z</time>
      </trkpt>
      <trkpt lat="43.43692" lon="6.0326">
        <ele>264.39999389648</ele>
        <time>2015-09-30T13:24:16Z</time>
      </trkpt>
      <trkpt lat="43.43691" lon="6.03251">
        <ele>264.60000610352</ele>
        <time>2015-09-30T13:24:22Z</time>
      </trkpt>
      <trkpt lat="43.43691" lon="6.03249">
        <ele>264.39999389648</ele>
        <time>2015-09-30T13:24:25Z</time>
      </trkpt>
      <trkpt lat="43.4369" lon="6.03248">
        <ele>264.39999389648</ele>
        <time>2015-09-30T13:24:28Z</time>
      </trkpt>
      <trkpt lat="43.4369" lon="6.03247">
        <ele>264.20001220703</ele>
        <time>2015-09-30T13:24:36Z</time>
      </trkpt>
      <trkpt lat="43.4369" lon="6.03246">
        <ele>264.39999389648</ele>
        <time>2015-09-30T13:24:40Z</time>
      </trkpt>
      <trkpt lat="43.4369" lon="6.03246">
        <ele>264.60000610352</ele>
        <time>2015-09-30T13:24:46Z</time>
      </trkpt>
      <trkpt lat="43.4369" lon="6.03246">
        <ele>264.39999389648</ele>
        <time>2015-09-30T13:24:49Z</time>
      </trkpt>
      <trkpt lat="43.4369" lon="6.03245">
        <ele>264.39999389648</ele>
        <time>2015-09-30T13:25:00Z</time>
      </trkpt>
      <trkpt lat="43.4369" lon="6.03244">
        <ele>264.39999389648</ele>
        <time>2015-09-30T13:25:10Z</time>
      </trkpt>
      <trkpt lat="43.4369" lon="6.03245">
        <ele>264.39999389648</ele>
        <time>2015-09-30T13:25:16Z</time>
      </trkpt>
      <trkpt lat="43.4369" lon="6.03246">
        <ele>264.60000610352</ele>
        <time>2015-09-30T13:25:17Z</time>
      </trkpt>
      <trkpt lat="43.43691" lon="6.03251">
        <ele>264.60000610352</ele>
        <time>2015-09-30T13:25:21Z</time>
      </trkpt>
      <trkpt lat="43.4369" lon="6.03259">
        <ele>264.60000610352</ele>
        <time>2015-09-30T13:25:24Z</time>
      </trkpt>
      <trkpt lat="43.43685" lon="6.03277">
        <ele>264.20001220703</ele>
        <time>2015-09-30T13:25:30Z</time>
      </trkpt>
      <trkpt lat="43.43684" lon="6.0328">
        <ele>264.20001220703</ele>
        <time>2015-09-30T13:25:31Z</time>
      </trkpt>
      <trkpt lat="43.43676" lon="6.0329">
        <ele>263.39999389648</ele>
        <time>2015-09-30T13:25:36Z</time>
      </trkpt>
      <trkpt lat="43.43668" lon="6.03298">
        <ele>263.20001220703</ele>
        <time>2015-09-30T13:25:40Z</time>
      </trkpt>
      <trkpt lat="43.43666" lon="6.03303">
        <ele>263</ele>
        <time>2015-09-30T13:25:42Z</time>
      </trkpt>
      <trkpt lat="43.43666" lon="6.03314">
        <ele>262.79998779297</ele>
        <time>2015-09-30T13:25:48Z</time>
      </trkpt>
      <trkpt lat="43.43667" lon="6.03315">
        <ele>263</ele>
        <time>2015-09-30T13:25:57Z</time>
      </trkpt>
      <trkpt lat="43.43667" lon="6.03314">
        <ele>263</ele>
        <time>2015-09-30T13:26:04Z</time>
      </trkpt>
      <trkpt lat="43.43667" lon="6.03314">
        <ele>263</ele>
        <time>2015-09-30T13:26:05Z</time>
      </trkpt>
      <trkpt lat="43.43667" lon="6.0331">
        <ele>263.20001220703</ele>
        <time>2015-09-30T13:26:10Z</time>
      </trkpt>
      <trkpt lat="43.43667" lon="6.03308">
        <ele>263.39999389648</ele>
        <time>2015-09-30T13:26:14Z</time>
      </trkpt>
      <trkpt lat="43.43667" lon="6.03308">
        <ele>263.20001220703</ele>
        <time>2015-09-30T13:26:24Z</time>
      </trkpt>
      <trkpt lat="43.43667" lon="6.03308">
        <ele>262.79998779297</ele>
        <time>2015-09-30T13:26:29Z</time>
      </trkpt>
      <trkpt lat="43.43667" lon="6.0331">
        <ele>263</ele>
        <time>2015-09-30T13:26:41Z</time>
      </trkpt>
      <trkpt lat="43.43666" lon="6.03314">
        <ele>263.20001220703</ele>
        <time>2015-09-30T13:26:48Z</time>
      </trkpt>
      <trkpt lat="43.43663" lon="6.03326">
        <ele>263</ele>
        <time>2015-09-30T13:26:53Z</time>
      </trkpt>
      <trkpt lat="43.43656" lon="6.0334">
        <ele>264.39999389648</ele>
        <time>2015-09-30T13:26:59Z</time>
      </trkpt>
      <trkpt lat="43.43648" lon="6.03351">
        <ele>264.39999389648</ele>
        <time>2015-09-30T13:27:05Z</time>
      </trkpt>
      <trkpt lat="43.43648" lon="6.03352">
        <ele>264.20001220703</ele>
        <time>2015-09-30T13:27:10Z</time>
      </trkpt>
      <trkpt lat="43.43648" lon="6.03353">
        <ele>263.60000610352</ele>
        <time>2015-09-30T13:27:33Z</time>
      </trkpt>
      <trkpt lat="43.43648" lon="6.03353">
        <ele>263.60000610352</ele>
        <time>2015-09-30T13:27:54Z</time>
      </trkpt>
      <trkpt lat="43.43649" lon="6.03353">
        <ele>263.79998779297</ele>
        <time>2015-09-30T13:28:08Z</time>
      </trkpt>
      <trkpt lat="43.43648" lon="6.03353">
        <ele>263.20001220703</ele>
        <time>2015-09-30T13:28:20Z</time>
      </trkpt>
      <trkpt lat="43.43648" lon="6.03353">
        <ele>264.20001220703</ele>
        <time>2015-09-30T13:28:28Z</time>
      </trkpt>
      <trkpt lat="43.43648" lon="6.03353">
        <ele>263.79998779297</ele>
        <time>2015-09-30T13:28:34Z</time>
      </trkpt>
      <trkpt lat="43.43649" lon="6.03353">
        <ele>264.20001220703</ele>
        <time>2015-09-30T13:28:49Z</time>
      </trkpt>
      <trkpt lat="43.4365" lon="6.03351">
        <ele>264.60000610352</ele>
        <time>2015-09-30T13:28:53Z</time>
      </trkpt>
      <trkpt lat="43.43654" lon="6.03347">
        <ele>263.79998779297</ele>
        <time>2015-09-30T13:28:59Z</time>
      </trkpt>
      <trkpt lat="43.43661" lon="6.03334">
        <ele>263.79998779297</ele>
        <time>2015-09-30T13:29:05Z</time>
      </trkpt>
      <trkpt lat="43.43668" lon="6.03323">
        <ele>263.20001220703</ele>
        <time>2015-09-30T13:29:09Z</time>
      </trkpt>
      <trkpt lat="43.43668" lon="6.03319">
        <ele>263</ele>
        <time>2015-09-30T13:29:10Z</time>
      </trkpt>
      <trkpt lat="43.43671" lon="6.03306">
        <ele>263</ele>
        <time>2015-09-30T13:29:15Z</time>
      </trkpt>
      <trkpt lat="43.43679" lon="6.03296">
        <ele>263.60000610352</ele>
        <time>2015-09-30T13:29:21Z</time>
      </trkpt>
      <trkpt lat="43.43689" lon="6.0327">
        <ele>264.39999389648</ele>
        <time>2015-09-30T13:29:33Z</time>
      </trkpt>
      <trkpt lat="43.43691" lon="6.03256">
        <ele>264.60000610352</ele>
        <time>2015-09-30T13:29:39Z</time>
      </trkpt>
      <trkpt lat="43.4369" lon="6.03249">
        <ele>264.39999389648</ele>
        <time>2015-09-30T13:29:45Z</time>
      </trkpt>
      <trkpt lat="43.4369" lon="6.03248">
        <ele>264</ele>
        <time>2015-09-30T13:29:53Z</time>
      </trkpt>
      <trkpt lat="43.43689" lon="6.03248">
        <ele>264.60000610352</ele>
        <time>2015-09-30T13:30:07Z</time>
      </trkpt>
      <trkpt lat="43.43689" lon="6.03247">
        <ele>264.39999389648</ele>
        <time>2015-09-30T13:30:18Z</time>
      </trkpt>
      <trkpt lat="43.4369" lon="6.03247">
        <ele>264.60000610352</ele>
        <time>2015-09-30T13:30:20Z</time>
      </trkpt>
      <trkpt lat="43.4369" lon="6.03246">
        <ele>264.39999389648</ele>
        <time>2015-09-30T13:30:40Z</time>
      </trkpt>
      <trkpt lat="43.4369" lon="6.03246">
        <ele>264.39999389648</ele>
        <time>2015-09-30T13:30:44Z</time>
      </trkpt>
      <trkpt lat="43.4369" lon="6.03246">
        <ele>264.60000610352</ele>
        <time>2015-09-30T13:31:02Z</time>
      </trkpt>
      <trkpt lat="43.4369" lon="6.03245">
        <ele>264.60000610352</ele>
        <time>2015-09-30T13:31:11Z</time>
      </trkpt>
      <trkpt lat="43.4369" lon="6.03245">
        <ele>264.39999389648</ele>
        <time>2015-09-30T13:31:20Z</time>
      </trkpt>
      <trkpt lat="43.43689" lon="6.03244">
        <ele>264.20001220703</ele>
        <time>2015-09-30T13:31:59Z</time>
      </trkpt>
      <trkpt lat="43.43689" lon="6.03243">
        <ele>264.39999389648</ele>
        <time>2015-09-30T13:32:06Z</time>
      </trkpt>
      <trkpt lat="43.43687" lon="6.03234">
        <ele>264</ele>
        <time>2015-09-30T13:32:12Z</time>
      </trkpt>
      <trkpt lat="43.43688" lon="6.03222">
        <ele>264.60000610352</ele>
        <time>2015-09-30T13:32:17Z</time>
      </trkpt>
      <trkpt lat="43.43689" lon="6.03219">
        <ele>264.79998779297</ele>
        <time>2015-09-30T13:32:18Z</time>
      </trkpt>
      <trkpt lat="43.43693" lon="6.03202">
        <ele>265</ele>
        <time>2015-09-30T13:32:23Z</time>
      </trkpt>
      <trkpt lat="43.43695" lon="6.03197">
        <ele>265.20001220703</ele>
        <time>2015-09-30T13:32:25Z</time>
      </trkpt>
      <trkpt lat="43.43697" lon="6.03191">
        <ele>265.39999389648</ele>
        <time>2015-09-30T13:32:27Z</time>
      </trkpt>
      <trkpt lat="43.43695" lon="6.03188">
        <ele>265.39999389648</ele>
        <time>2015-09-30T13:32:28Z</time>
      </trkpt>
      <trkpt lat="43.43693" lon="6.03179">
        <ele>265.39999389648</ele>
        <time>2015-09-30T13:32:31Z</time>
      </trkpt>
      <trkpt lat="43.43694" lon="6.03174">
        <ele>265.39999389648</ele>
        <time>2015-09-30T13:32:33Z</time>
      </trkpt>
      <trkpt lat="43.43695" lon="6.03169">
        <ele>265.20001220703</ele>
        <time>2015-09-30T13:32:35Z</time>
      </trkpt>
      <trkpt lat="43.43695" lon="6.03154">
        <ele>265</ele>
        <time>2015-09-30T13:32:39Z</time>
      </trkpt>
      <trkpt lat="43.43694" lon="6.03132">
        <ele>265.39999389648</ele>
        <time>2015-09-30T13:32:45Z</time>
      </trkpt>
      <trkpt lat="43.43697" lon="6.03112">
        <ele>265.39999389648</ele>
        <time>2015-09-30T13:32:50Z</time>
      </trkpt>
      <trkpt lat="43.43702" lon="6.03085">
        <ele>265.39999389648</ele>
        <time>2015-09-30T13:32:56Z</time>
      </trkpt>
      <trkpt lat="43.43703" lon="6.03081">
        <ele>265.39999389648</ele>
        <time>2015-09-30T13:32:57Z</time>
      </trkpt>
      <trkpt lat="43.43717" lon="6.03066">
        <ele>265.20001220703</ele>
        <time>2015-09-30T13:33:02Z</time>
      </trkpt>
      <trkpt lat="43.4373" lon="6.03057">
        <ele>264</ele>
        <time>2015-09-30T13:33:06Z</time>
      </trkpt>
      <trkpt lat="43.43737" lon="6.03052">
        <ele>263.39999389648</ele>
        <time>2015-09-30T13:33:08Z</time>
      </trkpt>
      <trkpt lat="43.43749" lon="6.03046">
        <ele>262.79998779297</ele>
        <time>2015-09-30T13:33:11Z</time>
      </trkpt>
      <trkpt lat="43.43759" lon="6.03042">
        <ele>262.20001220703</ele>
        <time>2015-09-30T13:33:13Z</time>
      </trkpt>
      <trkpt lat="43.43762" lon="6.0304">
        <ele>262.20001220703</ele>
        <time>2015-09-30T13:33:14Z</time>
      </trkpt>
      <trkpt lat="43.43768" lon="6.03027">
        <ele>262.20001220703</ele>
        <time>2015-09-30T13:33:17Z</time>
      </trkpt>
      <trkpt lat="43.43775" lon="6.03013">
        <ele>262.20001220703</ele>
        <time>2015-09-30T13:33:22Z</time>
      </trkpt>
      <trkpt lat="43.43776" lon="6.0301">
        <ele>262.20001220703</ele>
        <time>2015-09-30T13:33:23Z</time>
      </trkpt>
      <trkpt lat="43.43782" lon="6.03001">
        <ele>262.20001220703</ele>
        <time>2015-09-30T13:33:27Z</time>
      </trkpt>
      <trkpt lat="43.43784" lon="6.02998">
        <ele>262</ele>
        <time>2015-09-30T13:33:29Z</time>
      </trkpt>
      <trkpt lat="43.43787" lon="6.0299">
        <ele>262</ele>
        <time>2015-09-30T13:33:33Z</time>
      </trkpt>
      <trkpt lat="43.43787" lon="6.02988">
        <ele>262</ele>
        <time>2015-09-30T13:33:35Z</time>
      </trkpt>
      <trkpt lat="43.43787" lon="6.02988">
        <ele>261.79998779297</ele>
        <time>2015-09-30T13:33:40Z</time>
      </trkpt>
      <trkpt lat="43.43787" lon="6.02988">
        <ele>261.79998779297</ele>
        <time>2015-09-30T13:33:43Z</time>
      </trkpt>
      <trkpt lat="43.43787" lon="6.02988">
        <ele>262</ele>
        <time>2015-09-30T13:33:53Z</time>
      </trkpt>
      <trkpt lat="43.43787" lon="6.02988">
        <ele>262.20001220703</ele>
        <time>2015-09-30T13:34:06Z</time>
      </trkpt>
      <trkpt lat="43.43787" lon="6.02988">
        <ele>262.20001220703</ele>
        <time>2015-09-30T13:34:12Z</time>
      </trkpt>
      <trkpt lat="43.43787" lon="6.02988">
        <ele>262.20001220703</ele>
        <time>2015-09-30T13:34:19Z</time>
      </trkpt>
      <trkpt lat="43.43787" lon="6.02987">
        <ele>261.60000610352</ele>
        <time>2015-09-30T13:34:40Z</time>
      </trkpt>
      <trkpt lat="43.43787" lon="6.02987">
        <ele>261.20001220703</ele>
        <time>2015-09-30T13:35:13Z</time>
      </trkpt>
      <trkpt lat="43.43787" lon="6.02987">
        <ele>261.60000610352</ele>
        <time>2015-09-30T13:36:46Z</time>
      </trkpt>
      <trkpt lat="43.43787" lon="6.02987">
        <ele>261.60000610352</ele>
        <time>2015-09-30T13:36:59Z</time>
      </trkpt>
      <trkpt lat="43.43787" lon="6.02987">
        <ele>261.39999389648</ele>
        <time>2015-09-30T13:37:17Z</time>
      </trkpt>
      <trkpt lat="43.43787" lon="6.02986">
        <ele>262</ele>
        <time>2015-09-30T13:40:11Z</time>
      </trkpt>
      <trkpt lat="43.43787" lon="6.02986">
        <ele>262.39999389648</ele>
        <time>2015-09-30T13:40:20Z</time>
      </trkpt>
      <trkpt lat="43.43787" lon="6.02983">
        <ele>262.39999389648</ele>
        <time>2015-09-30T13:40:28Z</time>
      </trkpt>
      <trkpt lat="43.43788" lon="6.02982">
        <ele>262.39999389648</ele>
        <time>2015-09-30T13:40:29Z</time>
      </trkpt>
      <trkpt lat="43.43788" lon="6.0298">
        <ele>262.60000610352</ele>
        <time>2015-09-30T13:40:33Z</time>
      </trkpt>
      <trkpt lat="43.43787" lon="6.02978">
        <ele>262.79998779297</ele>
        <time>2015-09-30T13:40:40Z</time>
      </trkpt>
      <trkpt lat="43.43787" lon="6.02975">
        <ele>263</ele>
        <time>2015-09-30T13:40:47Z</time>
      </trkpt>
      <trkpt lat="43.43788" lon="6.02968">
        <ele>263</ele>
        <time>2015-09-30T13:40:52Z</time>
      </trkpt>
      <trkpt lat="43.43788" lon="6.02966">
        <ele>263.20001220703</ele>
        <time>2015-09-30T13:40:53Z</time>
      </trkpt>
      <trkpt lat="43.43793" lon="6.02953">
        <ele>263.20001220703</ele>
        <time>2015-09-30T13:40:58Z</time>
      </trkpt>
      <trkpt lat="43.43794" lon="6.0295">
        <ele>263.20001220703</ele>
        <time>2015-09-30T13:40:59Z</time>
      </trkpt>
      <trkpt lat="43.43798" lon="6.02933">
        <ele>263.79998779297</ele>
        <time>2015-09-30T13:41:05Z</time>
      </trkpt>
      <trkpt lat="43.43796" lon="6.02914">
        <ele>263.79998779297</ele>
        <time>2015-09-30T13:41:11Z</time>
      </trkpt>
      <trkpt lat="43.43796" lon="6.02911">
        <ele>263.79998779297</ele>
        <time>2015-09-30T13:41:12Z</time>
      </trkpt>
      <trkpt lat="43.43797" lon="6.02903">
        <ele>264.39999389648</ele>
        <time>2015-09-30T13:41:15Z</time>
      </trkpt>
      <trkpt lat="43.43798" lon="6.02894">
        <ele>264.60000610352</ele>
        <time>2015-09-30T13:41:18Z</time>
      </trkpt>
      <trkpt lat="43.43798" lon="6.02891">
        <ele>264.79998779297</ele>
        <time>2015-09-30T13:41:19Z</time>
      </trkpt>
      <trkpt lat="43.438" lon="6.02881">
        <ele>265.60000610352</ele>
        <time>2015-09-30T13:41:22Z</time>
      </trkpt>
      <trkpt lat="43.43804" lon="6.02869">
        <ele>265.79998779297</ele>
        <time>2015-09-30T13:41:25Z</time>
      </trkpt>
      <trkpt lat="43.43811" lon="6.02849">
        <ele>265.20001220703</ele>
        <time>2015-09-30T13:41:31Z</time>
      </trkpt>
      <trkpt lat="43.43813" lon="6.02837">
        <ele>264.79998779297</ele>
        <time>2015-09-30T13:41:36Z</time>
      </trkpt>
      <trkpt lat="43.43812" lon="6.02836">
        <ele>264.79998779297</ele>
        <time>2015-09-30T13:41:43Z</time>
      </trkpt>
      <trkpt lat="43.43812" lon="6.02836">
        <ele>265.20001220703</ele>
        <time>2015-09-30T13:41:50Z</time>
      </trkpt>
      <trkpt lat="43.43812" lon="6.02836">
        <ele>264.39999389648</ele>
        <time>2015-09-30T13:41:54Z</time>
      </trkpt>
      <trkpt lat="43.43811" lon="6.02833">
        <ele>264.39999389648</ele>
        <time>2015-09-30T13:41:57Z</time>
      </trkpt>
      <trkpt lat="43.4381" lon="6.0282">
        <ele>265.39999389648</ele>
        <time>2015-09-30T13:42:01Z</time>
      </trkpt>
      <trkpt lat="43.4381" lon="6.0282">
        <ele>266.20001220703</ele>
        <time>2015-09-30T13:42:02Z</time>
      </trkpt>
      <trkpt lat="43.43807" lon="6.02813">
        <ele>266.39999389648</ele>
        <time>2015-09-30T13:42:05Z</time>
      </trkpt>
      <trkpt lat="43.43803" lon="6.02806">
        <ele>266.79998779297</ele>
        <time>2015-09-30T13:42:09Z</time>
      </trkpt>
      <trkpt lat="43.43801" lon="6.02806">
        <ele>267.20001220703</ele>
        <time>2015-09-30T13:42:10Z</time>
      </trkpt>
      <trkpt lat="43.438" lon="6.02803">
        <ele>267.39999389648</ele>
        <time>2015-09-30T13:42:12Z</time>
      </trkpt>
      <trkpt lat="43.43798" lon="6.02797">
        <ele>267.39999389648</ele>
        <time>2015-09-30T13:42:15Z</time>
      </trkpt>
      <trkpt lat="43.43792" lon="6.02785">
        <ele>267.60000610352</ele>
        <time>2015-09-30T13:42:21Z</time>
      </trkpt>
      <trkpt lat="43.43789" lon="6.02779">
        <ele>267.60000610352</ele>
        <time>2015-09-30T13:42:23Z</time>
      </trkpt>
      <trkpt lat="43.43789" lon="6.02777">
        <ele>267.79998779297</ele>
        <time>2015-09-30T13:42:24Z</time>
      </trkpt>
      <trkpt lat="43.4379" lon="6.02771">
        <ele>267.79998779297</ele>
        <time>2015-09-30T13:42:26Z</time>
      </trkpt>
      <trkpt lat="43.43792" lon="6.02757">
        <ele>267.79998779297</ele>
        <time>2015-09-30T13:42:31Z</time>
      </trkpt>
      <trkpt lat="43.43793" lon="6.02754">
        <ele>267.79998779297</ele>
        <time>2015-09-30T13:42:32Z</time>
      </trkpt>
      <trkpt lat="43.43792" lon="6.0275">
        <ele>267.79998779297</ele>
        <time>2015-09-30T13:42:33Z</time>
      </trkpt>
      <trkpt lat="43.43791" lon="6.02747">
        <ele>268.20001220703</ele>
        <time>2015-09-30T13:42:34Z</time>
      </trkpt>
      <trkpt lat="43.43791" lon="6.02741">
        <ele>268.60000610352</ele>
        <time>2015-09-30T13:42:36Z</time>
      </trkpt>
      <trkpt lat="43.43787" lon="6.02729">
        <ele>268.79998779297</ele>
        <time>2015-09-30T13:42:40Z</time>
      </trkpt>
      <trkpt lat="43.43777" lon="6.02723">
        <ele>268.79998779297</ele>
        <time>2015-09-30T13:42:44Z</time>
      </trkpt>
      <trkpt lat="43.43771" lon="6.02715">
        <ele>269.20001220703</ele>
        <time>2015-09-30T13:42:48Z</time>
      </trkpt>
      <trkpt lat="43.43769" lon="6.02714">
        <ele>269.60000610352</ele>
        <time>2015-09-30T13:42:49Z</time>
      </trkpt>
      <trkpt lat="43.4377" lon="6.02708">
        <ele>269.79998779297</ele>
        <time>2015-09-30T13:42:52Z</time>
      </trkpt>
      <trkpt lat="43.43781" lon="6.02702">
        <ele>269.60000610352</ele>
        <time>2015-09-30T13:42:58Z</time>
      </trkpt>
      <trkpt lat="43.43787" lon="6.02692">
        <ele>269.60000610352</ele>
        <time>2015-09-30T13:43:03Z</time>
      </trkpt>
      <trkpt lat="43.43787" lon="6.02691">
        <ele>269.60000610352</ele>
        <time>2015-09-30T13:43:04Z</time>
      </trkpt>
      <trkpt lat="43.43789" lon="6.02682">
        <ele>270</ele>
        <time>2015-09-30T13:43:09Z</time>
      </trkpt>
      <trkpt lat="43.43788" lon="6.0268">
        <ele>270.20001220703</ele>
        <time>2015-09-30T13:43:10Z</time>
      </trkpt>
      <trkpt lat="43.43789" lon="6.02667">
        <ele>270.20001220703</ele>
        <time>2015-09-30T13:43:15Z</time>
      </trkpt>
      <trkpt lat="43.43787" lon="6.02654">
        <ele>270.39999389648</ele>
        <time>2015-09-30T13:43:21Z</time>
      </trkpt>
      <trkpt lat="43.43789" lon="6.02636">
        <ele>270.39999389648</ele>
        <time>2015-09-30T13:43:28Z</time>
      </trkpt>
      <trkpt lat="43.43793" lon="6.02621">
        <ele>270.60000610352</ele>
        <time>2015-09-30T13:43:33Z</time>
      </trkpt>
      <trkpt lat="43.43795" lon="6.02614">
        <ele>270.79998779297</ele>
        <time>2015-09-30T13:43:35Z</time>
      </trkpt>
      <trkpt lat="43.43797" lon="6.02593">
        <ele>270.60000610352</ele>
        <time>2015-09-30T13:43:41Z</time>
      </trkpt>
      <trkpt lat="43.43797" lon="6.02583">
        <ele>270.79998779297</ele>
        <time>2015-09-30T13:43:44Z</time>
      </trkpt>
      <trkpt lat="43.43795" lon="6.02573">
        <ele>271.20001220703</ele>
        <time>2015-09-30T13:43:47Z</time>
      </trkpt>
      <trkpt lat="43.43795" lon="6.02571">
        <ele>271.20001220703</ele>
        <time>2015-09-30T13:43:48Z</time>
      </trkpt>
      <trkpt lat="43.43794" lon="6.02562">
        <ele>271.20001220703</ele>
        <time>2015-09-30T13:43:50Z</time>
      </trkpt>
      <trkpt lat="43.43795" lon="6.02556">
        <ele>271</ele>
        <time>2015-09-30T13:43:52Z</time>
      </trkpt>
      <trkpt lat="43.43794" lon="6.02546">
        <ele>271.20001220703</ele>
        <time>2015-09-30T13:43:55Z</time>
      </trkpt>
      <trkpt lat="43.43795" lon="6.02538">
        <ele>271.20001220703</ele>
        <time>2015-09-30T13:43:58Z</time>
      </trkpt>
      <trkpt lat="43.43797" lon="6.02535">
        <ele>271.20001220703</ele>
        <time>2015-09-30T13:43:59Z</time>
      </trkpt>
      <trkpt lat="43.438" lon="6.02527">
        <ele>271.20001220703</ele>
        <time>2015-09-30T13:44:02Z</time>
      </trkpt>
      <trkpt lat="43.43801" lon="6.02517">
        <ele>270.39999389648</ele>
        <time>2015-09-30T13:44:06Z</time>
      </trkpt>
      <trkpt lat="43.43801" lon="6.02514">
        <ele>270.60000610352</ele>
        <time>2015-09-30T13:44:07Z</time>
      </trkpt>
      <trkpt lat="43.438" lon="6.02505">
        <ele>270.60000610352</ele>
        <time>2015-09-30T13:44:12Z</time>
      </trkpt>
      <trkpt lat="43.43801" lon="6.02502">
        <ele>270.39999389648</ele>
        <time>2015-09-30T13:44:13Z</time>
      </trkpt>
      <trkpt lat="43.438" lon="6.0249">
        <ele>270.39999389648</ele>
        <time>2015-09-30T13:44:19Z</time>
      </trkpt>
      <trkpt lat="43.438" lon="6.02483">
        <ele>270.60000610352</ele>
        <time>2015-09-30T13:44:23Z</time>
      </trkpt>
      <trkpt lat="43.43797" lon="6.02481">
        <ele>271.20001220703</ele>
        <time>2015-09-30T13:44:26Z</time>
      </trkpt>
      <trkpt lat="43.43796" lon="6.02481">
        <ele>271.20001220703</ele>
        <time>2015-09-30T13:44:27Z</time>
      </trkpt>
      <trkpt lat="43.43793" lon="6.0248">
        <ele>271.79998779297</ele>
        <time>2015-09-30T13:44:29Z</time>
      </trkpt>
      <trkpt lat="43.43793" lon="6.0248">
        <ele>272</ele>
        <time>2015-09-30T13:44:31Z</time>
      </trkpt>
      <trkpt lat="43.43793" lon="6.0248">
        <ele>272.20001220703</ele>
        <time>2015-09-30T13:44:32Z</time>
      </trkpt>
      <trkpt lat="43.43792" lon="6.0248">
        <ele>272.79998779297</ele>
        <time>2015-09-30T13:44:40Z</time>
      </trkpt>
      <trkpt lat="43.43792" lon="6.0248">
        <ele>272.60000610352</ele>
        <time>2015-09-30T13:44:43Z</time>
      </trkpt>
      <trkpt lat="43.43791" lon="6.02478">
        <ele>273</ele>
        <time>2015-09-30T13:44:49Z</time>
      </trkpt>
      <trkpt lat="43.43791" lon="6.02478">
        <ele>273</ele>
        <time>2015-09-30T13:44:57Z</time>
      </trkpt>
      <trkpt lat="43.43791" lon="6.02479">
        <ele>272.79998779297</ele>
        <time>2015-09-30T13:45:01Z</time>
      </trkpt>
      <trkpt lat="43.4379" lon="6.02478">
        <ele>272.60000610352</ele>
        <time>2015-09-30T13:45:08Z</time>
      </trkpt>
      <trkpt lat="43.4379" lon="6.02478">
        <ele>272.39999389648</ele>
        <time>2015-09-30T13:45:13Z</time>
      </trkpt>
      <trkpt lat="43.4379" lon="6.02478">
        <ele>272.60000610352</ele>
        <time>2015-09-30T13:45:15Z</time>
      </trkpt>
      <trkpt lat="43.4379" lon="6.02478">
        <ele>272.39999389648</ele>
        <time>2015-09-30T13:45:18Z</time>
      </trkpt>
      <trkpt lat="43.43789" lon="6.02476">
        <ele>272.79998779297</ele>
        <time>2015-09-30T13:45:23Z</time>
      </trkpt>
      <trkpt lat="43.43787" lon="6.02474">
        <ele>272.79998779297</ele>
        <time>2015-09-30T13:45:25Z</time>
      </trkpt>
      <trkpt lat="43.43783" lon="6.0247">
        <ele>272</ele>
        <time>2015-09-30T13:45:29Z</time>
      </trkpt>
      <trkpt lat="43.43783" lon="6.02469">
        <ele>271.79998779297</ele>
        <time>2015-09-30T13:45:30Z</time>
      </trkpt>
      <trkpt lat="43.43784" lon="6.02467">
        <ele>271.79998779297</ele>
        <time>2015-09-30T13:45:31Z</time>
      </trkpt>
      <trkpt lat="43.43784" lon="6.02463">
        <ele>272.60000610352</ele>
        <time>2015-09-30T13:45:34Z</time>
      </trkpt>
      <trkpt lat="43.43782" lon="6.02461">
        <ele>272.79998779297</ele>
        <time>2015-09-30T13:45:35Z</time>
      </trkpt>
      <trkpt lat="43.43781" lon="6.02458">
        <ele>273.39999389648</ele>
        <time>2015-09-30T13:45:37Z</time>
      </trkpt>
      <trkpt lat="43.43779" lon="6.02456">
        <ele>274</ele>
        <time>2015-09-30T13:45:38Z</time>
      </trkpt>
      <trkpt lat="43.43779" lon="6.02453">
        <ele>275</ele>
        <time>2015-09-30T13:45:40Z</time>
      </trkpt>
      <trkpt lat="43.4378" lon="6.0245">
        <ele>275.20001220703</ele>
        <time>2015-09-30T13:45:42Z</time>
      </trkpt>
      <trkpt lat="43.43779" lon="6.0245">
        <ele>275</ele>
        <time>2015-09-30T13:45:45Z</time>
      </trkpt>
      <trkpt lat="43.43778" lon="6.0245">
        <ele>274.79998779297</ele>
        <time>2015-09-30T13:46:02Z</time>
      </trkpt>
      <trkpt lat="43.43778" lon="6.0245">
        <ele>275</ele>
        <time>2015-09-30T13:46:16Z</time>
      </trkpt>
      <trkpt lat="43.43778" lon="6.02449">
        <ele>274.79998779297</ele>
        <time>2015-09-30T13:46:20Z</time>
      </trkpt>
      <trkpt lat="43.43778" lon="6.02449">
        <ele>274.79998779297</ele>
        <time>2015-09-30T13:46:23Z</time>
      </trkpt>
      <trkpt lat="43.43779" lon="6.02444">
        <ele>274.60000610352</ele>
        <time>2015-09-30T13:46:31Z</time>
      </trkpt>
      <trkpt lat="43.43776" lon="6.02439">
        <ele>275</ele>
        <time>2015-09-30T13:46:35Z</time>
      </trkpt>
      <trkpt lat="43.43775" lon="6.02436">
        <ele>275.20001220703</ele>
        <time>2015-09-30T13:46:37Z</time>
      </trkpt>
      <trkpt lat="43.43767" lon="6.02426">
        <ele>274.79998779297</ele>
        <time>2015-09-30T13:46:44Z</time>
      </trkpt>
      <trkpt lat="43.43766" lon="6.02423">
        <ele>275</ele>
        <time>2015-09-30T13:46:46Z</time>
      </trkpt>
      <trkpt lat="43.43763" lon="6.02414">
        <ele>275</ele>
        <time>2015-09-30T13:46:51Z</time>
      </trkpt>
      <trkpt lat="43.4376" lon="6.02411">
        <ele>275.60000610352</ele>
        <time>2015-09-30T13:46:54Z</time>
      </trkpt>
      <trkpt lat="43.43752" lon="6.02404">
        <ele>277.39999389648</ele>
        <time>2015-09-30T13:46:59Z</time>
      </trkpt>
      <trkpt lat="43.43751" lon="6.02403">
        <ele>277.60000610352</ele>
        <time>2015-09-30T13:47:00Z</time>
      </trkpt>
      <trkpt lat="43.43748" lon="6.02399">
        <ele>278.20001220703</ele>
        <time>2015-09-30T13:47:02Z</time>
      </trkpt>
      <trkpt lat="43.43746" lon="6.02389">
        <ele>278.39999389648</ele>
        <time>2015-09-30T13:47:07Z</time>
      </trkpt>
      <trkpt lat="43.43745" lon="6.02386">
        <ele>278.39999389648</ele>
        <time>2015-09-30T13:47:09Z</time>
      </trkpt>
      <trkpt lat="43.43744" lon="6.02382">
        <ele>278.79998779297</ele>
        <time>2015-09-30T13:47:11Z</time>
      </trkpt>
      <trkpt lat="43.4374" lon="6.02375">
        <ele>279.20001220703</ele>
        <time>2015-09-30T13:47:14Z</time>
      </trkpt>
      <trkpt lat="43.43737" lon="6.02373">
        <ele>279.39999389648</ele>
        <time>2015-09-30T13:47:16Z</time>
      </trkpt>
      <trkpt lat="43.43732" lon="6.02371">
        <ele>279.39999389648</ele>
        <time>2015-09-30T13:47:19Z</time>
      </trkpt>
      <trkpt lat="43.4373" lon="6.02371">
        <ele>279.79998779297</ele>
        <time>2015-09-30T13:47:20Z</time>
      </trkpt>
      <trkpt lat="43.43727" lon="6.02369">
        <ele>280.39999389648</ele>
        <time>2015-09-30T13:47:22Z</time>
      </trkpt>
      <trkpt lat="43.43723" lon="6.02363">
        <ele>280.60000610352</ele>
        <time>2015-09-30T13:47:26Z</time>
      </trkpt>
      <trkpt lat="43.4372" lon="6.02353">
        <ele>280.39999389648</ele>
        <time>2015-09-30T13:47:31Z</time>
      </trkpt>
      <trkpt lat="43.43723" lon="6.02341">
        <ele>280.20001220703</ele>
        <time>2015-09-30T13:47:35Z</time>
      </trkpt>
      <trkpt lat="43.43728" lon="6.02336">
        <ele>279.20001220703</ele>
        <time>2015-09-30T13:47:37Z</time>
      </trkpt>
      <trkpt lat="43.4373" lon="6.02332">
        <ele>278</ele>
        <time>2015-09-30T13:47:39Z</time>
      </trkpt>
      <trkpt lat="43.4373" lon="6.02327">
        <ele>277.20001220703</ele>
        <time>2015-09-30T13:47:40Z</time>
      </trkpt>
      <trkpt lat="43.43731" lon="6.02322">
        <ele>276.20001220703</ele>
        <time>2015-09-30T13:47:41Z</time>
      </trkpt>
      <trkpt lat="43.43737" lon="6.02312">
        <ele>275.39999389648</ele>
        <time>2015-09-30T13:47:43Z</time>
      </trkpt>
      <trkpt lat="43.4374" lon="6.02307">
        <ele>275.20001220703</ele>
        <time>2015-09-30T13:47:44Z</time>
      </trkpt>
      <trkpt lat="43.43748" lon="6.02294">
        <ele>273.60000610352</ele>
        <time>2015-09-30T13:47:47Z</time>
      </trkpt>
      <trkpt lat="43.43751" lon="6.02289">
        <ele>272.79998779297</ele>
        <time>2015-09-30T13:47:48Z</time>
      </trkpt>
      <trkpt lat="43.43759" lon="6.02274">
        <ele>273</ele>
        <time>2015-09-30T13:47:51Z</time>
      </trkpt>
      <trkpt lat="43.43762" lon="6.02268">
        <ele>272.60000610352</ele>
        <time>2015-09-30T13:47:52Z</time>
      </trkpt>
      <trkpt lat="43.43766" lon="6.02262">
        <ele>272</ele>
        <time>2015-09-30T13:47:53Z</time>
      </trkpt>
      <trkpt lat="43.43769" lon="6.02251">
        <ele>271.20001220703</ele>
        <time>2015-09-30T13:47:55Z</time>
      </trkpt>
      <trkpt lat="43.43769" lon="6.02245">
        <ele>271</ele>
        <time>2015-09-30T13:47:56Z</time>
      </trkpt>
      <trkpt lat="43.43773" lon="6.02234">
        <ele>271</ele>
        <time>2015-09-30T13:47:59Z</time>
      </trkpt>
      <trkpt lat="43.43773" lon="6.02216">
        <ele>271.60000610352</ele>
        <time>2015-09-30T13:48:04Z</time>
      </trkpt>
      <trkpt lat="43.43776" lon="6.02198">
        <ele>271.79998779297</ele>
        <time>2015-09-30T13:48:08Z</time>
      </trkpt>
      <trkpt lat="43.43785" lon="6.02175">
        <ele>271.39999389648</ele>
        <time>2015-09-30T13:48:13Z</time>
      </trkpt>
      <trkpt lat="43.43797" lon="6.02159">
        <ele>271.39999389648</ele>
        <time>2015-09-30T13:48:17Z</time>
      </trkpt>
      <trkpt lat="43.43812" lon="6.02139">
        <ele>271.79998779297</ele>
        <time>2015-09-30T13:48:23Z</time>
      </trkpt>
      <trkpt lat="43.43817" lon="6.02129">
        <ele>272.39999389648</ele>
        <time>2015-09-30T13:48:26Z</time>
      </trkpt>
      <trkpt lat="43.43818" lon="6.02121">
        <ele>272.79998779297</ele>
        <time>2015-09-30T13:48:28Z</time>
      </trkpt>
      <trkpt lat="43.4382" lon="6.02111">
        <ele>273.20001220703</ele>
        <time>2015-09-30T13:48:31Z</time>
      </trkpt>
      <trkpt lat="43.43822" lon="6.02103">
        <ele>273.39999389648</ele>
        <time>2015-09-30T13:48:33Z</time>
      </trkpt>
      <trkpt lat="43.43828" lon="6.02088">
        <ele>273.20001220703</ele>
        <time>2015-09-30T13:48:36Z</time>
      </trkpt>
      <trkpt lat="43.43833" lon="6.02079">
        <ele>272.79998779297</ele>
        <time>2015-09-30T13:48:38Z</time>
      </trkpt>
      <trkpt lat="43.4384" lon="6.0206">
        <ele>272.79998779297</ele>
        <time>2015-09-30T13:48:43Z</time>
      </trkpt>
      <trkpt lat="43.43843" lon="6.02039">
        <ele>272.79998779297</ele>
        <time>2015-09-30T13:48:48Z</time>
      </trkpt>
      <trkpt lat="43.43846" lon="6.02009">
        <ele>273.39999389648</ele>
        <time>2015-09-30T13:48:55Z</time>
      </trkpt>
      <trkpt lat="43.43849" lon="6.01987">
        <ele>273.39999389648</ele>
        <time>2015-09-30T13:49:01Z</time>
      </trkpt>
      <trkpt lat="43.43854" lon="6.01973">
        <ele>273.39999389648</ele>
        <time>2015-09-30T13:49:05Z</time>
      </trkpt>
      <trkpt lat="43.43858" lon="6.01962">
        <ele>273.39999389648</ele>
        <time>2015-09-30T13:49:08Z</time>
      </trkpt>
      <trkpt lat="43.43865" lon="6.01946">
        <ele>273.60000610352</ele>
        <time>2015-09-30T13:49:14Z</time>
      </trkpt>
      <trkpt lat="43.43866" lon="6.01944">
        <ele>273.60000610352</ele>
        <time>2015-09-30T13:49:15Z</time>
      </trkpt>
      <trkpt lat="43.43867" lon="6.0194">
        <ele>273.60000610352</ele>
        <time>2015-09-30T13:49:17Z</time>
      </trkpt>
      <trkpt lat="43.43867" lon="6.01939">
        <ele>273.79998779297</ele>
        <time>2015-09-30T13:49:20Z</time>
      </trkpt>
      <trkpt lat="43.43867" lon="6.01938">
        <ele>273.79998779297</ele>
        <time>2015-09-30T13:49:37Z</time>
      </trkpt>
      <trkpt lat="43.43867" lon="6.01938">
        <ele>273.79998779297</ele>
        <time>2015-09-30T13:49:56Z</time>
      </trkpt>
      <trkpt lat="43.43867" lon="6.01938">
        <ele>274.60000610352</ele>
        <time>2015-09-30T13:50:31Z</time>
      </trkpt>
      <trkpt lat="43.43867" lon="6.01938">
        <ele>274</ele>
        <time>2015-09-30T13:50:54Z</time>
      </trkpt>
      <trkpt lat="43.43867" lon="6.01937">
        <ele>274.20001220703</ele>
        <time>2015-09-30T13:51:54Z</time>
      </trkpt>
      <trkpt lat="43.43867" lon="6.01937">
        <ele>274.20001220703</ele>
        <time>2015-09-30T13:51:59Z</time>
      </trkpt>
      <trkpt lat="43.43866" lon="6.01939">
        <ele>274.20001220703</ele>
        <time>2015-09-30T13:52:00Z</time>
      </trkpt>
      <trkpt lat="43.43864" lon="6.01942">
        <ele>274.20001220703</ele>
        <time>2015-09-30T13:52:02Z</time>
      </trkpt>
      <trkpt lat="43.43856" lon="6.01952">
        <ele>274</ele>
        <time>2015-09-30T13:52:09Z</time>
      </trkpt>
      <trkpt lat="43.43853" lon="6.01956">
        <ele>274.39999389648</ele>
        <time>2015-09-30T13:52:14Z</time>
      </trkpt>
      <trkpt lat="43.43853" lon="6.01956">
        <ele>274.60000610352</ele>
        <time>2015-09-30T13:52:16Z</time>
      </trkpt>
      <trkpt lat="43.43854" lon="6.01956">
        <ele>274.20001220703</ele>
        <time>2015-09-30T13:52:26Z</time>
      </trkpt>
      <trkpt lat="43.43854" lon="6.01956">
        <ele>274</ele>
        <time>2015-09-30T13:52:35Z</time>
      </trkpt>
      <trkpt lat="43.43854" lon="6.01956">
        <ele>274.39999389648</ele>
        <time>2015-09-30T13:52:59Z</time>
      </trkpt>
      <trkpt lat="43.43855" lon="6.01955">
        <ele>274.60000610352</ele>
        <time>2015-09-30T13:53:17Z</time>
      </trkpt>
      <trkpt lat="43.43856" lon="6.01953">
        <ele>274.60000610352</ele>
        <time>2015-09-30T13:53:34Z</time>
      </trkpt>
      <trkpt lat="43.43857" lon="6.01952">
        <ele>274.60000610352</ele>
        <time>2015-09-30T13:53:35Z</time>
      </trkpt>
      <trkpt lat="43.43859" lon="6.01945">
        <ele>274.60000610352</ele>
        <time>2015-09-30T13:53:41Z</time>
      </trkpt>
      <trkpt lat="43.43863" lon="6.01934">
        <ele>274.20001220703</ele>
        <time>2015-09-30T13:53:49Z</time>
      </trkpt>
      <trkpt lat="43.43865" lon="6.0193">
        <ele>274.39999389648</ele>
        <time>2015-09-30T13:53:52Z</time>
      </trkpt>
      <trkpt lat="43.43867" lon="6.01923">
        <ele>274.20001220703</ele>
        <time>2015-09-30T13:53:55Z</time>
      </trkpt>
      <trkpt lat="43.43867" lon="6.0192">
        <ele>274.20001220703</ele>
        <time>2015-09-30T13:53:56Z</time>
      </trkpt>
      <trkpt lat="43.43871" lon="6.01904">
        <ele>274.60000610352</ele>
        <time>2015-09-30T13:54:01Z</time>
      </trkpt>
      <trkpt lat="43.43876" lon="6.01883">
        <ele>275.39999389648</ele>
        <time>2015-09-30T13:54:06Z</time>
      </trkpt>
      <trkpt lat="43.43877" lon="6.01874">
        <ele>275.39999389648</ele>
        <time>2015-09-30T13:54:08Z</time>
      </trkpt>
      <trkpt lat="43.43879" lon="6.01864">
        <ele>275.60000610352</ele>
        <time>2015-09-30T13:54:10Z</time>
      </trkpt>
      <trkpt lat="43.43882" lon="6.0185">
        <ele>275.39999389648</ele>
        <time>2015-09-30T13:54:13Z</time>
      </trkpt>
      <trkpt lat="43.43883" lon="6.01841">
        <ele>275.60000610352</ele>
        <time>2015-09-30T13:54:15Z</time>
      </trkpt>
      <trkpt lat="43.43884" lon="6.01825">
        <ele>276.60000610352</ele>
        <time>2015-09-30T13:54:19Z</time>
      </trkpt>
      <trkpt lat="43.43885" lon="6.01811">
        <ele>277.20001220703</ele>
        <time>2015-09-30T13:54:23Z</time>
      </trkpt>
      <trkpt lat="43.43887" lon="6.01803">
        <ele>277.79998779297</ele>
        <time>2015-09-30T13:54:26Z</time>
      </trkpt>
      <trkpt lat="43.4389" lon="6.01793">
        <ele>278.39999389648</ele>
        <time>2015-09-30T13:54:30Z</time>
      </trkpt>
      <trkpt lat="43.43892" lon="6.01788">
        <ele>278.60000610352</ele>
        <time>2015-09-30T13:54:32Z</time>
      </trkpt>
      <trkpt lat="43.43892" lon="6.01785">
        <ele>278.79998779297</ele>
        <time>2015-09-30T13:54:33Z</time>
      </trkpt>
      <trkpt lat="43.43894" lon="6.01768">
        <ele>279.79998779297</ele>
        <time>2015-09-30T13:54:39Z</time>
      </trkpt>
      <trkpt lat="43.4389" lon="6.0175">
        <ele>280.79998779297</ele>
        <time>2015-09-30T13:54:44Z</time>
      </trkpt>
      <trkpt lat="43.43886" lon="6.01739">
        <ele>280.60000610352</ele>
        <time>2015-09-30T13:54:49Z</time>
      </trkpt>
      <trkpt lat="43.43878" lon="6.01715">
        <ele>281.79998779297</ele>
        <time>2015-09-30T13:54:59Z</time>
      </trkpt>
      <trkpt lat="43.43878" lon="6.01713">
        <ele>282.20001220703</ele>
        <time>2015-09-30T13:55:00Z</time>
      </trkpt>
      <trkpt lat="43.43877" lon="6.01699">
        <ele>283</ele>
        <time>2015-09-30T13:55:05Z</time>
      </trkpt>
      <trkpt lat="43.43877" lon="6.01681">
        <ele>282.60000610352</ele>
        <time>2015-09-30T13:55:11Z</time>
      </trkpt>
      <trkpt lat="43.43871" lon="6.0167">
        <ele>282.79998779297</ele>
        <time>2015-09-30T13:55:16Z</time>
      </trkpt>
      <trkpt lat="43.43868" lon="6.0167">
        <ele>283</ele>
        <time>2015-09-30T13:55:17Z</time>
      </trkpt>
      <trkpt lat="43.43864" lon="6.01671">
        <ele>283.39999389648</ele>
        <time>2015-09-30T13:55:19Z</time>
      </trkpt>
      <trkpt lat="43.43862" lon="6.01672">
        <ele>283.60000610352</ele>
        <time>2015-09-30T13:55:20Z</time>
      </trkpt>
      <trkpt lat="43.4386" lon="6.01673">
        <ele>283.60000610352</ele>
        <time>2015-09-30T13:55:21Z</time>
      </trkpt>
      <trkpt lat="43.43847" lon="6.01682">
        <ele>284</ele>
        <time>2015-09-30T13:55:27Z</time>
      </trkpt>
      <trkpt lat="43.43832" lon="6.01689">
        <ele>284.20001220703</ele>
        <time>2015-09-30T13:55:33Z</time>
      </trkpt>
      <trkpt lat="43.43827" lon="6.01691">
        <ele>284.79998779297</ele>
        <time>2015-09-30T13:55:35Z</time>
      </trkpt>
      <trkpt lat="43.43814" lon="6.01697">
        <ele>284.79998779297</ele>
        <time>2015-09-30T13:55:40Z</time>
      </trkpt>
      <trkpt lat="43.43794" lon="6.01703">
        <ele>285</ele>
        <time>2015-09-30T13:55:47Z</time>
      </trkpt>
      <trkpt lat="43.43773" lon="6.01699">
        <ele>286</ele>
        <time>2015-09-30T13:55:55Z</time>
      </trkpt>
      <trkpt lat="43.43766" lon="6.01697">
        <ele>286.39999389648</ele>
        <time>2015-09-30T13:55:59Z</time>
      </trkpt>
      <trkpt lat="43.43761" lon="6.01694">
        <ele>286.60000610352</ele>
        <time>2015-09-30T13:56:02Z</time>
      </trkpt>
      <trkpt lat="43.43752" lon="6.0169">
        <ele>286.60000610352</ele>
        <time>2015-09-30T13:56:07Z</time>
      </trkpt>
      <trkpt lat="43.43748" lon="6.01687">
        <ele>287</ele>
        <time>2015-09-30T13:56:10Z</time>
      </trkpt>
      <trkpt lat="43.43748" lon="6.01687">
        <ele>287.60000610352</ele>
        <time>2015-09-30T13:56:13Z</time>
      </trkpt>
      <trkpt lat="43.43747" lon="6.01687">
        <ele>287.79998779297</ele>
        <time>2015-09-30T13:56:17Z</time>
      </trkpt>
      <trkpt lat="43.43747" lon="6.01687">
        <ele>287.60000610352</ele>
        <time>2015-09-30T13:56:20Z</time>
      </trkpt>
      <trkpt lat="43.43747" lon="6.01687">
        <ele>288</ele>
        <time>2015-09-30T13:56:25Z</time>
      </trkpt>
      <trkpt lat="43.43747" lon="6.01687">
        <ele>287.79998779297</ele>
        <time>2015-09-30T13:56:59Z</time>
      </trkpt>
      <trkpt lat="43.43747" lon="6.01687">
        <ele>288</ele>
        <time>2015-09-30T13:57:37Z</time>
      </trkpt>
      <trkpt lat="43.43747" lon="6.01687">
        <ele>287.60000610352</ele>
        <time>2015-09-30T13:57:46Z</time>
      </trkpt>
      <trkpt lat="43.43748" lon="6.01687">
        <ele>288</ele>
        <time>2015-09-30T13:58:07Z</time>
      </trkpt>
      <trkpt lat="43.4375" lon="6.01689">
        <ele>287.60000610352</ele>
        <time>2015-09-30T13:58:14Z</time>
      </trkpt>
      <trkpt lat="43.43752" lon="6.0169">
        <ele>287.79998779297</ele>
        <time>2015-09-30T13:58:15Z</time>
      </trkpt>
      <trkpt lat="43.43758" lon="6.01694">
        <ele>287.79998779297</ele>
        <time>2015-09-30T13:58:19Z</time>
      </trkpt>
      <trkpt lat="43.43761" lon="6.01695">
        <ele>287.60000610352</ele>
        <time>2015-09-30T13:58:20Z</time>
      </trkpt>
      <trkpt lat="43.43776" lon="6.01701">
        <ele>286.79998779297</ele>
        <time>2015-09-30T13:58:25Z</time>
      </trkpt>
      <trkpt lat="43.43785" lon="6.01704">
        <ele>286.39999389648</ele>
        <time>2015-09-30T13:58:27Z</time>
      </trkpt>
      <trkpt lat="43.4379" lon="6.01705">
        <ele>286.20001220703</ele>
        <time>2015-09-30T13:58:28Z</time>
      </trkpt>
      <trkpt lat="43.438" lon="6.01704">
        <ele>285.79998779297</ele>
        <time>2015-09-30T13:58:30Z</time>
      </trkpt>
      <trkpt lat="43.4381" lon="6.01701">
        <ele>285.39999389648</ele>
        <time>2015-09-30T13:58:32Z</time>
      </trkpt>
      <trkpt lat="43.43827" lon="6.01693">
        <ele>284.79998779297</ele>
        <time>2015-09-30T13:58:35Z</time>
      </trkpt>
      <trkpt lat="43.43843" lon="6.01684">
        <ele>284.39999389648</ele>
        <time>2015-09-30T13:58:38Z</time>
      </trkpt>
      <trkpt lat="43.43853" lon="6.01675">
        <ele>283.79998779297</ele>
        <time>2015-09-30T13:58:40Z</time>
      </trkpt>
      <trkpt lat="43.43858" lon="6.0167">
        <ele>283.60000610352</ele>
        <time>2015-09-30T13:58:41Z</time>
      </trkpt>
      <trkpt lat="43.43866" lon="6.01664">
        <ele>283.20001220703</ele>
        <time>2015-09-30T13:58:43Z</time>
      </trkpt>
      <trkpt lat="43.4387" lon="6.01669">
        <ele>283.20001220703</ele>
        <time>2015-09-30T13:58:45Z</time>
      </trkpt>
      <trkpt lat="43.43871" lon="6.0168">
        <ele>283.20001220703</ele>
        <time>2015-09-30T13:58:47Z</time>
      </trkpt>
      <trkpt lat="43.4387" lon="6.01686">
        <ele>283</ele>
        <time>2015-09-30T13:58:48Z</time>
      </trkpt>
      <trkpt lat="43.4387" lon="6.017">
        <ele>282.79998779297</ele>
        <time>2015-09-30T13:58:50Z</time>
      </trkpt>
      <trkpt lat="43.43871" lon="6.01707">
        <ele>282.60000610352</ele>
        <time>2015-09-30T13:58:51Z</time>
      </trkpt>
      <trkpt lat="43.43876" lon="6.01724">
        <ele>282.39999389648</ele>
        <time>2015-09-30T13:58:53Z</time>
      </trkpt>
      <trkpt lat="43.43883" lon="6.0174">
        <ele>281.79998779297</ele>
        <time>2015-09-30T13:58:55Z</time>
      </trkpt>
      <trkpt lat="43.43887" lon="6.01757">
        <ele>281.60000610352</ele>
        <time>2015-09-30T13:58:57Z</time>
      </trkpt>
      <trkpt lat="43.43888" lon="6.01765">
        <ele>280.79998779297</ele>
        <time>2015-09-30T13:58:58Z</time>
      </trkpt>
      <trkpt lat="43.43887" lon="6.0178">
        <ele>279.60000610352</ele>
        <time>2015-09-30T13:59:00Z</time>
      </trkpt>
      <trkpt lat="43.43882" lon="6.01796">
        <ele>278.60000610352</ele>
        <time>2015-09-30T13:59:02Z</time>
      </trkpt>
      <trkpt lat="43.4388" lon="6.01805">
        <ele>278.39999389648</ele>
        <time>2015-09-30T13:59:03Z</time>
      </trkpt>
      <trkpt lat="43.43879" lon="6.01836">
        <ele>277.39999389648</ele>
        <time>2015-09-30T13:59:06Z</time>
      </trkpt>
      <trkpt lat="43.43878" lon="6.01848">
        <ele>277.20001220703</ele>
        <time>2015-09-30T13:59:07Z</time>
      </trkpt>
      <trkpt lat="43.43875" lon="6.01877">
        <ele>276</ele>
        <time>2015-09-30T13:59:10Z</time>
      </trkpt>
      <trkpt lat="43.43871" lon="6.01896">
        <ele>275.60000610352</ele>
        <time>2015-09-30T13:59:12Z</time>
      </trkpt>
      <trkpt lat="43.43869" lon="6.01905">
        <ele>274.79998779297</ele>
        <time>2015-09-30T13:59:13Z</time>
      </trkpt>
      <trkpt lat="43.43864" lon="6.01929">
        <ele>275</ele>
        <time>2015-09-30T13:59:16Z</time>
      </trkpt>
      <trkpt lat="43.4386" lon="6.01936">
        <ele>275</ele>
        <time>2015-09-30T13:59:17Z</time>
      </trkpt>
      <trkpt lat="43.43858" lon="6.0194">
        <ele>274.60000610352</ele>
        <time>2015-09-30T13:59:18Z</time>
      </trkpt>
      <trkpt lat="43.43845" lon="6.01963">
        <ele>274.79998779297</ele>
        <time>2015-09-30T13:59:23Z</time>
      </trkpt>
      <trkpt lat="43.4384" lon="6.01981">
        <ele>275</ele>
        <time>2015-09-30T13:59:28Z</time>
      </trkpt>
      <trkpt lat="43.43838" lon="6.02009">
        <ele>274.60000610352</ele>
        <time>2015-09-30T13:59:34Z</time>
      </trkpt>
      <trkpt lat="43.43835" lon="6.0203">
        <ele>274.20001220703</ele>
        <time>2015-09-30T13:59:38Z</time>
      </trkpt>
      <trkpt lat="43.43835" lon="6.02036">
        <ele>274.20001220703</ele>
        <time>2015-09-30T13:59:39Z</time>
      </trkpt>
      <trkpt lat="43.43829" lon="6.02054">
        <ele>274.20001220703</ele>
        <time>2015-09-30T13:59:43Z</time>
      </trkpt>
      <trkpt lat="43.43823" lon="6.02065">
        <ele>274.39999389648</ele>
        <time>2015-09-30T13:59:46Z</time>
      </trkpt>
      <trkpt lat="43.43821" lon="6.0207">
        <ele>274.39999389648</ele>
        <time>2015-09-30T13:59:47Z</time>
      </trkpt>
      <trkpt lat="43.4382" lon="6.02074">
        <ele>274.39999389648</ele>
        <time>2015-09-30T13:59:48Z</time>
      </trkpt>
      <trkpt lat="43.43817" lon="6.0209">
        <ele>274.60000610352</ele>
        <time>2015-09-30T13:59:51Z</time>
      </trkpt>
      <trkpt lat="43.43817" lon="6.02096">
        <ele>274.60000610352</ele>
        <time>2015-09-30T13:59:52Z</time>
      </trkpt>
      <trkpt lat="43.43817" lon="6.02103">
        <ele>274.20001220703</ele>
        <time>2015-09-30T13:59:53Z</time>
      </trkpt>
      <trkpt lat="43.43815" lon="6.02109">
        <ele>274.20001220703</ele>
        <time>2015-09-30T13:59:54Z</time>
      </trkpt>
      <trkpt lat="43.43811" lon="6.02114">
        <ele>273.79998779297</ele>
        <time>2015-09-30T13:59:55Z</time>
      </trkpt>
      <trkpt lat="43.43808" lon="6.02119">
        <ele>273.20001220703</ele>
        <time>2015-09-30T13:59:56Z</time>
      </trkpt>
      <trkpt lat="43.43799" lon="6.02127">
        <ele>273.60000610352</ele>
        <time>2015-09-30T13:59:58Z</time>
      </trkpt>
      <trkpt lat="43.43787" lon="6.02141">
        <ele>273.60000610352</ele>
        <time>2015-09-30T14:00:01Z</time>
      </trkpt>
      <trkpt lat="43.43784" lon="6.02145">
        <ele>273</ele>
        <time>2015-09-30T14:00:02Z</time>
      </trkpt>
      <trkpt lat="43.43782" lon="6.02151">
        <ele>272.60000610352</ele>
        <time>2015-09-30T14:00:03Z</time>
      </trkpt>
      <trkpt lat="43.43779" lon="6.02162">
        <ele>272.79998779297</ele>
        <time>2015-09-30T14:00:05Z</time>
      </trkpt>
      <trkpt lat="43.43773" lon="6.02168">
        <ele>273.39999389648</ele>
        <time>2015-09-30T14:00:07Z</time>
      </trkpt>
      <trkpt lat="43.4377" lon="6.02179">
        <ele>273</ele>
        <time>2015-09-30T14:00:09Z</time>
      </trkpt>
      <trkpt lat="43.4377" lon="6.02205">
        <ele>271.79998779297</ele>
        <time>2015-09-30T14:00:13Z</time>
      </trkpt>
      <trkpt lat="43.43769" lon="6.02212">
        <ele>271.60000610352</ele>
        <time>2015-09-30T14:00:14Z</time>
      </trkpt>
      <trkpt lat="43.43767" lon="6.02225">
        <ele>271.79998779297</ele>
        <time>2015-09-30T14:00:16Z</time>
      </trkpt>
      <trkpt lat="43.43766" lon="6.02232">
        <ele>271.60000610352</ele>
        <time>2015-09-30T14:00:17Z</time>
      </trkpt>
      <trkpt lat="43.4376" lon="6.02245">
        <ele>271.79998779297</ele>
        <time>2015-09-30T14:00:20Z</time>
      </trkpt>
      <trkpt lat="43.43756" lon="6.02254">
        <ele>272.20001220703</ele>
        <time>2015-09-30T14:00:24Z</time>
      </trkpt>
      <trkpt lat="43.43756" lon="6.02256">
        <ele>272.39999389648</ele>
        <time>2015-09-30T14:00:25Z</time>
      </trkpt>
      <trkpt lat="43.43754" lon="6.02259">
        <ele>272.39999389648</ele>
        <time>2015-09-30T14:00:27Z</time>
      </trkpt>
      <trkpt lat="43.43754" lon="6.02262">
        <ele>272.79998779297</ele>
        <time>2015-09-30T14:00:30Z</time>
      </trkpt>
      <trkpt lat="43.43754" lon="6.02262">
        <ele>273</ele>
        <time>2015-09-30T14:00:40Z</time>
      </trkpt>
      <trkpt lat="43.43754" lon="6.02263">
        <ele>272.79998779297</ele>
        <time>2015-09-30T14:01:04Z</time>
      </trkpt>
      <trkpt lat="43.43754" lon="6.02263">
        <ele>273</ele>
        <time>2015-09-30T14:01:10Z</time>
      </trkpt>
      <trkpt lat="43.43751" lon="6.02267">
        <ele>273</ele>
        <time>2015-09-30T14:01:23Z</time>
      </trkpt>
      <trkpt lat="43.43748" lon="6.02275">
        <ele>273.79998779297</ele>
        <time>2015-09-30T14:01:26Z</time>
      </trkpt>
      <trkpt lat="43.43746" lon="6.02278">
        <ele>273.79998779297</ele>
        <time>2015-09-30T14:01:27Z</time>
      </trkpt>
      <trkpt lat="43.43744" lon="6.0228">
        <ele>274.39999389648</ele>
        <time>2015-09-30T14:01:28Z</time>
      </trkpt>
      <trkpt lat="43.43739" lon="6.0229">
        <ele>275.39999389648</ele>
        <time>2015-09-30T14:01:31Z</time>
      </trkpt>
      <trkpt lat="43.43736" lon="6.02292">
        <ele>275.79998779297</ele>
        <time>2015-09-30T14:01:32Z</time>
      </trkpt>
      <trkpt lat="43.43731" lon="6.02302">
        <ele>276.39999389648</ele>
        <time>2015-09-30T14:01:35Z</time>
      </trkpt>
      <trkpt lat="43.43729" lon="6.02306">
        <ele>276.60000610352</ele>
        <time>2015-09-30T14:01:36Z</time>
      </trkpt>
      <trkpt lat="43.43728" lon="6.0231">
        <ele>276.60000610352</ele>
        <time>2015-09-30T14:01:37Z</time>
      </trkpt>
      <trkpt lat="43.43725" lon="6.02318">
        <ele>277.79998779297</ele>
        <time>2015-09-30T14:01:40Z</time>
      </trkpt>
      <trkpt lat="43.43723" lon="6.02321">
        <ele>278</ele>
        <time>2015-09-30T14:01:41Z</time>
      </trkpt>
      <trkpt lat="43.43721" lon="6.02322">
        <ele>278.39999389648</ele>
        <time>2015-09-30T14:01:42Z</time>
      </trkpt>
      <trkpt lat="43.43718" lon="6.02325">
        <ele>279</ele>
        <time>2015-09-30T14:01:44Z</time>
      </trkpt>
      <trkpt lat="43.43718" lon="6.02328">
        <ele>279.79998779297</ele>
        <time>2015-09-30T14:01:46Z</time>
      </trkpt>
      <trkpt lat="43.43716" lon="6.0233">
        <ele>280.20001220703</ele>
        <time>2015-09-30T14:01:47Z</time>
      </trkpt>
      <trkpt lat="43.43716" lon="6.02333">
        <ele>280.39999389648</ele>
        <time>2015-09-30T14:01:48Z</time>
      </trkpt>
      <trkpt lat="43.43717" lon="6.02341">
        <ele>280.60000610352</ele>
        <time>2015-09-30T14:01:51Z</time>
      </trkpt>
      <trkpt lat="43.43718" lon="6.02348">
        <ele>280.79998779297</ele>
        <time>2015-09-30T14:01:53Z</time>
      </trkpt>
      <trkpt lat="43.43723" lon="6.02358">
        <ele>280.60000610352</ele>
        <time>2015-09-30T14:01:58Z</time>
      </trkpt>
      <trkpt lat="43.43727" lon="6.02358">
        <ele>280.39999389648</ele>
        <time>2015-09-30T14:02:02Z</time>
      </trkpt>
      <trkpt lat="43.43732" lon="6.02359">
        <ele>280.20001220703</ele>
        <time>2015-09-30T14:02:04Z</time>
      </trkpt>
      <trkpt lat="43.43736" lon="6.0237">
        <ele>279.60000610352</ele>
        <time>2015-09-30T14:02:08Z</time>
      </trkpt>
      <trkpt lat="43.43739" lon="6.02382">
        <ele>279.60000610352</ele>
        <time>2015-09-30T14:02:12Z</time>
      </trkpt>
      <trkpt lat="43.43741" lon="6.02389">
        <ele>279.20001220703</ele>
        <time>2015-09-30T14:02:14Z</time>
      </trkpt>
      <trkpt lat="43.43749" lon="6.02399">
        <ele>277.79998779297</ele>
        <time>2015-09-30T14:02:18Z</time>
      </trkpt>
      <trkpt lat="43.43752" lon="6.024">
        <ele>277.39999389648</ele>
        <time>2015-09-30T14:02:19Z</time>
      </trkpt>
      <trkpt lat="43.43755" lon="6.02408">
        <ele>276.79998779297</ele>
        <time>2015-09-30T14:02:21Z</time>
      </trkpt>
      <trkpt lat="43.43756" lon="6.02412">
        <ele>276.60000610352</ele>
        <time>2015-09-30T14:02:22Z</time>
      </trkpt>
      <trkpt lat="43.4376" lon="6.02415">
        <ele>276</ele>
        <time>2015-09-30T14:02:23Z</time>
      </trkpt>
      <trkpt lat="43.43762" lon="6.02417">
        <ele>275.39999389648</ele>
        <time>2015-09-30T14:02:24Z</time>
      </trkpt>
      <trkpt lat="43.43766" lon="6.02421">
        <ele>275.60000610352</ele>
        <time>2015-09-30T14:02:26Z</time>
      </trkpt>
      <trkpt lat="43.43768" lon="6.02434">
        <ele>275.60000610352</ele>
        <time>2015-09-30T14:02:30Z</time>
      </trkpt>
      <trkpt lat="43.43767" lon="6.02443">
        <ele>275.60000610352</ele>
        <time>2015-09-30T14:02:34Z</time>
      </trkpt>
      <trkpt lat="43.43771" lon="6.02451">
        <ele>273.60000610352</ele>
        <time>2015-09-30T14:02:37Z</time>
      </trkpt>
      <trkpt lat="43.4377" lon="6.02452">
        <ele>273.20001220703</ele>
        <time>2015-09-30T14:02:38Z</time>
      </trkpt>
      <trkpt lat="43.43772" lon="6.02462">
        <ele>273</ele>
        <time>2015-09-30T14:02:41Z</time>
      </trkpt>
      <trkpt lat="43.4378" lon="6.02467">
        <ele>273.39999389648</ele>
        <time>2015-09-30T14:02:45Z</time>
      </trkpt>
      <trkpt lat="43.43787" lon="6.02474">
        <ele>273</ele>
        <time>2015-09-30T14:02:49Z</time>
      </trkpt>
      <trkpt lat="43.43789" lon="6.02478">
        <ele>272.39999389648</ele>
        <time>2015-09-30T14:02:50Z</time>
      </trkpt>
      <trkpt lat="43.4379" lon="6.02479">
        <ele>271.60000610352</ele>
        <time>2015-09-30T14:02:51Z</time>
      </trkpt>
      <trkpt lat="43.43791" lon="6.0248">
        <ele>271</ele>
        <time>2015-09-30T14:02:52Z</time>
      </trkpt>
      <trkpt lat="43.43791" lon="6.02479">
        <ele>270.39999389648</ele>
        <time>2015-09-30T14:02:55Z</time>
      </trkpt>
      <trkpt lat="43.43793" lon="6.02478">
        <ele>270.39999389648</ele>
        <time>2015-09-30T14:03:02Z</time>
      </trkpt>
      <trkpt lat="43.43793" lon="6.02478">
        <ele>270.20001220703</ele>
        <time>2015-09-30T14:03:14Z</time>
      </trkpt>
      <trkpt lat="43.43793" lon="6.02478">
        <ele>270.60000610352</ele>
        <time>2015-09-30T14:03:31Z</time>
      </trkpt>
      <trkpt lat="43.43793" lon="6.02478">
        <ele>270.39999389648</ele>
        <time>2015-09-30T14:03:57Z</time>
      </trkpt>
      <trkpt lat="43.43793" lon="6.02478">
        <ele>270.39999389648</ele>
        <time>2015-09-30T14:04:07Z</time>
      </trkpt>
      <trkpt lat="43.43793" lon="6.02478">
        <ele>270.39999389648</ele>
        <time>2015-09-30T14:04:10Z</time>
      </trkpt>
      <trkpt lat="43.43793" lon="6.02478">
        <ele>270.39999389648</ele>
        <time>2015-09-30T14:04:11Z</time>
      </trkpt>
      <trkpt lat="43.43793" lon="6.02478">
        <ele>271</ele>
        <time>2015-09-30T14:04:49Z</time>
      </trkpt>
      <trkpt lat="43.43793" lon="6.02478">
        <ele>270.20001220703</ele>
        <time>2015-09-30T14:05:36Z</time>
      </trkpt>
      <trkpt lat="43.43793" lon="6.02481">
        <ele>271.39999389648</ele>
        <time>2015-09-30T14:06:03Z</time>
      </trkpt>
      <trkpt lat="43.43793" lon="6.02485">
        <ele>271.20001220703</ele>
        <time>2015-09-30T14:06:09Z</time>
      </trkpt>
      <trkpt lat="43.43793" lon="6.02499">
        <ele>271.39999389648</ele>
        <time>2015-09-30T14:06:14Z</time>
      </trkpt>
      <trkpt lat="43.43792" lon="6.02513">
        <ele>271.79998779297</ele>
        <time>2015-09-30T14:06:17Z</time>
      </trkpt>
      <trkpt lat="43.43791" lon="6.02516">
        <ele>271.79998779297</ele>
        <time>2015-09-30T14:06:18Z</time>
      </trkpt>
      <trkpt lat="43.43787" lon="6.02531">
        <ele>272.39999389648</ele>
        <time>2015-09-30T14:06:22Z</time>
      </trkpt>
      <trkpt lat="43.43788" lon="6.02551">
        <ele>272.39999389648</ele>
        <time>2015-09-30T14:06:26Z</time>
      </trkpt>
      <trkpt lat="43.4379" lon="6.02572">
        <ele>272.20001220703</ele>
        <time>2015-09-30T14:06:30Z</time>
      </trkpt>
      <trkpt lat="43.4379" lon="6.02579">
        <ele>272</ele>
        <time>2015-09-30T14:06:31Z</time>
      </trkpt>
      <trkpt lat="43.43789" lon="6.02601">
        <ele>272</ele>
        <time>2015-09-30T14:06:35Z</time>
      </trkpt>
      <trkpt lat="43.43786" lon="6.02613">
        <ele>272.20001220703</ele>
        <time>2015-09-30T14:06:37Z</time>
      </trkpt>
      <trkpt lat="43.43783" lon="6.02629">
        <ele>271.79998779297</ele>
        <time>2015-09-30T14:06:40Z</time>
      </trkpt>
      <trkpt lat="43.43784" lon="6.02651">
        <ele>271.60000610352</ele>
        <time>2015-09-30T14:06:44Z</time>
      </trkpt>
      <trkpt lat="43.43784" lon="6.0267">
        <ele>271.60000610352</ele>
        <time>2015-09-30T14:06:49Z</time>
      </trkpt>
      <trkpt lat="43.43785" lon="6.02671">
        <ele>271.79998779297</ele>
        <time>2015-09-30T14:06:50Z</time>
      </trkpt>
      <trkpt lat="43.43785" lon="6.02679">
        <ele>270.60000610352</ele>
        <time>2015-09-30T14:06:53Z</time>
      </trkpt>
      <trkpt lat="43.43781" lon="6.02684">
        <ele>271</ele>
        <time>2015-09-30T14:06:57Z</time>
      </trkpt>
      <trkpt lat="43.43777" lon="6.02694">
        <ele>271</ele>
        <time>2015-09-30T14:07:00Z</time>
      </trkpt>
      <trkpt lat="43.43774" lon="6.02696">
        <ele>271</ele>
        <time>2015-09-30T14:07:01Z</time>
      </trkpt>
      <trkpt lat="43.43773" lon="6.02696">
        <ele>271.39999389648</ele>
        <time>2015-09-30T14:07:02Z</time>
      </trkpt>
      <trkpt lat="43.43774" lon="6.02696">
        <ele>271.60000610352</ele>
        <time>2015-09-30T14:07:04Z</time>
      </trkpt>
      <trkpt lat="43.43772" lon="6.02697">
        <ele>271.39999389648</ele>
        <time>2015-09-30T14:07:10Z</time>
      </trkpt>
      <trkpt lat="43.43766" lon="6.02702">
        <ele>271</ele>
        <time>2015-09-30T14:07:14Z</time>
      </trkpt>
      <trkpt lat="43.43769" lon="6.02708">
        <ele>270.60000610352</ele>
        <time>2015-09-30T14:07:17Z</time>
      </trkpt>
      <trkpt lat="43.43779" lon="6.0272">
        <ele>270.60000610352</ele>
        <time>2015-09-30T14:07:21Z</time>
      </trkpt>
      <trkpt lat="43.43785" lon="6.02725">
        <ele>270.20001220703</ele>
        <time>2015-09-30T14:07:24Z</time>
      </trkpt>
      <trkpt lat="43.43788" lon="6.02741">
        <ele>270</ele>
        <time>2015-09-30T14:07:29Z</time>
      </trkpt>
      <trkpt lat="43.43789" lon="6.02744">
        <ele>269.79998779297</ele>
        <time>2015-09-30T14:07:30Z</time>
      </trkpt>
      <trkpt lat="43.43787" lon="6.02752">
        <ele>269.79998779297</ele>
        <time>2015-09-30T14:07:32Z</time>
      </trkpt>
      <trkpt lat="43.43786" lon="6.02759">
        <ele>269.60000610352</ele>
        <time>2015-09-30T14:07:35Z</time>
      </trkpt>
      <trkpt lat="43.43785" lon="6.02769">
        <ele>269.60000610352</ele>
        <time>2015-09-30T14:07:38Z</time>
      </trkpt>
      <trkpt lat="43.43787" lon="6.02776">
        <ele>269.20001220703</ele>
        <time>2015-09-30T14:07:40Z</time>
      </trkpt>
      <trkpt lat="43.4379" lon="6.02786">
        <ele>269</ele>
        <time>2015-09-30T14:07:43Z</time>
      </trkpt>
      <trkpt lat="43.43795" lon="6.02795">
        <ele>268.79998779297</ele>
        <time>2015-09-30T14:07:47Z</time>
      </trkpt>
      <trkpt lat="43.43797" lon="6.02798">
        <ele>268.79998779297</ele>
        <time>2015-09-30T14:07:49Z</time>
      </trkpt>
      <trkpt lat="43.43798" lon="6.02799">
        <ele>268.39999389648</ele>
        <time>2015-09-30T14:07:50Z</time>
      </trkpt>
      <trkpt lat="43.43801" lon="6.02803">
        <ele>268.39999389648</ele>
        <time>2015-09-30T14:07:52Z</time>
      </trkpt>
      <trkpt lat="43.43807" lon="6.02816">
        <ele>268</ele>
        <time>2015-09-30T14:07:56Z</time>
      </trkpt>
      <trkpt lat="43.43808" lon="6.02821">
        <ele>267.60000610352</ele>
        <time>2015-09-30T14:07:57Z</time>
      </trkpt>
      <trkpt lat="43.43807" lon="6.02836">
        <ele>266.60000610352</ele>
        <time>2015-09-30T14:08:00Z</time>
      </trkpt>
      <trkpt lat="43.43806" lon="6.0284">
        <ele>266.39999389648</ele>
        <time>2015-09-30T14:08:01Z</time>
      </trkpt>
      <trkpt lat="43.43802" lon="6.02852">
        <ele>266.39999389648</ele>
        <time>2015-09-30T14:08:05Z</time>
      </trkpt>
      <trkpt lat="43.43797" lon="6.02873">
        <ele>266.60000610352</ele>
        <time>2015-09-30T14:08:11Z</time>
      </trkpt>
      <trkpt lat="43.43795" lon="6.0289">
        <ele>266.20001220703</ele>
        <time>2015-09-30T14:08:16Z</time>
      </trkpt>
      <trkpt lat="43.43795" lon="6.02908">
        <ele>265.79998779297</ele>
        <time>2015-09-30T14:08:22Z</time>
      </trkpt>
      <trkpt lat="43.43796" lon="6.02916">
        <ele>265.39999389648</ele>
        <time>2015-09-30T14:08:24Z</time>
      </trkpt>
      <trkpt lat="43.43796" lon="6.0293">
        <ele>265.20001220703</ele>
        <time>2015-09-30T14:08:27Z</time>
      </trkpt>
      <trkpt lat="43.43788" lon="6.02952">
        <ele>264.79998779297</ele>
        <time>2015-09-30T14:08:32Z</time>
      </trkpt>
      <trkpt lat="43.43787" lon="6.02956">
        <ele>264.39999389648</ele>
        <time>2015-09-30T14:08:33Z</time>
      </trkpt>
      <trkpt lat="43.43785" lon="6.0297">
        <ele>264.39999389648</ele>
        <time>2015-09-30T14:08:37Z</time>
      </trkpt>
      <trkpt lat="43.43782" lon="6.02993">
        <ele>264</ele>
        <time>2015-09-30T14:08:44Z</time>
      </trkpt>
      <trkpt lat="43.43781" lon="6.02996">
        <ele>264.20001220703</ele>
        <time>2015-09-30T14:08:46Z</time>
      </trkpt>
      <trkpt lat="43.43778" lon="6.02999">
        <ele>264</ele>
        <time>2015-09-30T14:08:49Z</time>
      </trkpt>
      <trkpt lat="43.43776" lon="6.03005">
        <ele>264</ele>
        <time>2015-09-30T14:08:55Z</time>
      </trkpt>
      <trkpt lat="43.43777" lon="6.03005">
        <ele>264.20001220703</ele>
        <time>2015-09-30T14:08:58Z</time>
      </trkpt>
      <trkpt lat="43.43774" lon="6.03009">
        <ele>264</ele>
        <time>2015-09-30T14:09:03Z</time>
      </trkpt>
      <trkpt lat="43.43766" lon="6.03024">
        <ele>263.79998779297</ele>
        <time>2015-09-30T14:09:08Z</time>
      </trkpt>
      <trkpt lat="43.43759" lon="6.03036">
        <ele>264.39999389648</ele>
        <time>2015-09-30T14:09:12Z</time>
      </trkpt>
      <trkpt lat="43.43755" lon="6.03037">
        <ele>264.60000610352</ele>
        <time>2015-09-30T14:09:13Z</time>
      </trkpt>
      <trkpt lat="43.43746" lon="6.0304">
        <ele>264.79998779297</ele>
        <time>2015-09-30T14:09:16Z</time>
      </trkpt>
      <trkpt lat="43.43742" lon="6.03041">
        <ele>265.39999389648</ele>
        <time>2015-09-30T14:09:17Z</time>
      </trkpt>
      <trkpt lat="43.43739" lon="6.03041">
        <ele>265.79998779297</ele>
        <time>2015-09-30T14:09:18Z</time>
      </trkpt>
      <trkpt lat="43.43737" lon="6.03043">
        <ele>266</ele>
        <time>2015-09-30T14:09:19Z</time>
      </trkpt>
      <trkpt lat="43.43731" lon="6.03047">
        <ele>266</ele>
        <time>2015-09-30T14:09:21Z</time>
      </trkpt>
      <trkpt lat="43.43727" lon="6.0305">
        <ele>266.20001220703</ele>
        <time>2015-09-30T14:09:22Z</time>
      </trkpt>
      <trkpt lat="43.43723" lon="6.03054">
        <ele>266.60000610352</ele>
        <time>2015-09-30T14:09:24Z</time>
      </trkpt>
      <trkpt lat="43.43718" lon="6.03058">
        <ele>266.39999389648</ele>
        <time>2015-09-30T14:09:26Z</time>
      </trkpt>
      <trkpt lat="43.43715" lon="6.03059">
        <ele>266.60000610352</ele>
        <time>2015-09-30T14:09:27Z</time>
      </trkpt>
      <trkpt lat="43.4371" lon="6.03064">
        <ele>267.20001220703</ele>
        <time>2015-09-30T14:09:29Z</time>
      </trkpt>
      <trkpt lat="43.43702" lon="6.03076">
        <ele>267.20001220703</ele>
        <time>2015-09-30T14:09:32Z</time>
      </trkpt>
      <trkpt lat="43.43697" lon="6.03098">
        <ele>267.20001220703</ele>
        <time>2015-09-30T14:09:37Z</time>
      </trkpt>
      <trkpt lat="43.43692" lon="6.03119">
        <ele>267.60000610352</ele>
        <time>2015-09-30T14:09:41Z</time>
      </trkpt>
      <trkpt lat="43.43692" lon="6.03124">
        <ele>267.79998779297</ele>
        <time>2015-09-30T14:09:42Z</time>
      </trkpt>
      <trkpt lat="43.43688" lon="6.03144">
        <ele>267.79998779297</ele>
        <time>2015-09-30T14:09:47Z</time>
      </trkpt>
      <trkpt lat="43.43692" lon="6.03154">
        <ele>267.79998779297</ele>
        <time>2015-09-30T14:09:50Z</time>
      </trkpt>
      <trkpt lat="43.43693" lon="6.03162">
        <ele>267.60000610352</ele>
        <time>2015-09-30T14:09:52Z</time>
      </trkpt>
      <trkpt lat="43.43692" lon="6.03173">
        <ele>267.20001220703</ele>
        <time>2015-09-30T14:09:55Z</time>
      </trkpt>
      <trkpt lat="43.43694" lon="6.03183">
        <ele>267.39999389648</ele>
        <time>2015-09-30T14:09:59Z</time>
      </trkpt>
      <trkpt lat="43.43694" lon="6.03193">
        <ele>267.39999389648</ele>
        <time>2015-09-30T14:10:03Z</time>
      </trkpt>
      <trkpt lat="43.43688" lon="6.03211">
        <ele>266.60000610352</ele>
        <time>2015-09-30T14:10:08Z</time>
      </trkpt>
      <trkpt lat="43.43687" lon="6.03214">
        <ele>266.60000610352</ele>
        <time>2015-09-30T14:10:09Z</time>
      </trkpt>
      <trkpt lat="43.43687" lon="6.03227">
        <ele>266.20001220703</ele>
        <time>2015-09-30T14:10:14Z</time>
      </trkpt>
      <trkpt lat="43.43689" lon="6.03249">
        <ele>266.39999389648</ele>
        <time>2015-09-30T14:10:20Z</time>
      </trkpt>
      <trkpt lat="43.43684" lon="6.03276">
        <ele>266.20001220703</ele>
        <time>2015-09-30T14:10:26Z</time>
      </trkpt>
      <trkpt lat="43.43677" lon="6.03291">
        <ele>266.39999389648</ele>
        <time>2015-09-30T14:10:30Z</time>
      </trkpt>
      <trkpt lat="43.43675" lon="6.03294">
        <ele>266</ele>
        <time>2015-09-30T14:10:31Z</time>
      </trkpt>
      <trkpt lat="43.43673" lon="6.03296">
        <ele>265.39999389648</ele>
        <time>2015-09-30T14:10:32Z</time>
      </trkpt>
      <trkpt lat="43.43666" lon="6.03307">
        <ele>265</ele>
        <time>2015-09-30T14:10:37Z</time>
      </trkpt>
      <trkpt lat="43.43666" lon="6.03313">
        <ele>264.60000610352</ele>
        <time>2015-09-30T14:10:43Z</time>
      </trkpt>
      <trkpt lat="43.43665" lon="6.03323">
        <ele>264.79998779297</ele>
        <time>2015-09-30T14:10:49Z</time>
      </trkpt>
      <trkpt lat="43.43659" lon="6.03335">
        <ele>265.60000610352</ele>
        <time>2015-09-30T14:10:54Z</time>
      </trkpt>
      <trkpt lat="43.4365" lon="6.03352">
        <ele>265.79998779297</ele>
        <time>2015-09-30T14:11:00Z</time>
      </trkpt>
      <trkpt lat="43.43639" lon="6.03375">
        <ele>266.20001220703</ele>
        <time>2015-09-30T14:11:06Z</time>
      </trkpt>
      <trkpt lat="43.43628" lon="6.03393">
        <ele>266.39999389648</ele>
        <time>2015-09-30T14:11:11Z</time>
      </trkpt>
      <trkpt lat="43.43628" lon="6.03409">
        <ele>266.20001220703</ele>
        <time>2015-09-30T14:11:15Z</time>
      </trkpt>
      <trkpt lat="43.43628" lon="6.03416">
        <ele>266.39999389648</ele>
        <time>2015-09-30T14:11:17Z</time>
      </trkpt>
      <trkpt lat="43.43629" lon="6.03432">
        <ele>266.60000610352</ele>
        <time>2015-09-30T14:11:21Z</time>
      </trkpt>
      <trkpt lat="43.43627" lon="6.03453">
        <ele>265.79998779297</ele>
        <time>2015-09-30T14:11:26Z</time>
      </trkpt>
      <trkpt lat="43.43626" lon="6.03457">
        <ele>265.39999389648</ele>
        <time>2015-09-30T14:11:27Z</time>
      </trkpt>
      <trkpt lat="43.43622" lon="6.03469">
        <ele>265.60000610352</ele>
        <time>2015-09-30T14:11:32Z</time>
      </trkpt>
      <trkpt lat="43.43618" lon="6.0348">
        <ele>265.20001220703</ele>
        <time>2015-09-30T14:11:36Z</time>
      </trkpt>
      <trkpt lat="43.43616" lon="6.03484">
        <ele>265</ele>
        <time>2015-09-30T14:11:38Z</time>
      </trkpt>
      <trkpt lat="43.43616" lon="6.03485">
        <ele>264.79998779297</ele>
        <time>2015-09-30T14:11:39Z</time>
      </trkpt>
      <trkpt lat="43.43614" lon="6.03499">
        <ele>264.39999389648</ele>
        <time>2015-09-30T14:11:44Z</time>
      </trkpt>
      <trkpt lat="43.43609" lon="6.03522">
        <ele>264</ele>
        <time>2015-09-30T14:11:50Z</time>
      </trkpt>
      <trkpt lat="43.43599" lon="6.03548">
        <ele>264</ele>
        <time>2015-09-30T14:11:56Z</time>
      </trkpt>
      <trkpt lat="43.43588" lon="6.03573">
        <ele>263.20001220703</ele>
        <time>2015-09-30T14:12:03Z</time>
      </trkpt>
      <trkpt lat="43.43585" lon="6.03594">
        <ele>263.60000610352</ele>
        <time>2015-09-30T14:12:08Z</time>
      </trkpt>
      <trkpt lat="43.43586" lon="6.03617">
        <ele>263.79998779297</ele>
        <time>2015-09-30T14:12:14Z</time>
      </trkpt>
      <trkpt lat="43.43583" lon="6.03641">
        <ele>263.39999389648</ele>
        <time>2015-09-30T14:12:20Z</time>
      </trkpt>
      <trkpt lat="43.43576" lon="6.0366">
        <ele>263.79998779297</ele>
        <time>2015-09-30T14:12:26Z</time>
      </trkpt>
      <trkpt lat="43.43574" lon="6.03664">
        <ele>264.60000610352</ele>
        <time>2015-09-30T14:12:28Z</time>
      </trkpt>
      <trkpt lat="43.43574" lon="6.03669">
        <ele>264.39999389648</ele>
        <time>2015-09-30T14:12:30Z</time>
      </trkpt>
      <trkpt lat="43.43575" lon="6.03682">
        <ele>263.79998779297</ele>
        <time>2015-09-30T14:12:34Z</time>
      </trkpt>
      <trkpt lat="43.43573" lon="6.03695">
        <ele>264</ele>
        <time>2015-09-30T14:12:37Z</time>
      </trkpt>
      <trkpt lat="43.43573" lon="6.03711">
        <ele>264.20001220703</ele>
        <time>2015-09-30T14:12:41Z</time>
      </trkpt>
      <trkpt lat="43.43573" lon="6.03733">
        <ele>264</ele>
        <time>2015-09-30T14:12:47Z</time>
      </trkpt>
      <trkpt lat="43.43573" lon="6.03752">
        <ele>265</ele>
        <time>2015-09-30T14:12:51Z</time>
      </trkpt>
      <trkpt lat="43.43573" lon="6.03757">
        <ele>265.60000610352</ele>
        <time>2015-09-30T14:12:52Z</time>
      </trkpt>
      <trkpt lat="43.43572" lon="6.03763">
        <ele>265.79998779297</ele>
        <time>2015-09-30T14:12:53Z</time>
      </trkpt>
      <trkpt lat="43.43571" lon="6.03774">
        <ele>266.20001220703</ele>
        <time>2015-09-30T14:12:57Z</time>
      </trkpt>
      <trkpt lat="43.43571" lon="6.03778">
        <ele>266.60000610352</ele>
        <time>2015-09-30T14:12:59Z</time>
      </trkpt>
      <trkpt lat="43.43571" lon="6.0378">
        <ele>266.60000610352</ele>
        <time>2015-09-30T14:13:03Z</time>
      </trkpt>
      <trkpt lat="43.43571" lon="6.0378">
        <ele>266</ele>
        <time>2015-09-30T14:13:16Z</time>
      </trkpt>
      <trkpt lat="43.43571" lon="6.03781">
        <ele>266.79998779297</ele>
        <time>2015-09-30T14:13:33Z</time>
      </trkpt>
      <trkpt lat="43.43571" lon="6.03781">
        <ele>266.60000610352</ele>
        <time>2015-09-30T14:13:51Z</time>
      </trkpt>
      <trkpt lat="43.43572" lon="6.03781">
        <ele>266.60000610352</ele>
        <time>2015-09-30T14:14:03Z</time>
      </trkpt>
      <trkpt lat="43.43572" lon="6.03781">
        <ele>266.39999389648</ele>
        <time>2015-09-30T14:14:08Z</time>
      </trkpt>
      <trkpt lat="43.43572" lon="6.03781">
        <ele>266.60000610352</ele>
        <time>2015-09-30T14:14:12Z</time>
      </trkpt>
      <trkpt lat="43.43572" lon="6.03781">
        <ele>266.79998779297</ele>
        <time>2015-09-30T14:14:42Z</time>
      </trkpt>
      <trkpt lat="43.43572" lon="6.03782">
        <ele>267</ele>
        <time>2015-09-30T14:15:05Z</time>
      </trkpt>
      <trkpt lat="43.43572" lon="6.03782">
        <ele>267</ele>
        <time>2015-09-30T14:15:11Z</time>
      </trkpt>
      <trkpt lat="43.43572" lon="6.03782">
        <ele>267.20001220703</ele>
        <time>2015-09-30T14:15:18Z</time>
      </trkpt>
      <trkpt lat="43.43575" lon="6.0379">
        <ele>267.20001220703</ele>
        <time>2015-09-30T14:15:27Z</time>
      </trkpt>
      <trkpt lat="43.43577" lon="6.03795">
        <ele>266.60000610352</ele>
        <time>2015-09-30T14:15:32Z</time>
      </trkpt>
      <trkpt lat="43.43581" lon="6.03805">
        <ele>266.60000610352</ele>
        <time>2015-09-30T14:15:38Z</time>
      </trkpt>
      <trkpt lat="43.43587" lon="6.03826">
        <ele>266.39999389648</ele>
        <time>2015-09-30T14:15:43Z</time>
      </trkpt>
      <trkpt lat="43.43589" lon="6.03857">
        <ele>266.20001220703</ele>
        <time>2015-09-30T14:15:48Z</time>
      </trkpt>
      <trkpt lat="43.4359" lon="6.03871">
        <ele>265.20001220703</ele>
        <time>2015-09-30T14:15:50Z</time>
      </trkpt>
      <trkpt lat="43.4359" lon="6.03887">
        <ele>264.60000610352</ele>
        <time>2015-09-30T14:15:52Z</time>
      </trkpt>
      <trkpt lat="43.4359" lon="6.03895">
        <ele>264.20001220703</ele>
        <time>2015-09-30T14:15:53Z</time>
      </trkpt>
      <trkpt lat="43.43592" lon="6.03902">
        <ele>263.60000610352</ele>
        <time>2015-09-30T14:15:54Z</time>
      </trkpt>
      <trkpt lat="43.43596" lon="6.03917">
        <ele>263</ele>
        <time>2015-09-30T14:15:56Z</time>
      </trkpt>
      <trkpt lat="43.43603" lon="6.03936">
        <ele>262.39999389648</ele>
        <time>2015-09-30T14:15:59Z</time>
      </trkpt>
      <trkpt lat="43.43605" lon="6.03943">
        <ele>262</ele>
        <time>2015-09-30T14:16:00Z</time>
      </trkpt>
      <trkpt lat="43.43607" lon="6.03958">
        <ele>262.20001220703</ele>
        <time>2015-09-30T14:16:02Z</time>
      </trkpt>
      <trkpt lat="43.43607" lon="6.03966">
        <ele>262.79998779297</ele>
        <time>2015-09-30T14:16:03Z</time>
      </trkpt>
      <trkpt lat="43.43607" lon="6.03975">
        <ele>263.79998779297</ele>
        <time>2015-09-30T14:16:05Z</time>
      </trkpt>
      <trkpt lat="43.43606" lon="6.03978">
        <ele>264.39999389648</ele>
        <time>2015-09-30T14:16:06Z</time>
      </trkpt>
      <trkpt lat="43.43606" lon="6.03982">
        <ele>264.79998779297</ele>
        <time>2015-09-30T14:16:07Z</time>
      </trkpt>
      <trkpt lat="43.43605" lon="6.03986">
        <ele>265</ele>
        <time>2015-09-30T14:16:08Z</time>
      </trkpt>
      <trkpt lat="43.43604" lon="6.0399">
        <ele>265.39999389648</ele>
        <time>2015-09-30T14:16:09Z</time>
      </trkpt>
      <trkpt lat="43.43603" lon="6.03996">
        <ele>266</ele>
        <time>2015-09-30T14:16:11Z</time>
      </trkpt>
      <trkpt lat="43.43601" lon="6.04004">
        <ele>265.79998779297</ele>
        <time>2015-09-30T14:16:13Z</time>
      </trkpt>
      <trkpt lat="43.43598" lon="6.04015">
        <ele>264.79998779297</ele>
        <time>2015-09-30T14:16:15Z</time>
      </trkpt>
      <trkpt lat="43.43596" lon="6.0402">
        <ele>264.60000610352</ele>
        <time>2015-09-30T14:16:16Z</time>
      </trkpt>
      <trkpt lat="43.43591" lon="6.04029">
        <ele>264.60000610352</ele>
        <time>2015-09-30T14:16:18Z</time>
      </trkpt>
      <trkpt lat="43.43582" lon="6.04044">
        <ele>263.60000610352</ele>
        <time>2015-09-30T14:16:21Z</time>
      </trkpt>
      <trkpt lat="43.43573" lon="6.04062">
        <ele>262</ele>
        <time>2015-09-30T14:16:24Z</time>
      </trkpt>
      <trkpt lat="43.43568" lon="6.04067">
        <ele>261.60000610352</ele>
        <time>2015-09-30T14:16:25Z</time>
      </trkpt>
      <trkpt lat="43.43566" lon="6.0408">
        <ele>261.79998779297</ele>
        <time>2015-09-30T14:16:27Z</time>
      </trkpt>
      <trkpt lat="43.43562" lon="6.04092">
        <ele>261.60000610352</ele>
        <time>2015-09-30T14:16:29Z</time>
      </trkpt>
      <trkpt lat="43.43555" lon="6.04112">
        <ele>261.20001220703</ele>
        <time>2015-09-30T14:16:33Z</time>
      </trkpt>
      <trkpt lat="43.43551" lon="6.04123">
        <ele>260.79998779297</ele>
        <time>2015-09-30T14:16:36Z</time>
      </trkpt>
      <trkpt lat="43.4355" lon="6.04126">
        <ele>261.20001220703</ele>
        <time>2015-09-30T14:16:37Z</time>
      </trkpt>
      <trkpt lat="43.43544" lon="6.04141">
        <ele>261</ele>
        <time>2015-09-30T14:16:42Z</time>
      </trkpt>
      <trkpt lat="43.4354" lon="6.04148">
        <ele>261.20001220703</ele>
        <time>2015-09-30T14:16:44Z</time>
      </trkpt>
      <trkpt lat="43.43537" lon="6.04173">
        <ele>261</ele>
        <time>2015-09-30T14:16:49Z</time>
      </trkpt>
      <trkpt lat="43.43542" lon="6.04196">
        <ele>260</ele>
        <time>2015-09-30T14:16:53Z</time>
      </trkpt>
      <trkpt lat="43.43542" lon="6.04202">
        <ele>260</ele>
        <time>2015-09-30T14:16:54Z</time>
      </trkpt>
      <trkpt lat="43.43541" lon="6.04216">
        <ele>259.60000610352</ele>
        <time>2015-09-30T14:16:56Z</time>
      </trkpt>
      <trkpt lat="43.43536" lon="6.04226">
        <ele>258.79998779297</ele>
        <time>2015-09-30T14:16:58Z</time>
      </trkpt>
      <trkpt lat="43.43522" lon="6.04243">
        <ele>258.79998779297</ele>
        <time>2015-09-30T14:17:03Z</time>
      </trkpt>
      <trkpt lat="43.43519" lon="6.04245">
        <ele>258.60000610352</ele>
        <time>2015-09-30T14:17:04Z</time>
      </trkpt>
      <trkpt lat="43.43506" lon="6.04263">
        <ele>259.60000610352</ele>
        <time>2015-09-30T14:17:10Z</time>
      </trkpt>
      <trkpt lat="43.43499" lon="6.04285">
        <ele>259.79998779297</ele>
        <time>2015-09-30T14:17:16Z</time>
      </trkpt>
      <trkpt lat="43.43495" lon="6.04313">
        <ele>260</ele>
        <time>2015-09-30T14:17:23Z</time>
      </trkpt>
      <trkpt lat="43.43494" lon="6.04332">
        <ele>260.60000610352</ele>
        <time>2015-09-30T14:17:28Z</time>
      </trkpt>
      <trkpt lat="43.43493" lon="6.04346">
        <ele>260.79998779297</ele>
        <time>2015-09-30T14:17:31Z</time>
      </trkpt>
      <trkpt lat="43.43491" lon="6.04366">
        <ele>260.79998779297</ele>
        <time>2015-09-30T14:17:35Z</time>
      </trkpt>
      <trkpt lat="43.43489" lon="6.04381">
        <ele>260.20001220703</ele>
        <time>2015-09-30T14:17:38Z</time>
      </trkpt>
      <trkpt lat="43.43488" lon="6.04413">
        <ele>260.60000610352</ele>
        <time>2015-09-30T14:17:45Z</time>
      </trkpt>
      <trkpt lat="43.43484" lon="6.04436">
        <ele>259.79998779297</ele>
        <time>2015-09-30T14:17:50Z</time>
      </trkpt>
      <trkpt lat="43.43488" lon="6.04458">
        <ele>260.20001220703</ele>
        <time>2015-09-30T14:17:55Z</time>
      </trkpt>
      <trkpt lat="43.43491" lon="6.04491">
        <ele>260</ele>
        <time>2015-09-30T14:18:03Z</time>
      </trkpt>
      <trkpt lat="43.43486" lon="6.04517">
        <ele>259.60000610352</ele>
        <time>2015-09-30T14:18:09Z</time>
      </trkpt>
      <trkpt lat="43.43476" lon="6.0454">
        <ele>259.79998779297</ele>
        <time>2015-09-30T14:18:16Z</time>
      </trkpt>
      <trkpt lat="43.43473" lon="6.04546">
        <ele>260</ele>
        <time>2015-09-30T14:18:18Z</time>
      </trkpt>
      <trkpt lat="43.43472" lon="6.04554">
        <ele>260</ele>
        <time>2015-09-30T14:18:21Z</time>
      </trkpt>
      <trkpt lat="43.43465" lon="6.04579">
        <ele>259.79998779297</ele>
        <time>2015-09-30T14:18:30Z</time>
      </trkpt>
      <trkpt lat="43.43462" lon="6.04599">
        <ele>259.39999389648</ele>
        <time>2015-09-30T14:18:36Z</time>
      </trkpt>
      <trkpt lat="43.43459" lon="6.04619">
        <ele>259.39999389648</ele>
        <time>2015-09-30T14:18:41Z</time>
      </trkpt>
      <trkpt lat="43.43458" lon="6.04628">
        <ele>259.20001220703</ele>
        <time>2015-09-30T14:18:43Z</time>
      </trkpt>
      <trkpt lat="43.43454" lon="6.04649">
        <ele>258.20001220703</ele>
        <time>2015-09-30T14:18:48Z</time>
      </trkpt>
      <trkpt lat="43.43453" lon="6.04653">
        <ele>258.20001220703</ele>
        <time>2015-09-30T14:18:49Z</time>
      </trkpt>
      <trkpt lat="43.43446" lon="6.04679">
        <ele>257.79998779297</ele>
        <time>2015-09-30T14:18:55Z</time>
      </trkpt>
      <trkpt lat="43.43442" lon="6.04707">
        <ele>258.20001220703</ele>
        <time>2015-09-30T14:19:03Z</time>
      </trkpt>
      <trkpt lat="43.43442" lon="6.0473">
        <ele>258</ele>
        <time>2015-09-30T14:19:09Z</time>
      </trkpt>
      <trkpt lat="43.4344" lon="6.04753">
        <ele>258</ele>
        <time>2015-09-30T14:19:15Z</time>
      </trkpt>
      <trkpt lat="43.43439" lon="6.04758">
        <ele>257.79998779297</ele>
        <time>2015-09-30T14:19:16Z</time>
      </trkpt>
      <trkpt lat="43.43436" lon="6.04783">
        <ele>257</ele>
        <time>2015-09-30T14:19:21Z</time>
      </trkpt>
      <trkpt lat="43.43435" lon="6.04788">
        <ele>257</ele>
        <time>2015-09-30T14:19:22Z</time>
      </trkpt>
      <trkpt lat="43.43433" lon="6.04822">
        <ele>257</ele>
        <time>2015-09-30T14:19:28Z</time>
      </trkpt>
      <trkpt lat="43.43433" lon="6.0486">
        <ele>256.60000610352</ele>
        <time>2015-09-30T14:19:34Z</time>
      </trkpt>
      <trkpt lat="43.43433" lon="6.04869">
        <ele>256.39999389648</ele>
        <time>2015-09-30T14:19:35Z</time>
      </trkpt>
      <trkpt lat="43.43433" lon="6.04885">
        <ele>256</ele>
        <time>2015-09-30T14:19:37Z</time>
      </trkpt>
      <trkpt lat="43.43431" lon="6.04903">
        <ele>255.60000610352</ele>
        <time>2015-09-30T14:19:39Z</time>
      </trkpt>
      <trkpt lat="43.4343" lon="6.04916">
        <ele>255</ele>
        <time>2015-09-30T14:19:41Z</time>
      </trkpt>
      <trkpt lat="43.43428" lon="6.04945">
        <ele>255</ele>
        <time>2015-09-30T14:19:46Z</time>
      </trkpt>
      <trkpt lat="43.43427" lon="6.0497">
        <ele>255</ele>
        <time>2015-09-30T14:19:50Z</time>
      </trkpt>
      <trkpt lat="43.43425" lon="6.04982">
        <ele>255.39999389648</ele>
        <time>2015-09-30T14:19:52Z</time>
      </trkpt>
      <trkpt lat="43.43418" lon="6.05016">
        <ele>256</ele>
        <time>2015-09-30T14:19:58Z</time>
      </trkpt>
      <trkpt lat="43.43417" lon="6.05027">
        <ele>256.39999389648</ele>
        <time>2015-09-30T14:20:00Z</time>
      </trkpt>
      <trkpt lat="43.43414" lon="6.05044">
        <ele>257</ele>
        <time>2015-09-30T14:20:03Z</time>
      </trkpt>
      <trkpt lat="43.43412" lon="6.05058">
        <ele>257.20001220703</ele>
        <time>2015-09-30T14:20:06Z</time>
      </trkpt>
      <trkpt lat="43.43409" lon="6.05067">
        <ele>258.20001220703</ele>
        <time>2015-09-30T14:20:08Z</time>
      </trkpt>
      <trkpt lat="43.43405" lon="6.05088">
        <ele>259.20001220703</ele>
        <time>2015-09-30T14:20:14Z</time>
      </trkpt>
      <trkpt lat="43.43404" lon="6.05096">
        <ele>259.39999389648</ele>
        <time>2015-09-30T14:20:17Z</time>
      </trkpt>
      <trkpt lat="43.43401" lon="6.05103">
        <ele>259.39999389648</ele>
        <time>2015-09-30T14:20:21Z</time>
      </trkpt>
      <trkpt lat="43.43401" lon="6.05103">
        <ele>259.39999389648</ele>
        <time>2015-09-30T14:20:23Z</time>
      </trkpt>
      <trkpt lat="43.43401" lon="6.05103">
        <ele>259</ele>
        <time>2015-09-30T14:20:29Z</time>
      </trkpt>
      <trkpt lat="43.43401" lon="6.05103">
        <ele>259.20001220703</ele>
        <time>2015-09-30T14:20:33Z</time>
      </trkpt>
      <trkpt lat="43.43401" lon="6.05103">
        <ele>259.39999389648</ele>
        <time>2015-09-30T14:20:42Z</time>
      </trkpt>
      <trkpt lat="43.43401" lon="6.05103">
        <ele>259.60000610352</ele>
        <time>2015-09-30T14:21:02Z</time>
      </trkpt>
      <trkpt lat="43.43401" lon="6.05103">
        <ele>259.20001220703</ele>
        <time>2015-09-30T14:21:26Z</time>
      </trkpt>
      <trkpt lat="43.43401" lon="6.05103">
        <ele>259.79998779297</ele>
        <time>2015-09-30T14:21:33Z</time>
      </trkpt>
      <trkpt lat="43.43402" lon="6.05103">
        <ele>259</ele>
        <time>2015-09-30T14:21:39Z</time>
      </trkpt>
      <trkpt lat="43.43402" lon="6.05103">
        <ele>258.79998779297</ele>
        <time>2015-09-30T14:21:44Z</time>
      </trkpt>
      <trkpt lat="43.43402" lon="6.05103">
        <ele>258.60000610352</ele>
        <time>2015-09-30T14:22:18Z</time>
      </trkpt>
      <trkpt lat="43.434" lon="6.05105">
        <ele>259.39999389648</ele>
        <time>2015-09-30T14:22:33Z</time>
      </trkpt>
      <trkpt lat="43.43398" lon="6.05112">
        <ele>259.20001220703</ele>
        <time>2015-09-30T14:22:37Z</time>
      </trkpt>
      <trkpt lat="43.43396" lon="6.05119">
        <ele>259.39999389648</ele>
        <time>2015-09-30T14:22:39Z</time>
      </trkpt>
      <trkpt lat="43.4339" lon="6.05138">
        <ele>259.20001220703</ele>
        <time>2015-09-30T14:22:45Z</time>
      </trkpt>
      <trkpt lat="43.4339" lon="6.0514">
        <ele>259</ele>
        <time>2015-09-30T14:22:46Z</time>
      </trkpt>
      <trkpt lat="43.43388" lon="6.05145">
        <ele>259</ele>
        <time>2015-09-30T14:22:49Z</time>
      </trkpt>
      <trkpt lat="43.43384" lon="6.05154">
        <ele>258.39999389648</ele>
        <time>2015-09-30T14:22:53Z</time>
      </trkpt>
      <trkpt lat="43.43378" lon="6.05174">
        <ele>257.20001220703</ele>
        <time>2015-09-30T14:22:59Z</time>
      </trkpt>
      <trkpt lat="43.43367" lon="6.05206">
        <ele>257.20001220703</ele>
        <time>2015-09-30T14:23:05Z</time>
      </trkpt>
      <trkpt lat="43.43362" lon="6.05218">
        <ele>256.60000610352</ele>
        <time>2015-09-30T14:23:07Z</time>
      </trkpt>
      <trkpt lat="43.43359" lon="6.05228">
        <ele>256.60000610352</ele>
        <time>2015-09-30T14:23:09Z</time>
      </trkpt>
      <trkpt lat="43.43357" lon="6.05233">
        <ele>256.39999389648</ele>
        <time>2015-09-30T14:23:11Z</time>
      </trkpt>
      <trkpt lat="43.43352" lon="6.05245">
        <ele>255.60000610352</ele>
        <time>2015-09-30T14:23:16Z</time>
      </trkpt>
      <trkpt lat="43.43347" lon="6.05258">
        <ele>256.39999389648</ele>
        <time>2015-09-30T14:23:21Z</time>
      </trkpt>
      <trkpt lat="43.43341" lon="6.05273">
        <ele>256.60000610352</ele>
        <time>2015-09-30T14:23:25Z</time>
      </trkpt>
      <trkpt lat="43.43333" lon="6.05289">
        <ele>256.39999389648</ele>
        <time>2015-09-30T14:23:29Z</time>
      </trkpt>
      <trkpt lat="43.4333" lon="6.05297">
        <ele>256.39999389648</ele>
        <time>2015-09-30T14:23:31Z</time>
      </trkpt>
      <trkpt lat="43.43325" lon="6.05311">
        <ele>257.20001220703</ele>
        <time>2015-09-30T14:23:35Z</time>
      </trkpt>
      <trkpt lat="43.43322" lon="6.0532">
        <ele>257.20001220703</ele>
        <time>2015-09-30T14:23:38Z</time>
      </trkpt>
      <trkpt lat="43.43316" lon="6.05335">
        <ele>257.39999389648</ele>
        <time>2015-09-30T14:23:43Z</time>
      </trkpt>
      <trkpt lat="43.43314" lon="6.05339">
        <ele>257.60000610352</ele>
        <time>2015-09-30T14:23:44Z</time>
      </trkpt>
      <trkpt lat="43.43304" lon="6.05359">
        <ele>257.39999389648</ele>
        <time>2015-09-30T14:23:50Z</time>
      </trkpt>
      <trkpt lat="43.43295" lon="6.05372">
        <ele>256.39999389648</ele>
        <time>2015-09-30T14:23:54Z</time>
      </trkpt>
      <trkpt lat="43.43294" lon="6.05376">
        <ele>256.20001220703</ele>
        <time>2015-09-30T14:23:55Z</time>
      </trkpt>
      <trkpt lat="43.43292" lon="6.05386">
        <ele>256.60000610352</ele>
        <time>2015-09-30T14:23:59Z</time>
      </trkpt>
      <trkpt lat="43.43288" lon="6.05396">
        <ele>256.60000610352</ele>
        <time>2015-09-30T14:24:02Z</time>
      </trkpt>
      <trkpt lat="43.43285" lon="6.05403">
        <ele>256.79998779297</ele>
        <time>2015-09-30T14:24:04Z</time>
      </trkpt>
      <trkpt lat="43.43277" lon="6.05424">
        <ele>256.79998779297</ele>
        <time>2015-09-30T14:24:10Z</time>
      </trkpt>
      <trkpt lat="43.43271" lon="6.05443">
        <ele>257.60000610352</ele>
        <time>2015-09-30T14:24:15Z</time>
      </trkpt>
      <trkpt lat="43.43263" lon="6.05461">
        <ele>258.20001220703</ele>
        <time>2015-09-30T14:24:20Z</time>
      </trkpt>
      <trkpt lat="43.43261" lon="6.05464">
        <ele>258.20001220703</ele>
        <time>2015-09-30T14:24:21Z</time>
      </trkpt>
      <trkpt lat="43.43256" lon="6.05477">
        <ele>259</ele>
        <time>2015-09-30T14:24:25Z</time>
      </trkpt>
      <trkpt lat="43.43253" lon="6.05487">
        <ele>259.79998779297</ele>
        <time>2015-09-30T14:24:28Z</time>
      </trkpt>
      <trkpt lat="43.43251" lon="6.055">
        <ele>260.39999389648</ele>
        <time>2015-09-30T14:24:32Z</time>
      </trkpt>
      <trkpt lat="43.43248" lon="6.05509">
        <ele>260.79998779297</ele>
        <time>2015-09-30T14:24:35Z</time>
      </trkpt>
      <trkpt lat="43.43246" lon="6.05515">
        <ele>261.39999389648</ele>
        <time>2015-09-30T14:24:37Z</time>
      </trkpt>
      <trkpt lat="43.43244" lon="6.05525">
        <ele>262</ele>
        <time>2015-09-30T14:24:41Z</time>
      </trkpt>
      <trkpt lat="43.43243" lon="6.05527">
        <ele>262.20001220703</ele>
        <time>2015-09-30T14:24:42Z</time>
      </trkpt>
      <trkpt lat="43.43238" lon="6.05544">
        <ele>262.79998779297</ele>
        <time>2015-09-30T14:24:49Z</time>
      </trkpt>
      <trkpt lat="43.43238" lon="6.05546">
        <ele>262.79998779297</ele>
        <time>2015-09-30T14:24:50Z</time>
      </trkpt>
      <trkpt lat="43.43232" lon="6.0557">
        <ele>262.79998779297</ele>
        <time>2015-09-30T14:24:59Z</time>
      </trkpt>
      <trkpt lat="43.43229" lon="6.05596">
        <ele>263</ele>
        <time>2015-09-30T14:25:06Z</time>
      </trkpt>
      <trkpt lat="43.43226" lon="6.05619">
        <ele>264</ele>
        <time>2015-09-30T14:25:11Z</time>
      </trkpt>
      <trkpt lat="43.43221" lon="6.05663">
        <ele>264.60000610352</ele>
        <time>2015-09-30T14:25:22Z</time>
      </trkpt>
      <trkpt lat="43.43219" lon="6.05692">
        <ele>264.39999389648</ele>
        <time>2015-09-30T14:25:29Z</time>
      </trkpt>
      <trkpt lat="43.43218" lon="6.05705">
        <ele>265</ele>
        <time>2015-09-30T14:25:32Z</time>
      </trkpt>
      <trkpt lat="43.43216" lon="6.05721">
        <ele>265.39999389648</ele>
        <time>2015-09-30T14:25:36Z</time>
      </trkpt>
      <trkpt lat="43.43212" lon="6.0576">
        <ele>265.39999389648</ele>
        <time>2015-09-30T14:25:45Z</time>
      </trkpt>
      <trkpt lat="43.43208" lon="6.05801">
        <ele>265.20001220703</ele>
        <time>2015-09-30T14:25:53Z</time>
      </trkpt>
      <trkpt lat="43.43204" lon="6.05824">
        <ele>264.20001220703</ele>
        <time>2015-09-30T14:25:57Z</time>
      </trkpt>
      <trkpt lat="43.43204" lon="6.05829">
        <ele>264</ele>
        <time>2015-09-30T14:25:58Z</time>
      </trkpt>
      <trkpt lat="43.432" lon="6.0585">
        <ele>263.39999389648</ele>
        <time>2015-09-30T14:26:02Z</time>
      </trkpt>
      <trkpt lat="43.43196" lon="6.05869">
        <ele>262.79998779297</ele>
        <time>2015-09-30T14:26:06Z</time>
      </trkpt>
      <trkpt lat="43.43195" lon="6.05882">
        <ele>262.79998779297</ele>
        <time>2015-09-30T14:26:09Z</time>
      </trkpt>
      <trkpt lat="43.43195" lon="6.05889">
        <ele>263</ele>
        <time>2015-09-30T14:26:11Z</time>
      </trkpt>
      <trkpt lat="43.43192" lon="6.05895">
        <ele>262.79998779297</ele>
        <time>2015-09-30T14:26:13Z</time>
      </trkpt>
      <trkpt lat="43.43184" lon="6.05919">
        <ele>263</ele>
        <time>2015-09-30T14:26:19Z</time>
      </trkpt>
      <trkpt lat="43.43177" lon="6.05949">
        <ele>263.20001220703</ele>
        <time>2015-09-30T14:26:26Z</time>
      </trkpt>
      <trkpt lat="43.43172" lon="6.05979">
        <ele>263.60000610352</ele>
        <time>2015-09-30T14:26:33Z</time>
      </trkpt>
      <trkpt lat="43.43168" lon="6.05986">
        <ele>263.60000610352</ele>
        <time>2015-09-30T14:26:35Z</time>
      </trkpt>
      <trkpt lat="43.43166" lon="6.05989">
        <ele>263.79998779297</ele>
        <time>2015-09-30T14:26:36Z</time>
      </trkpt>
      <trkpt lat="43.43164" lon="6.05994">
        <ele>263.79998779297</ele>
        <time>2015-09-30T14:26:37Z</time>
      </trkpt>
      <trkpt lat="43.43156" lon="6.06044">
        <ele>264.60000610352</ele>
        <time>2015-09-30T14:26:48Z</time>
      </trkpt>
      <trkpt lat="43.43153" lon="6.06058">
        <ele>264.20001220703</ele>
        <time>2015-09-30T14:26:51Z</time>
      </trkpt>
      <trkpt lat="43.43151" lon="6.06072">
        <ele>264.60000610352</ele>
        <time>2015-09-30T14:26:54Z</time>
      </trkpt>
      <trkpt lat="43.43147" lon="6.06085">
        <ele>264.39999389648</ele>
        <time>2015-09-30T14:26:57Z</time>
      </trkpt>
      <trkpt lat="43.43142" lon="6.06105">
        <ele>264.39999389648</ele>
        <time>2015-09-30T14:27:02Z</time>
      </trkpt>
      <trkpt lat="43.43137" lon="6.06132">
        <ele>263.60000610352</ele>
        <time>2015-09-30T14:27:07Z</time>
      </trkpt>
      <trkpt lat="43.43135" lon="6.06137">
        <ele>263.39999389648</ele>
        <time>2015-09-30T14:27:08Z</time>
      </trkpt>
      <trkpt lat="43.4313" lon="6.06163">
        <ele>263.20001220703</ele>
        <time>2015-09-30T14:27:13Z</time>
      </trkpt>
      <trkpt lat="43.43126" lon="6.06189">
        <ele>263</ele>
        <time>2015-09-30T14:27:19Z</time>
      </trkpt>
      <trkpt lat="43.43125" lon="6.06218">
        <ele>263.60000610352</ele>
        <time>2015-09-30T14:27:26Z</time>
      </trkpt>
      <trkpt lat="43.43127" lon="6.06235">
        <ele>262.79998779297</ele>
        <time>2015-09-30T14:27:30Z</time>
      </trkpt>
      <trkpt lat="43.43128" lon="6.06241">
        <ele>262.60000610352</ele>
        <time>2015-09-30T14:27:31Z</time>
      </trkpt>
      <trkpt lat="43.43128" lon="6.06248">
        <ele>262.39999389648</ele>
        <time>2015-09-30T14:27:32Z</time>
      </trkpt>
      <trkpt lat="43.43126" lon="6.06261">
        <ele>261.60000610352</ele>
        <time>2015-09-30T14:27:34Z</time>
      </trkpt>
      <trkpt lat="43.43127" lon="6.06268">
        <ele>261.60000610352</ele>
        <time>2015-09-30T14:27:35Z</time>
      </trkpt>
      <trkpt lat="43.43129" lon="6.06293">
        <ele>261</ele>
        <time>2015-09-30T14:27:39Z</time>
      </trkpt>
      <trkpt lat="43.43132" lon="6.06316">
        <ele>260.60000610352</ele>
        <time>2015-09-30T14:27:43Z</time>
      </trkpt>
      <trkpt lat="43.43133" lon="6.06322">
        <ele>260.79998779297</ele>
        <time>2015-09-30T14:27:44Z</time>
      </trkpt>
      <trkpt lat="43.43133" lon="6.06333">
        <ele>260.79998779297</ele>
        <time>2015-09-30T14:27:46Z</time>
      </trkpt>
      <trkpt lat="43.43134" lon="6.0634">
        <ele>260.39999389648</ele>
        <time>2015-09-30T14:27:47Z</time>
      </trkpt>
      <trkpt lat="43.43135" lon="6.06353">
        <ele>259</ele>
        <time>2015-09-30T14:27:49Z</time>
      </trkpt>
      <trkpt lat="43.43138" lon="6.06381">
        <ele>257.39999389648</ele>
        <time>2015-09-30T14:27:53Z</time>
      </trkpt>
      <trkpt lat="43.43139" lon="6.06395">
        <ele>257.39999389648</ele>
        <time>2015-09-30T14:27:55Z</time>
      </trkpt>
      <trkpt lat="43.43145" lon="6.0644">
        <ele>256.20001220703</ele>
        <time>2015-09-30T14:28:02Z</time>
      </trkpt>
      <trkpt lat="43.43149" lon="6.06468">
        <ele>255.19999694824</ele>
        <time>2015-09-30T14:28:07Z</time>
      </trkpt>
      <trkpt lat="43.4315" lon="6.06486">
        <ele>255.60000610352</ele>
        <time>2015-09-30T14:28:12Z</time>
      </trkpt>
      <trkpt lat="43.43151" lon="6.06487">
        <ele>255.80000305176</ele>
        <time>2015-09-30T14:28:16Z</time>
      </trkpt>
      <trkpt lat="43.43151" lon="6.06487">
        <ele>255.19999694824</ele>
        <time>2015-09-30T14:28:23Z</time>
      </trkpt>
      <trkpt lat="43.43151" lon="6.06487">
        <ele>255</ele>
        <time>2015-09-30T14:28:24Z</time>
      </trkpt>
      <trkpt lat="43.43151" lon="6.06487">
        <ele>255.19999694824</ele>
        <time>2015-09-30T14:28:27Z</time>
      </trkpt>
      <trkpt lat="43.4315" lon="6.06488">
        <ele>255.19999694824</ele>
        <time>2015-09-30T14:28:42Z</time>
      </trkpt>
      <trkpt lat="43.4315" lon="6.06488">
        <ele>255.80000305176</ele>
        <time>2015-09-30T14:28:57Z</time>
      </trkpt>
      <trkpt lat="43.43151" lon="6.0649">
        <ele>255.19999694824</ele>
        <time>2015-09-30T14:29:12Z</time>
      </trkpt>
      <trkpt lat="43.43151" lon="6.0649">
        <ele>255.60000610352</ele>
        <time>2015-09-30T14:29:29Z</time>
      </trkpt>
      <trkpt lat="43.4315" lon="6.0649">
        <ele>255.80000305176</ele>
        <time>2015-09-30T14:29:49Z</time>
      </trkpt>
      <trkpt lat="43.4315" lon="6.0649">
        <ele>255.39999389648</ele>
        <time>2015-09-30T14:30:00Z</time>
      </trkpt>
      <trkpt lat="43.43151" lon="6.0649">
        <ele>256</ele>
        <time>2015-09-30T14:30:06Z</time>
      </trkpt>
      <trkpt lat="43.4315" lon="6.0649">
        <ele>256</ele>
        <time>2015-09-30T14:30:15Z</time>
      </trkpt>
      <trkpt lat="43.4315" lon="6.0649">
        <ele>255.80000305176</ele>
        <time>2015-09-30T14:30:35Z</time>
      </trkpt>
      <trkpt lat="43.4315" lon="6.0649">
        <ele>256.20001220703</ele>
        <time>2015-09-30T14:30:46Z</time>
      </trkpt>
      <trkpt lat="43.4315" lon="6.0649">
        <ele>256.39999389648</ele>
        <time>2015-09-30T14:30:49Z</time>
      </trkpt>
      <trkpt lat="43.43148" lon="6.06489">
        <ele>256.20001220703</ele>
        <time>2015-09-30T14:30:51Z</time>
      </trkpt>
      <trkpt lat="43.43145" lon="6.06488">
        <ele>256.20001220703</ele>
        <time>2015-09-30T14:30:53Z</time>
      </trkpt>
      <trkpt lat="43.43143" lon="6.06488">
        <ele>256</ele>
        <time>2015-09-30T14:30:54Z</time>
      </trkpt>
      <trkpt lat="43.43139" lon="6.06488">
        <ele>256.60000610352</ele>
        <time>2015-09-30T14:30:56Z</time>
      </trkpt>
      <trkpt lat="43.43135" lon="6.06486">
        <ele>257</ele>
        <time>2015-09-30T14:30:58Z</time>
      </trkpt>
      <trkpt lat="43.43132" lon="6.06486">
        <ele>257.39999389648</ele>
        <time>2015-09-30T14:30:59Z</time>
      </trkpt>
      <trkpt lat="43.43128" lon="6.06486">
        <ele>258</ele>
        <time>2015-09-30T14:31:01Z</time>
      </trkpt>
      <trkpt lat="43.43126" lon="6.06485">
        <ele>258.79998779297</ele>
        <time>2015-09-30T14:31:02Z</time>
      </trkpt>
      <trkpt lat="43.43123" lon="6.06484">
        <ele>259.39999389648</ele>
        <time>2015-09-30T14:31:04Z</time>
      </trkpt>
      <trkpt lat="43.43122" lon="6.06483">
        <ele>259.39999389648</ele>
        <time>2015-09-30T14:31:05Z</time>
      </trkpt>
      <trkpt lat="43.43123" lon="6.06484">
        <ele>259.60000610352</ele>
        <time>2015-09-30T14:31:08Z</time>
      </trkpt>
      <trkpt lat="43.43123" lon="6.06484">
        <ele>259.79998779297</ele>
        <time>2015-09-30T14:31:10Z</time>
      </trkpt>
      <trkpt lat="43.43123" lon="6.06484">
        <ele>260</ele>
        <time>2015-09-30T14:31:13Z</time>
      </trkpt>
      <trkpt lat="43.43123" lon="6.06484">
        <ele>259.79998779297</ele>
        <time>2015-09-30T14:31:20Z</time>
      </trkpt>
      <trkpt lat="43.43121" lon="6.06484">
        <ele>260.39999389648</ele>
        <time>2015-09-30T14:31:29Z</time>
      </trkpt>
      <trkpt lat="43.43118" lon="6.06485">
        <ele>260.39999389648</ele>
        <time>2015-09-30T14:31:39Z</time>
      </trkpt>
      <trkpt lat="43.43116" lon="6.06485">
        <ele>260.60000610352</ele>
        <time>2015-09-30T14:31:49Z</time>
      </trkpt>
      <trkpt lat="43.43116" lon="6.06486">
        <ele>260.79998779297</ele>
        <time>2015-09-30T14:31:58Z</time>
      </trkpt>
      <trkpt lat="43.43113" lon="6.06483">
        <ele>261</ele>
        <time>2015-09-30T14:32:03Z</time>
      </trkpt>
      <trkpt lat="43.43112" lon="6.06481">
        <ele>261</ele>
        <time>2015-09-30T14:32:04Z</time>
      </trkpt>
      <trkpt lat="43.4311" lon="6.06477">
        <ele>261.60000610352</ele>
        <time>2015-09-30T14:32:07Z</time>
      </trkpt>
      <trkpt lat="43.4311" lon="6.06472">
        <ele>262</ele>
        <time>2015-09-30T14:32:10Z</time>
      </trkpt>
      <trkpt lat="43.43109" lon="6.0647">
        <ele>262.20001220703</ele>
        <time>2015-09-30T14:32:11Z</time>
      </trkpt>
      <trkpt lat="43.43107" lon="6.06468">
        <ele>262.79998779297</ele>
        <time>2015-09-30T14:32:14Z</time>
      </trkpt>
      <trkpt lat="43.43107" lon="6.06468">
        <ele>262.60000610352</ele>
        <time>2015-09-30T14:32:15Z</time>
      </trkpt>
      <trkpt lat="43.43106" lon="6.06466">
        <ele>263</ele>
        <time>2015-09-30T14:32:25Z</time>
      </trkpt>
      <trkpt lat="43.43107" lon="6.06462">
        <ele>262.60000610352</ele>
        <time>2015-09-30T14:32:33Z</time>
      </trkpt>
      <trkpt lat="43.43106" lon="6.0646">
        <ele>262.60000610352</ele>
        <time>2015-09-30T14:32:34Z</time>
      </trkpt>
      <trkpt lat="43.43103" lon="6.06451">
        <ele>263.20001220703</ele>
        <time>2015-09-30T14:32:38Z</time>
      </trkpt>
      <trkpt lat="43.43101" lon="6.06445">
        <ele>263.39999389648</ele>
        <time>2015-09-30T14:32:41Z</time>
      </trkpt>
      <trkpt lat="43.43097" lon="6.06436">
        <ele>264.60000610352</ele>
        <time>2015-09-30T14:32:45Z</time>
      </trkpt>
      <trkpt lat="43.43094" lon="6.06431">
        <ele>265.20001220703</ele>
        <time>2015-09-30T14:32:48Z</time>
      </trkpt>
      <trkpt lat="43.43092" lon="6.06427">
        <ele>265.60000610352</ele>
        <time>2015-09-30T14:32:50Z</time>
      </trkpt>
      <trkpt lat="43.43092" lon="6.06425">
        <ele>265.79998779297</ele>
        <time>2015-09-30T14:32:51Z</time>
      </trkpt>
      <trkpt lat="43.43092" lon="6.06419">
        <ele>266.20001220703</ele>
        <time>2015-09-30T14:32:54Z</time>
      </trkpt>
      <trkpt lat="43.43092" lon="6.06415">
        <ele>266</ele>
        <time>2015-09-30T14:32:56Z</time>
      </trkpt>
      <trkpt lat="43.43089" lon="6.06407">
        <ele>266</ele>
        <time>2015-09-30T14:33:01Z</time>
      </trkpt>
      <trkpt lat="43.43087" lon="6.06395">
        <ele>266.20001220703</ele>
        <time>2015-09-30T14:33:07Z</time>
      </trkpt>
      <trkpt lat="43.43085" lon="6.06389">
        <ele>266.39999389648</ele>
        <time>2015-09-30T14:33:09Z</time>
      </trkpt>
      <trkpt lat="43.43084" lon="6.06382">
        <ele>266.60000610352</ele>
        <time>2015-09-30T14:33:12Z</time>
      </trkpt>
      <trkpt lat="43.43077" lon="6.06365">
        <ele>266.60000610352</ele>
        <time>2015-09-30T14:33:18Z</time>
      </trkpt>
      <trkpt lat="43.43068" lon="6.06355">
        <ele>266.39999389648</ele>
        <time>2015-09-30T14:33:23Z</time>
      </trkpt>
      <trkpt lat="43.43049" lon="6.06348">
        <ele>267.39999389648</ele>
        <time>2015-09-30T14:33:31Z</time>
      </trkpt>
      <trkpt lat="43.43039" lon="6.0634">
        <ele>267.39999389648</ele>
        <time>2015-09-30T14:33:36Z</time>
      </trkpt>
      <trkpt lat="43.43034" lon="6.06328">
        <ele>268</ele>
        <time>2015-09-30T14:33:42Z</time>
      </trkpt>
      <trkpt lat="43.43026" lon="6.06319">
        <ele>268.20001220703</ele>
        <time>2015-09-30T14:33:49Z</time>
      </trkpt>
      <trkpt lat="43.43015" lon="6.06318">
        <ele>269.20001220703</ele>
        <time>2015-09-30T14:33:55Z</time>
      </trkpt>
      <trkpt lat="43.43005" lon="6.0632">
        <ele>269.39999389648</ele>
        <time>2015-09-30T14:34:00Z</time>
      </trkpt>
      <trkpt lat="43.42998" lon="6.0632">
        <ele>269.79998779297</ele>
        <time>2015-09-30T14:34:03Z</time>
      </trkpt>
      <trkpt lat="43.4299" lon="6.06317">
        <ele>270.39999389648</ele>
        <time>2015-09-30T14:34:07Z</time>
      </trkpt>
      <trkpt lat="43.4298" lon="6.06312">
        <ele>271.20001220703</ele>
        <time>2015-09-30T14:34:12Z</time>
      </trkpt>
      <trkpt lat="43.42978" lon="6.06312">
        <ele>271.20001220703</ele>
        <time>2015-09-30T14:34:13Z</time>
      </trkpt>
      <trkpt lat="43.42965" lon="6.06313">
        <ele>272.39999389648</ele>
        <time>2015-09-30T14:34:21Z</time>
      </trkpt>
      <trkpt lat="43.42956" lon="6.06306">
        <ele>272.20001220703</ele>
        <time>2015-09-30T14:34:26Z</time>
      </trkpt>
      <trkpt lat="43.42949" lon="6.06298">
        <ele>273.60000610352</ele>
        <time>2015-09-30T14:34:30Z</time>
      </trkpt>
      <trkpt lat="43.42944" lon="6.06291">
        <ele>274.39999389648</ele>
        <time>2015-09-30T14:34:33Z</time>
      </trkpt>
      <trkpt lat="43.42942" lon="6.06291">
        <ele>274.60000610352</ele>
        <time>2015-09-30T14:34:34Z</time>
      </trkpt>
      <trkpt lat="43.42939" lon="6.06289">
        <ele>275.20001220703</ele>
        <time>2015-09-30T14:34:37Z</time>
      </trkpt>
      <trkpt lat="43.42936" lon="6.06292">
        <ele>275.79998779297</ele>
        <time>2015-09-30T14:34:40Z</time>
      </trkpt>
      <trkpt lat="43.42935" lon="6.06293">
        <ele>276.20001220703</ele>
        <time>2015-09-30T14:34:41Z</time>
      </trkpt>
      <trkpt lat="43.42934" lon="6.06293">
        <ele>276.79998779297</ele>
        <time>2015-09-30T14:34:44Z</time>
      </trkpt>
      <trkpt lat="43.42934" lon="6.06293">
        <ele>276.39999389648</ele>
        <time>2015-09-30T14:34:55Z</time>
      </trkpt>
      <trkpt lat="43.42931" lon="6.06295">
        <ele>276.39999389648</ele>
        <time>2015-09-30T14:35:04Z</time>
      </trkpt>
      <trkpt lat="43.42931" lon="6.06296">
        <ele>276.60000610352</ele>
        <time>2015-09-30T14:35:06Z</time>
      </trkpt>
      <trkpt lat="43.4293" lon="6.06297">
        <ele>276.79998779297</ele>
        <time>2015-09-30T14:35:09Z</time>
      </trkpt>
      <trkpt lat="43.4293" lon="6.06297">
        <ele>277</ele>
        <time>2015-09-30T14:35:10Z</time>
      </trkpt>
      <trkpt lat="43.4293" lon="6.06297">
        <ele>276.79998779297</ele>
        <time>2015-09-30T14:35:13Z</time>
      </trkpt>
      <trkpt lat="43.4293" lon="6.06297">
        <ele>276.79998779297</ele>
        <time>2015-09-30T14:35:19Z</time>
      </trkpt>
      <trkpt lat="43.4293" lon="6.06297">
        <ele>276.79998779297</ele>
        <time>2015-09-30T14:35:26Z</time>
      </trkpt>
      <trkpt lat="43.4293" lon="6.06297">
        <ele>276.79998779297</ele>
        <time>2015-09-30T14:35:27Z</time>
      </trkpt>
      <trkpt lat="43.42929" lon="6.06298">
        <ele>277</ele>
        <time>2015-09-30T14:35:36Z</time>
      </trkpt>
      <trkpt lat="43.42926" lon="6.063">
        <ele>277.39999389648</ele>
        <time>2015-09-30T14:35:39Z</time>
      </trkpt>
      <trkpt lat="43.42925" lon="6.06302">
        <ele>277.60000610352</ele>
        <time>2015-09-30T14:35:40Z</time>
      </trkpt>
      <trkpt lat="43.42924" lon="6.06304">
        <ele>277.79998779297</ele>
        <time>2015-09-30T14:35:41Z</time>
      </trkpt>
      <trkpt lat="43.42921" lon="6.06309">
        <ele>279.20001220703</ele>
        <time>2015-09-30T14:35:43Z</time>
      </trkpt>
      <trkpt lat="43.4292" lon="6.0631">
        <ele>279.79998779297</ele>
        <time>2015-09-30T14:35:45Z</time>
      </trkpt>
      <trkpt lat="43.4292" lon="6.06311">
        <ele>280</ele>
        <time>2015-09-30T14:35:46Z</time>
      </trkpt>
      <trkpt lat="43.4292" lon="6.0631">
        <ele>280.20001220703</ele>
        <time>2015-09-30T14:35:47Z</time>
      </trkpt>
      <trkpt lat="43.4292" lon="6.06311">
        <ele>280.39999389648</ele>
        <time>2015-09-30T14:35:49Z</time>
      </trkpt>
      <trkpt lat="43.42919" lon="6.06311">
        <ele>280.60000610352</ele>
        <time>2015-09-30T14:35:52Z</time>
      </trkpt>
      <trkpt lat="43.42918" lon="6.06311">
        <ele>280.60000610352</ele>
        <time>2015-09-30T14:35:57Z</time>
      </trkpt>
      <trkpt lat="43.42918" lon="6.06311">
        <ele>280.39999389648</ele>
        <time>2015-09-30T14:36:00Z</time>
      </trkpt>
      <trkpt lat="43.42915" lon="6.06316">
        <ele>282</ele>
        <time>2015-09-30T14:36:15Z</time>
      </trkpt>
      <trkpt lat="43.42915" lon="6.06316">
        <ele>282.20001220703</ele>
        <time>2015-09-30T14:36:16Z</time>
      </trkpt>
      <trkpt lat="43.42915" lon="6.06316">
        <ele>282.60000610352</ele>
        <time>2015-09-30T14:36:19Z</time>
      </trkpt>
      <trkpt lat="43.42912" lon="6.06318">
        <ele>282.79998779297</ele>
        <time>2015-09-30T14:36:26Z</time>
      </trkpt>
      <trkpt lat="43.42912" lon="6.06318">
        <ele>282.79998779297</ele>
        <time>2015-09-30T14:36:32Z</time>
      </trkpt>
      <trkpt lat="43.4291" lon="6.06319">
        <ele>283.39999389648</ele>
        <time>2015-09-30T14:36:39Z</time>
      </trkpt>
      <trkpt lat="43.4291" lon="6.0632">
        <ele>283</ele>
        <time>2015-09-30T14:36:45Z</time>
      </trkpt>
      <trkpt lat="43.4291" lon="6.0632">
        <ele>282.79998779297</ele>
        <time>2015-09-30T14:36:49Z</time>
      </trkpt>
      <trkpt lat="43.42911" lon="6.0632">
        <ele>283</ele>
        <time>2015-09-30T14:36:58Z</time>
      </trkpt>
      <trkpt lat="43.42911" lon="6.0632">
        <ele>282.79998779297</ele>
        <time>2015-09-30T14:36:59Z</time>
      </trkpt>
      <trkpt lat="43.42911" lon="6.0632">
        <ele>282.39999389648</ele>
        <time>2015-09-30T14:37:06Z</time>
      </trkpt>
      <trkpt lat="43.42911" lon="6.0632">
        <ele>282.60000610352</ele>
        <time>2015-09-30T14:37:16Z</time>
      </trkpt>
      <trkpt lat="43.4291" lon="6.06319">
        <ele>283.79998779297</ele>
        <time>2015-09-30T14:38:04Z</time>
      </trkpt>
      <trkpt lat="43.42906" lon="6.06322">
        <ele>284.60000610352</ele>
        <time>2015-09-30T14:38:11Z</time>
      </trkpt>
      <trkpt lat="43.42903" lon="6.06323">
        <ele>284.39999389648</ele>
        <time>2015-09-30T14:38:19Z</time>
      </trkpt>
      <trkpt lat="43.429" lon="6.06324">
        <ele>284.60000610352</ele>
        <time>2015-09-30T14:38:29Z</time>
      </trkpt>
      <trkpt lat="43.42899" lon="6.06323">
        <ele>284.79998779297</ele>
        <time>2015-09-30T14:38:30Z</time>
      </trkpt>
      <trkpt lat="43.42887" lon="6.06324">
        <ele>285.20001220703</ele>
        <time>2015-09-30T14:38:37Z</time>
      </trkpt>
      <trkpt lat="43.42873" lon="6.06322">
        <ele>286</ele>
        <time>2015-09-30T14:38:44Z</time>
      </trkpt>
      <trkpt lat="43.42862" lon="6.06316">
        <ele>286.39999389648</ele>
        <time>2015-09-30T14:38:51Z</time>
      </trkpt>
      <trkpt lat="43.42851" lon="6.0632">
        <ele>287</ele>
        <time>2015-09-30T14:38:57Z</time>
      </trkpt>
      <trkpt lat="43.42839" lon="6.0633">
        <ele>287.20001220703</ele>
        <time>2015-09-30T14:39:02Z</time>
      </trkpt>
      <trkpt lat="43.42823" lon="6.06346">
        <ele>286</ele>
        <time>2015-09-30T14:39:06Z</time>
      </trkpt>
      <trkpt lat="43.42818" lon="6.0635">
        <ele>285.79998779297</ele>
        <time>2015-09-30T14:39:07Z</time>
      </trkpt>
      <trkpt lat="43.42812" lon="6.06349">
        <ele>285.20001220703</ele>
        <time>2015-09-30T14:39:08Z</time>
      </trkpt>
      <trkpt lat="43.42805" lon="6.06347">
        <ele>284.39999389648</ele>
        <time>2015-09-30T14:39:09Z</time>
      </trkpt>
      <trkpt lat="43.42799" lon="6.06347">
        <ele>283.39999389648</ele>
        <time>2015-09-30T14:39:10Z</time>
      </trkpt>
      <trkpt lat="43.42793" lon="6.06345">
        <ele>282.79998779297</ele>
        <time>2015-09-30T14:39:12Z</time>
      </trkpt>
      <trkpt lat="43.42789" lon="6.06343">
        <ele>282.60000610352</ele>
        <time>2015-09-30T14:39:13Z</time>
      </trkpt>
      <trkpt lat="43.42786" lon="6.06342">
        <ele>281.79998779297</ele>
        <time>2015-09-30T14:39:14Z</time>
      </trkpt>
      <trkpt lat="43.4278" lon="6.06337">
        <ele>280.79998779297</ele>
        <time>2015-09-30T14:39:16Z</time>
      </trkpt>
      <trkpt lat="43.42772" lon="6.06337">
        <ele>280.20001220703</ele>
        <time>2015-09-30T14:39:18Z</time>
      </trkpt>
      <trkpt lat="43.42763" lon="6.06337">
        <ele>279.60000610352</ele>
        <time>2015-09-30T14:39:20Z</time>
      </trkpt>
      <trkpt lat="43.42753" lon="6.06341">
        <ele>278.79998779297</ele>
        <time>2015-09-30T14:39:22Z</time>
      </trkpt>
      <trkpt lat="43.42749" lon="6.06344">
        <ele>278.60000610352</ele>
        <time>2015-09-30T14:39:23Z</time>
      </trkpt>
      <trkpt lat="43.42744" lon="6.06345">
        <ele>278.20001220703</ele>
        <time>2015-09-30T14:39:24Z</time>
      </trkpt>
      <trkpt lat="43.4273" lon="6.06348">
        <ele>277.39999389648</ele>
        <time>2015-09-30T14:39:27Z</time>
      </trkpt>
      <trkpt lat="43.42726" lon="6.06348">
        <ele>277.20001220703</ele>
        <time>2015-09-30T14:39:28Z</time>
      </trkpt>
      <trkpt lat="43.42707" lon="6.0635">
        <ele>276.79998779297</ele>
        <time>2015-09-30T14:39:32Z</time>
      </trkpt>
      <trkpt lat="43.42702" lon="6.06348">
        <ele>276.60000610352</ele>
        <time>2015-09-30T14:39:33Z</time>
      </trkpt>
      <trkpt lat="43.42699" lon="6.06346">
        <ele>276.79998779297</ele>
        <time>2015-09-30T14:39:34Z</time>
      </trkpt>
      <trkpt lat="43.42691" lon="6.0634">
        <ele>276.60000610352</ele>
        <time>2015-09-30T14:39:37Z</time>
      </trkpt>
      <trkpt lat="43.42684" lon="6.06335">
        <ele>276.60000610352</ele>
        <time>2015-09-30T14:39:42Z</time>
      </trkpt>
      <trkpt lat="43.42681" lon="6.06333">
        <ele>276.79998779297</ele>
        <time>2015-09-30T14:39:48Z</time>
      </trkpt>
      <trkpt lat="43.4268" lon="6.06333">
        <ele>276.39999389648</ele>
        <time>2015-09-30T14:39:54Z</time>
      </trkpt>
      <trkpt lat="43.4268" lon="6.06333">
        <ele>276.39999389648</ele>
        <time>2015-09-30T14:39:56Z</time>
      </trkpt>
      <trkpt lat="43.4268" lon="6.06333">
        <ele>276.79998779297</ele>
        <time>2015-09-30T14:40:03Z</time>
      </trkpt>
      <trkpt lat="43.4268" lon="6.06333">
        <ele>276.79998779297</ele>
        <time>2015-09-30T14:40:06Z</time>
      </trkpt>
      <trkpt lat="43.42677" lon="6.0633">
        <ele>276.20001220703</ele>
        <time>2015-09-30T14:40:13Z</time>
      </trkpt>
      <trkpt lat="43.42675" lon="6.0633">
        <ele>275.60000610352</ele>
        <time>2015-09-30T14:40:14Z</time>
      </trkpt>
      <trkpt lat="43.42672" lon="6.06329">
        <ele>275</ele>
        <time>2015-09-30T14:40:15Z</time>
      </trkpt>
      <trkpt lat="43.42658" lon="6.06326">
        <ele>274.39999389648</ele>
        <time>2015-09-30T14:40:19Z</time>
      </trkpt>
      <trkpt lat="43.42654" lon="6.06325">
        <ele>274.20001220703</ele>
        <time>2015-09-30T14:40:20Z</time>
      </trkpt>
      <trkpt lat="43.42649" lon="6.06324">
        <ele>274</ele>
        <time>2015-09-30T14:40:21Z</time>
      </trkpt>
      <trkpt lat="43.42641" lon="6.06322">
        <ele>273</ele>
        <time>2015-09-30T14:40:23Z</time>
      </trkpt>
      <trkpt lat="43.42633" lon="6.0632">
        <ele>272.79998779297</ele>
        <time>2015-09-30T14:40:25Z</time>
      </trkpt>
      <trkpt lat="43.4263" lon="6.06318">
        <ele>272.79998779297</ele>
        <time>2015-09-30T14:40:26Z</time>
      </trkpt>
      <trkpt lat="43.42617" lon="6.06312">
        <ele>272</ele>
        <time>2015-09-30T14:40:29Z</time>
      </trkpt>
      <trkpt lat="43.42613" lon="6.06311">
        <ele>271.60000610352</ele>
        <time>2015-09-30T14:40:30Z</time>
      </trkpt>
      <trkpt lat="43.42603" lon="6.06312">
        <ele>270.79998779297</ele>
        <time>2015-09-30T14:40:32Z</time>
      </trkpt>
      <trkpt lat="43.42593" lon="6.06318">
        <ele>271.20001220703</ele>
        <time>2015-09-30T14:40:34Z</time>
      </trkpt>
      <trkpt lat="43.42588" lon="6.06321">
        <ele>270.60000610352</ele>
        <time>2015-09-30T14:40:35Z</time>
      </trkpt>
      <trkpt lat="43.42583" lon="6.06325">
        <ele>270.39999389648</ele>
        <time>2015-09-30T14:40:36Z</time>
      </trkpt>
      <trkpt lat="43.42575" lon="6.06335">
        <ele>269.60000610352</ele>
        <time>2015-09-30T14:40:38Z</time>
      </trkpt>
      <trkpt lat="43.42566" lon="6.06342">
        <ele>268.39999389648</ele>
        <time>2015-09-30T14:40:40Z</time>
      </trkpt>
      <trkpt lat="43.42556" lon="6.06348">
        <ele>268.20001220703</ele>
        <time>2015-09-30T14:40:42Z</time>
      </trkpt>
      <trkpt lat="43.4255" lon="6.06352">
        <ele>268.39999389648</ele>
        <time>2015-09-30T14:40:43Z</time>
      </trkpt>
      <trkpt lat="43.42538" lon="6.06358">
        <ele>267.60000610352</ele>
        <time>2015-09-30T14:40:45Z</time>
      </trkpt>
      <trkpt lat="43.42523" lon="6.06364">
        <ele>267</ele>
        <time>2015-09-30T14:40:48Z</time>
      </trkpt>
      <trkpt lat="43.42517" lon="6.06365">
        <ele>266.60000610352</ele>
        <time>2015-09-30T14:40:49Z</time>
      </trkpt>
      <trkpt lat="43.42504" lon="6.0637">
        <ele>265.79998779297</ele>
        <time>2015-09-30T14:40:51Z</time>
      </trkpt>
      <trkpt lat="43.42491" lon="6.06377">
        <ele>264.79998779297</ele>
        <time>2015-09-30T14:40:53Z</time>
      </trkpt>
      <trkpt lat="43.42464" lon="6.0638">
        <ele>263.60000610352</ele>
        <time>2015-09-30T14:40:57Z</time>
      </trkpt>
      <trkpt lat="43.4244" lon="6.06391">
        <ele>263.39999389648</ele>
        <time>2015-09-30T14:41:01Z</time>
      </trkpt>
      <trkpt lat="43.4242" lon="6.06408">
        <ele>262.79998779297</ele>
        <time>2015-09-30T14:41:05Z</time>
      </trkpt>
      <trkpt lat="43.42417" lon="6.0641">
        <ele>262.79998779297</ele>
        <time>2015-09-30T14:41:06Z</time>
      </trkpt>
      <trkpt lat="43.42409" lon="6.06408">
        <ele>263.20001220703</ele>
        <time>2015-09-30T14:41:08Z</time>
      </trkpt>
      <trkpt lat="43.42401" lon="6.06406">
        <ele>262.39999389648</ele>
        <time>2015-09-30T14:41:10Z</time>
      </trkpt>
      <trkpt lat="43.42396" lon="6.06403">
        <ele>262.20001220703</ele>
        <time>2015-09-30T14:41:11Z</time>
      </trkpt>
      <trkpt lat="43.42386" lon="6.06398">
        <ele>261</ele>
        <time>2015-09-30T14:41:13Z</time>
      </trkpt>
      <trkpt lat="43.42381" lon="6.06398">
        <ele>260.60000610352</ele>
        <time>2015-09-30T14:41:14Z</time>
      </trkpt>
      <trkpt lat="43.42369" lon="6.06406">
        <ele>260</ele>
        <time>2015-09-30T14:41:17Z</time>
      </trkpt>
      <trkpt lat="43.42361" lon="6.06415">
        <ele>260.20001220703</ele>
        <time>2015-09-30T14:41:19Z</time>
      </trkpt>
      <trkpt lat="43.42345" lon="6.06431">
        <ele>260</ele>
        <time>2015-09-30T14:41:23Z</time>
      </trkpt>
      <trkpt lat="43.42341" lon="6.06433">
        <ele>260</ele>
        <time>2015-09-30T14:41:24Z</time>
      </trkpt>
      <trkpt lat="43.42325" lon="6.06447">
        <ele>259.79998779297</ele>
        <time>2015-09-30T14:41:28Z</time>
      </trkpt>
      <trkpt lat="43.42316" lon="6.06455">
        <ele>259.79998779297</ele>
        <time>2015-09-30T14:41:30Z</time>
      </trkpt>
      <trkpt lat="43.42302" lon="6.06473">
        <ele>258.60000610352</ele>
        <time>2015-09-30T14:41:33Z</time>
      </trkpt>
      <trkpt lat="43.4229" lon="6.0649">
        <ele>257.39999389648</ele>
        <time>2015-09-30T14:41:36Z</time>
      </trkpt>
      <trkpt lat="43.42287" lon="6.06496">
        <ele>257</ele>
        <time>2015-09-30T14:41:37Z</time>
      </trkpt>
      <trkpt lat="43.42283" lon="6.06501">
        <ele>256.39999389648</ele>
        <time>2015-09-30T14:41:38Z</time>
      </trkpt>
      <trkpt lat="43.42278" lon="6.06505">
        <ele>256</ele>
        <time>2015-09-30T14:41:39Z</time>
      </trkpt>
      <trkpt lat="43.42266" lon="6.06514">
        <ele>255.60000610352</ele>
        <time>2015-09-30T14:41:41Z</time>
      </trkpt>
      <trkpt lat="43.42256" lon="6.0652">
        <ele>254.80000305176</ele>
        <time>2015-09-30T14:41:43Z</time>
      </trkpt>
      <trkpt lat="43.42251" lon="6.0652">
        <ele>254.60000610352</ele>
        <time>2015-09-30T14:41:44Z</time>
      </trkpt>
      <trkpt lat="43.42245" lon="6.0652">
        <ele>254.19999694824</ele>
        <time>2015-09-30T14:41:45Z</time>
      </trkpt>
      <trkpt lat="43.42229" lon="6.06516">
        <ele>253.60000610352</ele>
        <time>2015-09-30T14:41:48Z</time>
      </trkpt>
      <trkpt lat="43.42216" lon="6.06514">
        <ele>252.80000305176</ele>
        <time>2015-09-30T14:41:50Z</time>
      </trkpt>
      <trkpt lat="43.42212" lon="6.06514">
        <ele>252.19999694824</ele>
        <time>2015-09-30T14:41:51Z</time>
      </trkpt>
      <trkpt lat="43.42201" lon="6.06514">
        <ele>251.19999694824</ele>
        <time>2015-09-30T14:41:54Z</time>
      </trkpt>
      <trkpt lat="43.42193" lon="6.06509">
        <ele>249.80000305176</ele>
        <time>2015-09-30T14:41:57Z</time>
      </trkpt>
      <trkpt lat="43.42193" lon="6.06505">
        <ele>249.60000610352</ele>
        <time>2015-09-30T14:41:58Z</time>
      </trkpt>
      <trkpt lat="43.42192" lon="6.06494">
        <ele>250</ele>
        <time>2015-09-30T14:42:01Z</time>
      </trkpt>
      <trkpt lat="43.42191" lon="6.06486">
        <ele>250.39999389648</ele>
        <time>2015-09-30T14:42:03Z</time>
      </trkpt>
      <trkpt lat="43.42185" lon="6.06455">
        <ele>250</ele>
        <time>2015-09-30T14:42:10Z</time>
      </trkpt>
      <trkpt lat="43.42178" lon="6.06418">
        <ele>250</ele>
        <time>2015-09-30T14:42:17Z</time>
      </trkpt>
      <trkpt lat="43.42175" lon="6.06399">
        <ele>250</ele>
        <time>2015-09-30T14:42:20Z</time>
      </trkpt>
      <trkpt lat="43.42171" lon="6.06385">
        <ele>249.80000305176</ele>
        <time>2015-09-30T14:42:22Z</time>
      </trkpt>
      <trkpt lat="43.42169" lon="6.06369">
        <ele>249.80000305176</ele>
        <time>2015-09-30T14:42:24Z</time>
      </trkpt>
      <trkpt lat="43.42166" lon="6.06352">
        <ele>250</ele>
        <time>2015-09-30T14:42:26Z</time>
      </trkpt>
      <trkpt lat="43.42163" lon="6.06335">
        <ele>250.39999389648</ele>
        <time>2015-09-30T14:42:28Z</time>
      </trkpt>
      <trkpt lat="43.4216" lon="6.06318">
        <ele>250.60000610352</ele>
        <time>2015-09-30T14:42:30Z</time>
      </trkpt>
      <trkpt lat="43.42159" lon="6.06309">
        <ele>251</ele>
        <time>2015-09-30T14:42:31Z</time>
      </trkpt>
      <trkpt lat="43.42158" lon="6.06293">
        <ele>251.80000305176</ele>
        <time>2015-09-30T14:42:33Z</time>
      </trkpt>
      <trkpt lat="43.42157" lon="6.06287">
        <ele>252</ele>
        <time>2015-09-30T14:42:34Z</time>
      </trkpt>
      <trkpt lat="43.42157" lon="6.06273">
        <ele>253</ele>
        <time>2015-09-30T14:42:36Z</time>
      </trkpt>
      <trkpt lat="43.42157" lon="6.06267">
        <ele>253.80000305176</ele>
        <time>2015-09-30T14:42:37Z</time>
      </trkpt>
      <trkpt lat="43.42157" lon="6.06254">
        <ele>254.19999694824</ele>
        <time>2015-09-30T14:42:39Z</time>
      </trkpt>
      <trkpt lat="43.42157" lon="6.06244">
        <ele>254.80000305176</ele>
        <time>2015-09-30T14:42:41Z</time>
      </trkpt>
      <trkpt lat="43.42156" lon="6.06239">
        <ele>255.19999694824</ele>
        <time>2015-09-30T14:42:42Z</time>
      </trkpt>
      <trkpt lat="43.42156" lon="6.0623">
        <ele>255.80000305176</ele>
        <time>2015-09-30T14:42:44Z</time>
      </trkpt>
      <trkpt lat="43.42152" lon="6.06218">
        <ele>256.39999389648</ele>
        <time>2015-09-30T14:42:48Z</time>
      </trkpt>
      <trkpt lat="43.42146" lon="6.06216">
        <ele>256.79998779297</ele>
        <time>2015-09-30T14:42:51Z</time>
      </trkpt>
      <trkpt lat="43.42141" lon="6.06217">
        <ele>256.79998779297</ele>
        <time>2015-09-30T14:42:53Z</time>
      </trkpt>
      <trkpt lat="43.42135" lon="6.06219">
        <ele>256.60000610352</ele>
        <time>2015-09-30T14:42:57Z</time>
      </trkpt>
      <trkpt lat="43.42133" lon="6.0622">
        <ele>256</ele>
        <time>2015-09-30T14:42:59Z</time>
      </trkpt>
      <trkpt lat="43.42132" lon="6.0622">
        <ele>255.60000610352</ele>
        <time>2015-09-30T14:43:00Z</time>
      </trkpt>
      <trkpt lat="43.42129" lon="6.06221">
        <ele>255.60000610352</ele>
        <time>2015-09-30T14:43:06Z</time>
      </trkpt>
      <trkpt lat="43.42129" lon="6.06221">
        <ele>255.39999389648</ele>
        <time>2015-09-30T14:43:23Z</time>
      </trkpt>
      <trkpt lat="43.42129" lon="6.06221">
        <ele>255.60000610352</ele>
        <time>2015-09-30T14:43:29Z</time>
      </trkpt>
      <trkpt lat="43.42129" lon="6.06221">
        <ele>255.80000305176</ele>
        <time>2015-09-30T14:43:37Z</time>
      </trkpt>
      <trkpt lat="43.42129" lon="6.06221">
        <ele>255.60000610352</ele>
        <time>2015-09-30T14:43:40Z</time>
      </trkpt>
      <trkpt lat="43.42128" lon="6.06221">
        <ele>255</ele>
        <time>2015-09-30T14:43:44Z</time>
      </trkpt>
      <trkpt lat="43.42128" lon="6.06221">
        <ele>255.19999694824</ele>
        <time>2015-09-30T14:43:51Z</time>
      </trkpt>
      <trkpt lat="43.42128" lon="6.06221">
        <ele>255</ele>
        <time>2015-09-30T14:43:54Z</time>
      </trkpt>
      <trkpt lat="43.42128" lon="6.06221">
        <ele>255</ele>
        <time>2015-09-30T14:44:02Z</time>
      </trkpt>
      <trkpt lat="43.42128" lon="6.06221">
        <ele>255</ele>
        <time>2015-09-30T14:44:22Z</time>
      </trkpt>
      <trkpt lat="43.42125" lon="6.06224">
        <ele>254.80000305176</ele>
        <time>2015-09-30T14:44:29Z</time>
      </trkpt>
      <trkpt lat="43.4212" lon="6.06226">
        <ele>254.39999389648</ele>
        <time>2015-09-30T14:44:31Z</time>
      </trkpt>
      <trkpt lat="43.42111" lon="6.06231">
        <ele>254</ele>
        <time>2015-09-30T14:44:35Z</time>
      </trkpt>
      <trkpt lat="43.4211" lon="6.06231">
        <ele>254</ele>
        <time>2015-09-30T14:44:39Z</time>
      </trkpt>
      <trkpt lat="43.4211" lon="6.06231">
        <ele>253.60000610352</ele>
        <time>2015-09-30T14:44:46Z</time>
      </trkpt>
      <trkpt lat="43.42106" lon="6.06232">
        <ele>253.60000610352</ele>
        <time>2015-09-30T14:44:51Z</time>
      </trkpt>
      <trkpt lat="43.42104" lon="6.06233">
        <ele>253.39999389648</ele>
        <time>2015-09-30T14:44:52Z</time>
      </trkpt>
      <trkpt lat="43.42092" lon="6.06236">
        <ele>252.60000610352</ele>
        <time>2015-09-30T14:44:55Z</time>
      </trkpt>
      <trkpt lat="43.42079" lon="6.06239">
        <ele>252</ele>
        <time>2015-09-30T14:44:58Z</time>
      </trkpt>
      <trkpt lat="43.42072" lon="6.06242">
        <ele>250.80000305176</ele>
        <time>2015-09-30T14:45:00Z</time>
      </trkpt>
      <trkpt lat="43.4206" lon="6.06245">
        <ele>249.60000610352</ele>
        <time>2015-09-30T14:45:03Z</time>
      </trkpt>
      <trkpt lat="43.42049" lon="6.06249">
        <ele>248.39999389648</ele>
        <time>2015-09-30T14:45:06Z</time>
      </trkpt>
      <trkpt lat="43.42046" lon="6.06251">
        <ele>248</ele>
        <time>2015-09-30T14:45:07Z</time>
      </trkpt>
      <trkpt lat="43.42038" lon="6.06253">
        <ele>247</ele>
        <time>2015-09-30T14:45:09Z</time>
      </trkpt>
      <trkpt lat="43.42029" lon="6.06255">
        <ele>245.80000305176</ele>
        <time>2015-09-30T14:45:11Z</time>
      </trkpt>
      <trkpt lat="43.42016" lon="6.0626">
        <ele>244.19999694824</ele>
        <time>2015-09-30T14:45:14Z</time>
      </trkpt>
      <trkpt lat="43.42001" lon="6.06265">
        <ele>243</ele>
        <time>2015-09-30T14:45:17Z</time>
      </trkpt>
      <trkpt lat="43.41991" lon="6.06268">
        <ele>241.80000305176</ele>
        <time>2015-09-30T14:45:19Z</time>
      </trkpt>
      <trkpt lat="43.41978" lon="6.06273">
        <ele>240.39999389648</ele>
        <time>2015-09-30T14:45:21Z</time>
      </trkpt>
      <trkpt lat="43.41964" lon="6.06277">
        <ele>239</ele>
        <time>2015-09-30T14:45:23Z</time>
      </trkpt>
      <trkpt lat="43.4195" lon="6.06282">
        <ele>237.80000305176</ele>
        <time>2015-09-30T14:45:25Z</time>
      </trkpt>
      <trkpt lat="43.41921" lon="6.0629">
        <ele>236.39999389648</ele>
        <time>2015-09-30T14:45:29Z</time>
      </trkpt>
      <trkpt lat="43.41898" lon="6.06293">
        <ele>235.19999694824</ele>
        <time>2015-09-30T14:45:32Z</time>
      </trkpt>
      <trkpt lat="43.41882" lon="6.06292">
        <ele>234.19999694824</ele>
        <time>2015-09-30T14:45:34Z</time>
      </trkpt>
      <trkpt lat="43.41866" lon="6.06292">
        <ele>233</ele>
        <time>2015-09-30T14:45:36Z</time>
      </trkpt>
      <trkpt lat="43.41857" lon="6.06291">
        <ele>232.60000610352</ele>
        <time>2015-09-30T14:45:37Z</time>
      </trkpt>
      <trkpt lat="43.41839" lon="6.0629">
        <ele>232</ele>
        <time>2015-09-30T14:45:39Z</time>
      </trkpt>
      <trkpt lat="43.41816" lon="6.06289">
        <ele>230.80000305176</ele>
        <time>2015-09-30T14:45:42Z</time>
      </trkpt>
      <trkpt lat="43.41808" lon="6.06287">
        <ele>230</ele>
        <time>2015-09-30T14:45:43Z</time>
      </trkpt>
      <trkpt lat="43.41801" lon="6.06283">
        <ele>229.39999389648</ele>
        <time>2015-09-30T14:45:44Z</time>
      </trkpt>
      <trkpt lat="43.41789" lon="6.06272">
        <ele>228.60000610352</ele>
        <time>2015-09-30T14:45:46Z</time>
      </trkpt>
      <trkpt lat="43.41782" lon="6.06266">
        <ele>228</ele>
        <time>2015-09-30T14:45:47Z</time>
      </trkpt>
      <trkpt lat="43.41751" lon="6.06251">
        <ele>227</ele>
        <time>2015-09-30T14:45:51Z</time>
      </trkpt>
      <trkpt lat="43.41744" lon="6.06249">
        <ele>226.39999389648</ele>
        <time>2015-09-30T14:45:52Z</time>
      </trkpt>
      <trkpt lat="43.41727" lon="6.06247">
        <ele>225.19999694824</ele>
        <time>2015-09-30T14:45:54Z</time>
      </trkpt>
      <trkpt lat="43.41717" lon="6.06247">
        <ele>224.60000610352</ele>
        <time>2015-09-30T14:45:55Z</time>
      </trkpt>
      <trkpt lat="43.41693" lon="6.06248">
        <ele>224.19999694824</ele>
        <time>2015-09-30T14:45:58Z</time>
      </trkpt>
      <trkpt lat="43.4167" lon="6.06246">
        <ele>224.19999694824</ele>
        <time>2015-09-30T14:46:01Z</time>
      </trkpt>
      <trkpt lat="43.41645" lon="6.06237">
        <ele>223.60000610352</ele>
        <time>2015-09-30T14:46:05Z</time>
      </trkpt>
      <trkpt lat="43.41634" lon="6.06231">
        <ele>223.19999694824</ele>
        <time>2015-09-30T14:46:07Z</time>
      </trkpt>
      <trkpt lat="43.41626" lon="6.06229">
        <ele>222.80000305176</ele>
        <time>2015-09-30T14:46:09Z</time>
      </trkpt>
      <trkpt lat="43.41623" lon="6.0623">
        <ele>222.80000305176</ele>
        <time>2015-09-30T14:46:10Z</time>
      </trkpt>
      <trkpt lat="43.41614" lon="6.06232">
        <ele>222</ele>
        <time>2015-09-30T14:46:13Z</time>
      </trkpt>
      <trkpt lat="43.41608" lon="6.06234">
        <ele>222</ele>
        <time>2015-09-30T14:46:15Z</time>
      </trkpt>
      <trkpt lat="43.41606" lon="6.06234">
        <ele>221</ele>
        <time>2015-09-30T14:46:19Z</time>
      </trkpt>
      <trkpt lat="43.41606" lon="6.06234">
        <ele>221</ele>
        <time>2015-09-30T14:46:20Z</time>
      </trkpt>
      <trkpt lat="43.41606" lon="6.06235">
        <ele>220.60000610352</ele>
        <time>2015-09-30T14:46:29Z</time>
      </trkpt>
      <trkpt lat="43.41607" lon="6.06235">
        <ele>220.60000610352</ele>
        <time>2015-09-30T14:46:30Z</time>
      </trkpt>
      <trkpt lat="43.41606" lon="6.06235">
        <ele>220.60000610352</ele>
        <time>2015-09-30T14:46:46Z</time>
      </trkpt>
      <trkpt lat="43.41606" lon="6.06235">
        <ele>220.60000610352</ele>
        <time>2015-09-30T14:46:47Z</time>
      </trkpt>
      <trkpt lat="43.41605" lon="6.06239">
        <ele>221</ele>
        <time>2015-09-30T14:46:52Z</time>
      </trkpt>
      <trkpt lat="43.41604" lon="6.0625">
        <ele>221.19999694824</ele>
        <time>2015-09-30T14:47:00Z</time>
      </trkpt>
      <trkpt lat="43.41602" lon="6.06254">
        <ele>221.19999694824</ele>
        <time>2015-09-30T14:47:11Z</time>
      </trkpt>
      <trkpt lat="43.41594" lon="6.0626">
        <ele>221</ele>
        <time>2015-09-30T14:47:16Z</time>
      </trkpt>
      <trkpt lat="43.41584" lon="6.06275">
        <ele>220.60000610352</ele>
        <time>2015-09-30T14:47:20Z</time>
      </trkpt>
      <trkpt lat="43.41584" lon="6.06281">
        <ele>220.60000610352</ele>
        <time>2015-09-30T14:47:21Z</time>
      </trkpt>
      <trkpt lat="43.41586" lon="6.06308">
        <ele>219.80000305176</ele>
        <time>2015-09-30T14:47:25Z</time>
      </trkpt>
      <trkpt lat="43.4157" lon="6.06335">
        <ele>218.60000610352</ele>
        <time>2015-09-30T14:47:29Z</time>
      </trkpt>
      <trkpt lat="43.4156" lon="6.06357">
        <ele>217.39999389648</ele>
        <time>2015-09-30T14:47:32Z</time>
      </trkpt>
      <trkpt lat="43.41557" lon="6.06367">
        <ele>217.39999389648</ele>
        <time>2015-09-30T14:47:33Z</time>
      </trkpt>
      <trkpt lat="43.41556" lon="6.06375">
        <ele>217.19999694824</ele>
        <time>2015-09-30T14:47:34Z</time>
      </trkpt>
      <trkpt lat="43.41553" lon="6.06394">
        <ele>216.39999389648</ele>
        <time>2015-09-30T14:47:36Z</time>
      </trkpt>
      <trkpt lat="43.41547" lon="6.06425">
        <ele>215.19999694824</ele>
        <time>2015-09-30T14:47:39Z</time>
      </trkpt>
      <trkpt lat="43.41546" lon="6.06434">
        <ele>214.60000610352</ele>
        <time>2015-09-30T14:47:40Z</time>
      </trkpt>
      <trkpt lat="43.41545" lon="6.06445">
        <ele>213.80000305176</ele>
        <time>2015-09-30T14:47:41Z</time>
      </trkpt>
      <trkpt lat="43.41545" lon="6.06452">
        <ele>213.39999389648</ele>
        <time>2015-09-30T14:47:42Z</time>
      </trkpt>
      <trkpt lat="43.41545" lon="6.0646">
        <ele>212.60000610352</ele>
        <time>2015-09-30T14:47:44Z</time>
      </trkpt>
      <trkpt lat="43.41544" lon="6.06463">
        <ele>212.39999389648</ele>
        <time>2015-09-30T14:47:45Z</time>
      </trkpt>
      <trkpt lat="43.41544" lon="6.06463">
        <ele>212.39999389648</ele>
        <time>2015-09-30T14:47:47Z</time>
      </trkpt>
      <trkpt lat="43.41544" lon="6.06463">
        <ele>212</ele>
        <time>2015-09-30T14:47:58Z</time>
      </trkpt>
      <trkpt lat="43.41544" lon="6.06463">
        <ele>211.80000305176</ele>
        <time>2015-09-30T14:48:02Z</time>
      </trkpt>
      <trkpt lat="43.41544" lon="6.06462">
        <ele>211.60000610352</ele>
        <time>2015-09-30T14:48:08Z</time>
      </trkpt>
      <trkpt lat="43.41544" lon="6.06458">
        <ele>211.80000305176</ele>
        <time>2015-09-30T14:48:10Z</time>
      </trkpt>
      <trkpt lat="43.41547" lon="6.06457">
        <ele>212</ele>
        <time>2015-09-30T14:48:12Z</time>
      </trkpt>
      <trkpt lat="43.41544" lon="6.06463">
        <ele>211.60000610352</ele>
        <time>2015-09-30T14:48:15Z</time>
      </trkpt>
      <trkpt lat="43.41536" lon="6.06466">
        <ele>211.60000610352</ele>
        <time>2015-09-30T14:48:19Z</time>
      </trkpt>
      <trkpt lat="43.41534" lon="6.06469">
        <ele>210.39999389648</ele>
        <time>2015-09-30T14:48:20Z</time>
      </trkpt>
      <trkpt lat="43.41532" lon="6.06484">
        <ele>209.80000305176</ele>
        <time>2015-09-30T14:48:23Z</time>
      </trkpt>
      <trkpt lat="43.41529" lon="6.06495">
        <ele>210</ele>
        <time>2015-09-30T14:48:25Z</time>
      </trkpt>
      <trkpt lat="43.41525" lon="6.06512">
        <ele>211</ele>
        <time>2015-09-30T14:48:28Z</time>
      </trkpt>
      <trkpt lat="43.4152" lon="6.06545">
        <ele>211.60000610352</ele>
        <time>2015-09-30T14:48:33Z</time>
      </trkpt>
      <trkpt lat="43.41516" lon="6.06568">
        <ele>211.39999389648</ele>
        <time>2015-09-30T14:48:36Z</time>
      </trkpt>
      <trkpt lat="43.41516" lon="6.06576">
        <ele>211.19999694824</ele>
        <time>2015-09-30T14:48:37Z</time>
      </trkpt>
      <trkpt lat="43.41514" lon="6.06591">
        <ele>211.39999389648</ele>
        <time>2015-09-30T14:48:39Z</time>
      </trkpt>
      <trkpt lat="43.41505" lon="6.06644">
        <ele>210.60000610352</ele>
        <time>2015-09-30T14:48:47Z</time>
      </trkpt>
      <trkpt lat="43.41499" lon="6.06679">
        <ele>210.39999389648</ele>
        <time>2015-09-30T14:48:53Z</time>
      </trkpt>
      <trkpt lat="43.41499" lon="6.06692">
        <ele>210.19999694824</ele>
        <time>2015-09-30T14:48:55Z</time>
      </trkpt>
      <trkpt lat="43.41499" lon="6.06718">
        <ele>209.80000305176</ele>
        <time>2015-09-30T14:49:00Z</time>
      </trkpt>
      <trkpt lat="43.41497" lon="6.06728">
        <ele>209.19999694824</ele>
        <time>2015-09-30T14:49:02Z</time>
      </trkpt>
      <trkpt lat="43.41496" lon="6.06756">
        <ele>208.80000305176</ele>
        <time>2015-09-30T14:49:07Z</time>
      </trkpt>
      <trkpt lat="43.41493" lon="6.0678">
        <ele>208</ele>
        <time>2015-09-30T14:49:11Z</time>
      </trkpt>
      <trkpt lat="43.41489" lon="6.06799">
        <ele>207.39999389648</ele>
        <time>2015-09-30T14:49:14Z</time>
      </trkpt>
      <trkpt lat="43.41483" lon="6.06823">
        <ele>207</ele>
        <time>2015-09-30T14:49:18Z</time>
      </trkpt>
      <trkpt lat="43.41479" lon="6.06834">
        <ele>206.80000305176</ele>
        <time>2015-09-30T14:49:20Z</time>
      </trkpt>
      <trkpt lat="43.41477" lon="6.06844">
        <ele>206.80000305176</ele>
        <time>2015-09-30T14:49:22Z</time>
      </trkpt>
      <trkpt lat="43.41475" lon="6.06854">
        <ele>206.80000305176</ele>
        <time>2015-09-30T14:49:24Z</time>
      </trkpt>
      <trkpt lat="43.41476" lon="6.06866">
        <ele>207.19999694824</ele>
        <time>2015-09-30T14:49:27Z</time>
      </trkpt>
      <trkpt lat="43.41478" lon="6.06874">
        <ele>207</ele>
        <time>2015-09-30T14:49:31Z</time>
      </trkpt>
      <trkpt lat="43.41477" lon="6.06884">
        <ele>206.60000610352</ele>
        <time>2015-09-30T14:49:35Z</time>
      </trkpt>
      <trkpt lat="43.41476" lon="6.06885">
        <ele>206.60000610352</ele>
        <time>2015-09-30T14:49:36Z</time>
      </trkpt>
      <trkpt lat="43.41476" lon="6.06893">
        <ele>206.80000305176</ele>
        <time>2015-09-30T14:49:40Z</time>
      </trkpt>
      <trkpt lat="43.41476" lon="6.06896">
        <ele>206.60000610352</ele>
        <time>2015-09-30T14:49:41Z</time>
      </trkpt>
      <trkpt lat="43.41478" lon="6.069">
        <ele>206.60000610352</ele>
        <time>2015-09-30T14:49:44Z</time>
      </trkpt>
      <trkpt lat="43.41478" lon="6.06903">
        <ele>206.60000610352</ele>
        <time>2015-09-30T14:49:47Z</time>
      </trkpt>
      <trkpt lat="43.4148" lon="6.06903">
        <ele>206.80000305176</ele>
        <time>2015-09-30T14:49:58Z</time>
      </trkpt>
      <trkpt lat="43.4148" lon="6.06901">
        <ele>207</ele>
        <time>2015-09-30T14:50:10Z</time>
      </trkpt>
      <trkpt lat="43.41479" lon="6.06901">
        <ele>206.80000305176</ele>
        <time>2015-09-30T14:50:20Z</time>
      </trkpt>
      <trkpt lat="43.4148" lon="6.06907">
        <ele>207.19999694824</ele>
        <time>2015-09-30T14:50:24Z</time>
      </trkpt>
      <trkpt lat="43.41479" lon="6.0691">
        <ele>207.19999694824</ele>
        <time>2015-09-30T14:50:25Z</time>
      </trkpt>
      <trkpt lat="43.41473" lon="6.06927">
        <ele>207.19999694824</ele>
        <time>2015-09-30T14:50:30Z</time>
      </trkpt>
      <trkpt lat="43.41474" lon="6.06933">
        <ele>207.19999694824</ele>
        <time>2015-09-30T14:50:32Z</time>
      </trkpt>
      <trkpt lat="43.41478" lon="6.06941">
        <ele>207</ele>
        <time>2015-09-30T14:50:34Z</time>
      </trkpt>
      <trkpt lat="43.41492" lon="6.06958">
        <ele>206</ele>
        <time>2015-09-30T14:50:39Z</time>
      </trkpt>
      <trkpt lat="43.41494" lon="6.0696">
        <ele>206</ele>
        <time>2015-09-30T14:50:40Z</time>
      </trkpt>
      <trkpt lat="43.41505" lon="6.06971">
        <ele>206.60000610352</ele>
        <time>2015-09-30T14:50:44Z</time>
      </trkpt>
      <trkpt lat="43.41514" lon="6.06975">
        <ele>206.39999389648</ele>
        <time>2015-09-30T14:50:47Z</time>
      </trkpt>
      <trkpt lat="43.41521" lon="6.06976">
        <ele>206.19999694824</ele>
        <time>2015-09-30T14:50:49Z</time>
      </trkpt>
      <trkpt lat="43.41539" lon="6.06974">
        <ele>206.80000305176</ele>
        <time>2015-09-30T14:50:53Z</time>
      </trkpt>
      <trkpt lat="43.41549" lon="6.06972">
        <ele>206.60000610352</ele>
        <time>2015-09-30T14:50:55Z</time>
      </trkpt>
      <trkpt lat="43.41563" lon="6.06968">
        <ele>207</ele>
        <time>2015-09-30T14:50:58Z</time>
      </trkpt>
      <trkpt lat="43.41567" lon="6.06968">
        <ele>207</ele>
        <time>2015-09-30T14:50:59Z</time>
      </trkpt>
      <trkpt lat="43.41572" lon="6.06967">
        <ele>207.60000610352</ele>
        <time>2015-09-30T14:51:01Z</time>
      </trkpt>
      <trkpt lat="43.41574" lon="6.06978">
        <ele>207.80000305176</ele>
        <time>2015-09-30T14:51:04Z</time>
      </trkpt>
      <trkpt lat="43.41574" lon="6.06985">
        <ele>207.39999389648</ele>
        <time>2015-09-30T14:51:06Z</time>
      </trkpt>
      <trkpt lat="43.41574" lon="6.06991">
        <ele>207.19999694824</ele>
        <time>2015-09-30T14:51:09Z</time>
      </trkpt>
      <trkpt lat="43.41575" lon="6.06991">
        <ele>207.19999694824</ele>
        <time>2015-09-30T14:51:13Z</time>
      </trkpt>
      <trkpt lat="43.41575" lon="6.06991">
        <ele>206.80000305176</ele>
        <time>2015-09-30T14:51:30Z</time>
      </trkpt>
      <trkpt lat="43.41575" lon="6.06993">
        <ele>206.19999694824</ele>
        <time>2015-09-30T14:51:36Z</time>
      </trkpt>
      <trkpt lat="43.41575" lon="6.06998">
        <ele>206.39999389648</ele>
        <time>2015-09-30T14:51:38Z</time>
      </trkpt>
      <trkpt lat="43.41576" lon="6.06999">
        <ele>206.19999694824</ele>
        <time>2015-09-30T14:51:39Z</time>
      </trkpt>
      <trkpt lat="43.41576" lon="6.07003">
        <ele>206.39999389648</ele>
        <time>2015-09-30T14:51:42Z</time>
      </trkpt>
      <trkpt lat="43.41576" lon="6.07005">
        <ele>206.39999389648</ele>
        <time>2015-09-30T14:51:43Z</time>
      </trkpt>
      <trkpt lat="43.41578" lon="6.07019">
        <ele>207</ele>
        <time>2015-09-30T14:51:48Z</time>
      </trkpt>
      <trkpt lat="43.41578" lon="6.07022">
        <ele>206.80000305176</ele>
        <time>2015-09-30T14:51:49Z</time>
      </trkpt>
      <trkpt lat="43.41579" lon="6.0703">
        <ele>206.80000305176</ele>
        <time>2015-09-30T14:51:52Z</time>
      </trkpt>
      <trkpt lat="43.41579" lon="6.07034">
        <ele>206.60000610352</ele>
        <time>2015-09-30T14:51:55Z</time>
      </trkpt>
      <trkpt lat="43.41581" lon="6.07034">
        <ele>206.19999694824</ele>
        <time>2015-09-30T14:52:01Z</time>
      </trkpt>
      <trkpt lat="43.41581" lon="6.07035">
        <ele>207</ele>
        <time>2015-09-30T14:52:14Z</time>
      </trkpt>
      <trkpt lat="43.41581" lon="6.07035">
        <ele>207.39999389648</ele>
        <time>2015-09-30T14:52:28Z</time>
      </trkpt>
      <trkpt lat="43.41581" lon="6.07035">
        <ele>207.19999694824</ele>
        <time>2015-09-30T14:52:51Z</time>
      </trkpt>
      <trkpt lat="43.41581" lon="6.07035">
        <ele>206.80000305176</ele>
        <time>2015-09-30T14:52:55Z</time>
      </trkpt>
      <trkpt lat="43.41581" lon="6.07035">
        <ele>207</ele>
        <time>2015-09-30T14:53:23Z</time>
      </trkpt>
      <trkpt lat="43.41581" lon="6.07035">
        <ele>205.80000305176</ele>
        <time>2015-09-30T14:53:33Z</time>
      </trkpt>
      <trkpt lat="43.41581" lon="6.07035">
        <ele>207</ele>
        <time>2015-09-30T14:53:54Z</time>
      </trkpt>
      <trkpt lat="43.41581" lon="6.07034">
        <ele>207.60000610352</ele>
        <time>2015-09-30T14:54:08Z</time>
      </trkpt>
      <trkpt lat="43.41581" lon="6.07034">
        <ele>207.19999694824</ele>
        <time>2015-09-30T14:54:24Z</time>
      </trkpt>
      <trkpt lat="43.41581" lon="6.07034">
        <ele>207.19999694824</ele>
        <time>2015-09-30T14:54:26Z</time>
      </trkpt>
      <trkpt lat="43.41581" lon="6.07034">
        <ele>207.19999694824</ele>
        <time>2015-09-30T14:54:36Z</time>
      </trkpt>
      <trkpt lat="43.41581" lon="6.07034">
        <ele>207.19999694824</ele>
        <time>2015-09-30T14:55:14Z</time>
      </trkpt>
      <trkpt lat="43.41581" lon="6.07034">
        <ele>206.80000305176</ele>
        <time>2015-09-30T14:55:26Z</time>
      </trkpt>
      <trkpt lat="43.41581" lon="6.07034">
        <ele>206.60000610352</ele>
        <time>2015-09-30T14:56:12Z</time>
      </trkpt>
      <trkpt lat="43.41582" lon="6.07034">
        <ele>206.39999389648</ele>
        <time>2015-09-30T14:56:31Z</time>
      </trkpt>
    </trkseg>
  </trk>
</gpx>